     2              OBSERVATION DATA    GPS                 RINEX VERSION / TYPE
teqc 1997Sep10 19971030 21:34:21UTC                         PGM / RUN BY / DATE
                                                            COMMENT
Original Marker Name: 55485.SAN2                            COMMENT
Campaign Name: NGS Imperial Valley 1990                     COMMENT
4-Character Station Name: SAN1                              COMMENT
6-Character Antenna Code: TI4100                            COMMENT
Vertical Measurement Point: PAE                             COMMENT
Vertical Offset to Rinex Ref. Point: 0.0000                 COMMENT
Radial Measurement Point: RRP                               COMMENT
Radial Offset to Rinex Ref. Point: 0.0000                   COMMENT
Antenna Height from Field Measurement: 1.1090 m             COMMENT
Original XYZ: -2428705.5320 -4799860.8544 3417158.5170      COMMENT
New XYZ position is based on association with SCEC monument COMMENT
E1C8G3P5+0011. Position of that monument is believed to be  COMMENT
valid to within 1 m horizontally; vertical accuracy         COMMENT
should be no worse than 3-times this value.                 COMMENT
                                                            COMMENT
Revised Rinex header created by UCSD GPS archive for        COMMENT
GSAC on 10-Apr-1999 (1999:100) 03:07:53 GMT                 COMMENT
For assistance contact dagnew@ucsd.edu or hjohnson@ucsd.edu COMMENT
                                                            COMMENT
SANDIE NASA RM 1 1976                                       MARKER NAME
5 NATIONAL GEODETIC SURVEY                                  OBSERVER / AGENCY
122 TI 4100 1.9                                             REC # / TYPE / VERS
4102 TI 4100                                                ANT # / TYPE
 -2428712.0000 -4799859.0000  3417162.0000                  APPROX POSITION XYZ
        1.1090        0.0000        0.0000                  ANTENNA: DELTA H/E/N
     1     1     0                                          WAVELENGTH FACT L1/2
     4    P1    P2    L1    L2                              # / TYPES OF OBSERV
    15                                                      INTERVAL
  1990     3     9     3    41   29.000000                  TIME OF FIRST OBS
  1990     3     9     7    52   44.000000                  TIME OF LAST OBS
     0                                                      # OF SATELLITES
                                                            END OF HEADER
 90  3  9  3 41 29.0800000  0  4G 6G 9G11G13
  20630790.314    20630792.279      834106.168 8   -994881.365 9
  22163694.651    22163697.786      537475.695 9  -1073626.919 8
  20942466.029    20942469.399      744092.006 9  -1017401.929 7
  23844853.846    23844862.666      332143.424 8  -1094882.482 7
 90  3  9  3 41 44.0800000  0  4G 6G 9G11G13
  20628248.419    20628251.118      820749.401 8  -1005289.207 9
  22155939.401    22155942.721      496733.269 8  -1105374.211 9
  20938410.073    20938414.948      722776.519 9  -1034011.372 7
  23834327.188    23834335.616      276828.149 8  -1137985.125 8
 90  3  9  3 41 59.0800000  0  4G 6G 9G11G13
  20625725.176    20625728.684      807491.136 8  -1015620.311 8
  22148196.468    22148197.270      456031.953 9  -1137089.476 9
  20934379.048    20934383.162      701593.907 8  -1050517.269 8
  23823811.071    23823819.561      221565.640 8  -1181046.647 8
 90  3  9  3 42 14.0800000  0  4G 6G 9G11G13
  20623221.489    20623224.193      794331.567 9  -1025874.513 8
  22140457.542    22140460.204      415372.319 9  -1168772.281 8
  20930373.474    20930376.704      680544.198 9  -1066919.618 7
  23813305.457    23813312.626      166356.410 8  -1224066.637 7
 90  3  9  3 42 29.0800000  0  4G 6G 9G11G13
  20620736.723    20620739.170      781271.035 8  -1036051.528 8
  22132728.386    22132730.908      374754.338 8  -1200422.609 8
  20926392.832    20926397.582      659627.667 8  -1083218.174 7
  23802808.198    23802818.452      111200.882 9  -1267044.803 8
 90  3  9  3 42 44.0800000  0  4G 6G 9G11G13
  20618269.818    20618273.124      768309.789 9  -1046151.185 9
  22125007.260    22125010.238      334178.617 9  -1232040.020 8
  20922438.602    20922442.064      638844.370 9  -1099412.925 8
  23792323.035    23792332.959       56099.240 9  -1309980.963 8
 90  3  9  3 42 59.0800000  0  4G 6G 9G11G13
  20615821.797    20615824.612      755448.131 8  -1056173.242 9
  22117294.377    22117296.776      293645.164 9  -1263624.474 9
  20918508.772    20918512.734      618194.358 9  -1115503.801 8
  23781848.553    23781857.511        1051.734 9  -1352874.953 8
 90  3  9  3 43 14.0800000  0  4G 6G 9G11G13
  20613393.991    20613395.593      742686.362 9  -1066117.464 9
  22109588.511    22109591.310      253154.510 9  -1295175.588 8
  20914605.872    20914608.009      597677.615 9  -1131490.838 7
  23771383.518    23771392.598      -53941.126 9  -1395726.362 7
 90  3  9  3 43 29.0800000  0  4G 6G 9G11G13
  20610985.124    20610985.174      730024.700 9  -1075983.680 8
  22101893.599    22101895.168      212707.032 9  -1326693.054 9
  20910725.593    20910729.707      577294.263 9  -1147373.935 8
  23760929.529    23760936.807     -108879.260 9  -1438535.136 7
 90  3  9  3 43 44.0800000  0  4G 6G 9G11G13
  20608594.785    20608595.300      717463.474 9  -1085771.630 8
  22094201.957    22094205.752      172302.861 8  -1358176.797 8
  20906871.842    20906875.927      557044.287 9  -1163153.125 8
  23750485.081    23750493.234     -163762.210 9  -1481300.896 7
 90  3  9  3 43 59.0800000  0  4G 6G 9G11G13
  20606222.948    20606225.343      705002.976 9  -1095481.104 8
  22086523.701    22086525.725      131942.374 9  -1389626.466 9
  20903043.889    20903047.650      536927.730 9  -1178828.342 7
  23740051.174    23740060.392     -218589.736 8  -1524023.476 8
 90  3  9  3 44 14.0800000  0  4G 6G 9G11G13
  20603871.232    20603873.074      692643.448 9  -1105111.881 8
  22078849.956    22078853.915       91625.896 9  -1421041.891 9
  20899241.311    20899244.236      516944.674 9  -1194399.511 7
  23729628.215    23729637.535     -273361.630 9  -1566702.705 8
 90  3  9  3 44 29.0800000  0  4G 6G 9G11G13
  20601539.076    20601540.329      680385.080 9  -1114663.848 8
  22071187.973    22071190.169       51353.671 9  -1452422.773 8
  20895464.501    20895467.046      497095.338 9  -1209866.506 7
  23719216.863    23719222.984     -328077.331 9  -1609338.163 8
 90  3  9  3 44 44.0800000  0  4G 6G 9G11G13
  20599226.073    20599227.971      668228.289 9  -1124136.659 8
  22063532.137    22063534.917       11125.991 9  -1483769.000 8
  20891712.329    20891715.662      477379.634 9  -1225229.370 7
  23708814.796    23708823.368     -382736.771 8  -1651929.770 8
 90  3  9  3 44 59.0800000  0  4G 6G 9G11G13
  20596931.957    20596932.338      656173.268 9  -1133530.165 8
  22055884.235    22055888.557      -29056.744 9  -1515080.162 9
  20887984.461    20887989.120      457797.566 8  -1240488.095 7
  23698425.698    23698432.211     -437339.748 8  -1694477.401 9
 90  3  9  3 45 14.0800000  0  4G 6G 9G11G13
  20594656.743    20594658.170      644220.366 9  -1142844.107 9
  22048248.850    22048248.942      -69194.417 9  -1546356.233 8
  20884284.402    20884288.052      438349.283 9  -1255642.563 8
  23688043.911    23688052.380     -491885.886 9  -1736980.730 9
 90  3  9  3 45 29.0800000  0  4G 6G 9G11G13
  20592400.234    20592403.084      632369.746 8  -1152078.339 8
  22040616.584    22040621.132     -109286.364 8  -1577596.690 9
  20880608.946    20880612.337      419034.758 9  -1270692.803 7
  23677674.640    23677684.187     -546374.896 8  -1779439.539 9
 90  3  9  3 45 44.0800000  0  4G 6G 9G11G13
  20590165.244    20590167.170      620621.735 9  -1161232.617 8
  22032998.719    22033000.443     -149332.668 9  -1608801.548 8
  20876958.619    20876962.547      399853.952 9  -1285638.867 8
  23667316.351    23667325.578     -600806.439 9  -1821853.570 8
 90  3  9  3 45 59.0800000  0  4G 6G 9G11G13
  20587948.710    20587951.440      608976.581 9  -1170306.752 8
  22025384.529    22025389.338     -189332.785 9  -1639970.446 9
  20873334.986    20873336.915      380807.113 8  -1300480.531 7
  23656969.723    23656978.887     -655180.148 8  -1864222.527 8
 90  3  9  3 46 14.0800000  0  4G 6G 9G11G13
  20585752.301    20585755.454      597434.641 8  -1179300.457 9
  22017782.673    22017784.915     -229286.394 9  -1671103.064 8
  20869736.413    20869737.181      361894.241 8  -1315217.805 7
  23646632.911    23646642.515     -709495.729 9  -1906546.202 9
 90  3  9  3 46 29.0800000  0  4G 6G 9G11G13
  20583576.014    20583579.289      585996.022 8  -1188213.651 8
  22010188.448    22010190.171     -269193.362 9  -1702199.362 8
  20866162.522    20866165.467      343115.327 8  -1329850.693 8
  23636308.871    23636317.215     -763753.123 9  -1948824.540 9
 90  3  9  3 46 44.0800000  0  4G 6G 9G11G13
  20581419.761    20581420.740      574661.181 8  -1197045.984 8
  22002604.810    22002605.833     -309053.177 9  -1733258.918 8
  20862614.959    20862618.390      324470.464 9  -1344379.139 8
  23625995.481    23626003.556     -817951.879 9  -1991057.177 8
 90  3  9  3 46 59.0800000  0  4G 6G 9G11G13
  20579281.514    20579284.204      563430.274 9  -1205797.331 8
  21995026.862    21995029.734     -348865.582 9  -1764281.542 9
  20859091.634    20859095.011      305959.770 9  -1358803.036 7
  23615692.883    23615700.782     -872091.800 8  -2033243.991 8
 90  3  9  3 47 14.0800000  0  4G 6G 9G11G13
  20577165.558    20577166.136      552303.533 9  -1214467.501 8
  21987458.273    21987461.362     -388630.296 8  -1795267.004 7
  20855594.258    20855598.563      287583.195 9  -1373122.420 8
  23605401.549    23605409.737     -926172.379 8  -2075384.558 8
 90  3  9  3 47 29.0800000  0  4G 6G 9G11G13
  20575067.368    20575070.058      541281.264 8  -1223056.266 8
  21979903.718    21979903.864     -428347.031 8  -1826215.049 9
  20852123.825    20852127.097      269340.876 9  -1387337.175 8
  23595121.706    23595129.899     -980193.316 9  -2117478.649 9
 90  3  9  3 47 44.0800000  0  4G 6G 9G11G13
  20572989.350    20572991.913      530363.813 9  -1231563.366 8
  21972352.402    21972355.479     -468015.324 9  -1857125.372 8
  20848678.285    20848681.416      251232.793 9  -1401447.345 8
  23584852.599    23584859.493    -1034154.441 9  -2159526.137 8
 90  3  9  3 47 59.0800000  0  4G 6G 9G11G13
  20570931.893    20570935.114      519551.356 8  -1239988.639 9
  21964814.840    21964816.504     -507635.040 8  -1887997.833 8
  20845258.219    20845262.124      233258.951 9  -1415452.912 8
  23574595.614    23574603.917    -1088055.474 9  -2201526.807 8
 90  3  9  3 48 14.0800000  0  4G 6G 9G11G13
  20568894.240    20568898.871      508844.239 8  -1248331.838 8
  21957281.721    21957285.899     -547205.766 8  -1918832.152 8
  20841863.554    20841865.436      215419.452 9  -1429353.799 8
  23564350.932    23564357.823    -1141895.971 9  -2243480.284 8
 90  3  9  3 48 29.0800000  0  4G 6G 9G11G13
  20566876.901    20566881.075      498242.669 9  -1256592.773 9
  21949763.671    21949765.400     -586727.241 8  -1949628.050 8
  20838494.738    20838497.197      197714.279 9  -1443149.998 8
  23554116.673    23554123.176    -1195675.830 8  -2285386.533 8
 90  3  9  3 48 44.0800000  0  4G 6G 9G11G13
  20564880.689    20564882.959      487746.931 9  -1264771.240 8
  21942253.005    21942255.155     -626198.938 8  -1980385.180 8
  20835150.395    20835153.256      180143.469 9  -1456841.527 8
  23543894.821    23543901.610    -1249394.665 9  -2327245.236 8
 90  3  9  3 48 59.0800000  0  4G 6G 9G11G13
  20562904.393    20562907.029      477357.365 9  -1272866.998 9
  21934751.153    21934752.493     -665620.625 8  -2011103.333 8
  20831832.997    20831835.012      162707.090 9  -1470428.286 8
  23533684.005    23533689.961    -1303052.067 9  -2369056.056 7
 90  3  9  3 49 14.0800000  0  4G 6G 9G11G13
  20560946.209    20560948.604      467074.112 9  -1280879.899 8
  21927257.721    21927261.061     -704992.242 9  -2041782.487 8
  20828539.325    20828542.207      145405.256 8  -1483910.210 8
  23523484.491    23523492.378    -1356647.717 9  -2410818.766 7
 90  3  9  3 49 29.0800000  0  4G 6G 9G11G13
  20559010.095    20559012.515      456897.520 9  -1288809.713 9
  21919775.513    21919777.843     -744313.366 9  -2072422.277 8
  20825272.048    20825274.478      128237.843 9  -1497287.377 8
  23513296.484    23513304.587    -1410181.448 9  -2452533.244 9
 90  3  9  3 49 44.0800000  0  4G 6G 9G11G13
  20557094.004    20557096.989      446827.819 8  -1296656.211 8
  21912304.243    21912305.437     -783583.513 9  -2103022.372 8
  20822030.475    20822034.247      111204.885 8  -1510559.791 7
  23503121.733    23503129.857    -1463653.178 9  -2494199.386 7
 90  3  9  3 49 59.0800000  0  4G 6G 9G11G13
  20555198.825    20555200.018      436865.243 9  -1304419.235 8
  21904837.827    21904842.243     -822802.517 8  -2133582.575 9
  20818814.559    20818817.459       94306.530 8  -1523727.312 7
  23492957.370    23492965.437    -1517062.618 9  -2535816.988 8
 90  3  9  3 50 14.0800000  0  4G 6G 9G11G13
  20553323.360    20553325.182      427010.129 9  -1312098.537 8
  21897386.756    21897387.715     -861969.929 9  -2164102.605 9
  20815624.926    20815628.286       77542.750 9  -1536789.969 8
  23482806.231    23482812.477    -1570409.303 9  -2577385.697 7
 90  3  9  3 50 29.0800000  0  4G 6G 9G11G13
  20551467.836    20551469.773      417262.709 9  -1319693.904 9
  21889941.700    21889945.504     -901085.549 8  -2194582.280 7
  20812460.996    20812464.181       60913.424 9  -1549747.855 8
  23472666.150    23472674.595    -1623693.018 9  -2618905.348 8
 90  3  9  3 50 44.0800000  0  4G 6G 9G11G13
  20549633.008    20549636.067      407623.164 9  -1327205.227 8
  21882509.643    21882510.448     -940148.928 9  -2225021.225 8
  20809321.285    20809324.205       44418.701 8  -1562600.872 8
  23462539.545    23462547.121    -1676913.346 9  -2660375.603 8
 90  3  9  3 50 59.0800000  0  4G 6G 9G11G13
  20547819.335    20547821.614      398091.775 8  -1334632.259 9
  21875086.189    21875087.640     -979159.998 9  -2255419.428 9
  20806209.612    20806212.387       28058.728 9  -1575348.874 7
  23452424.320    23452432.185    -1730070.062 9  -2701796.281 8
 90  3  9  3 51 14.0800000  0  4G 6G 9G11G13
  20546026.545    20546028.317      388668.872 8  -1341974.778 8
  21867673.455    21867675.496    -1018118.173 9  -2285776.418 8
  20803120.830    20803125.460       11833.384 9  -1587991.989 7
  23442320.435    23442327.695    -1783163.020 9  -2743167.280 9
 90  3  9  3 51 29.0800000  0  4G 6G 9G11G13
  20544254.050    20544255.979      379354.651 8  -1349232.603 8
  21860268.453    21860270.243    -1057023.225 9  -2316091.999 7
  20800059.338    20800062.896       -4257.304 8  -1600530.144 8
  23432229.135    23432236.840    -1836191.661 9  -2784488.171 8
 90  3  9  3 51 44.0800000  0  4G 6G 9G11G13
  20542501.116    20542504.686      370149.451 8  -1356405.482 9
  21852875.638    21852877.965    -1095874.727 8  -2346365.846 8
  20797022.687    20797026.260      -20213.285 9  -1612963.358 8
  23422149.516    23422157.527    -1889155.727 9  -2825758.738 8
 90  3  9  3 51 59.0800000  0  4G 6G 9G11G13
  20540771.090    20540773.562      361053.494 8  -1363493.221 9
  21845492.736    21845494.737    -1134672.449 9  -2376597.789 9
  20794011.675    20794015.978      -36034.572 8  -1625291.605 8
  23412082.989    23412091.198    -1942055.009 9  -2866978.834 8
 90  3  9  3 52 14.0800000  0  4G 6G 9G11G13
  20539061.253    20539063.212      352067.043 8  -1370495.631 9
  21838120.594    21838122.092    -1173416.253 8  -2406787.740 7
  20791026.907    20791030.194      -51721.184 9  -1637514.903 8
  23402029.322    23402036.507    -1994889.154 8  -2908148.144 7
 90  3  9  3 52 29.0800000  0  4G 6G 9G11G13
  20537371.738    20537373.504      343190.264 9  -1377412.596 9
  21830757.484    21830759.846    -1212105.654 9  -2436935.296 8
  20788066.796    20788070.710      -67273.092 9  -1649633.272 8
  23391987.238    23391995.355    -2047657.967 8  -2949266.573 7
 90  3  9  3 52 44.0800000  0  4G 6G 9G11G13
  20535703.258    20535706.300      334423.485 8  -1384243.837 8
  21823406.784    21823407.692    -1250739.987 9  -2467039.920 8
  20785133.415    20785137.390      -82690.224 8  -1661646.587 8
  23381958.651    23381966.681    -2100361.570 8  -2990334.166 8
 90  3  9  3 52 59.0800000  0  4G 6G 9G11G13
  20534054.799    20534058.479      325767.018 8  -1390989.117 8
  21816065.166    21816067.090    -1289319.569 9  -2497101.920 9
  20782224.971    20782227.758      -97972.641 8  -1673554.934 7
  23371942.599    23371949.274    -2152999.304 8  -3031350.454 7
 90  3  9  3 53 14.0800000  0  4G 6G 9G11G13
  20532428.689    20532431.889      317221.000 8  -1397648.353 9
  21808736.073    21808736.780    -1327843.497 9  -2527120.521 8
  20779342.455    20779346.460     -113120.274 8  -1685358.260 8
  23361937.997    23361945.317    -2205570.830 8  -3072315.132 8
 90  3  9  3 53 29.0800000  0  4G 6G 9G11G13
  20530824.626    20530827.665      308785.742 9  -1404221.259 8
  21801413.921    21801414.807    -1366311.842 9  -2557095.813 9
  20776485.988    20776489.033     -128133.065 8  -1697056.534 8
  23351945.742    23351953.441    -2258076.082 9  -3113228.179 8
 90  3  9  3 53 44.0800000  0  4G 6G 9G11G13
  20529240.554    20529241.911      300461.485 8  -1410707.679 9
  21794102.829    21794104.544    -1404724.131 9  -2587027.432 8
  20773653.385    20773657.531     -143011.076 8  -1708649.757 8
  23341967.323    23341974.127    -2310514.494 8  -3154089.141 7
 90  3  9  3 53 59.0800000  0  4G 6G 9G11G13
  20527678.211    20527680.096      292248.533 9  -1417107.369 8
  21786806.228    21786806.933    -1443079.977 9  -2616915.070 9
  20770848.870    20770851.870     -157754.286 9  -1720137.944 8
  23332001.887    23332008.136    -2362885.713 9  -3194897.749 9
 90  3  9  3 54 14.0800000  0  4G 6G 9G11G13
  20526136.073    20526138.872      284147.109 8  -1423420.159 9
  21779516.611    21779518.612    -1481379.087 9  -2646758.505 9
  20768068.780    20768073.570     -172362.633 8  -1731521.060 9
  23322049.339    23322054.854    -2415189.596 9  -3235653.894 8
 90  3  9  3 54 29.0800000  0  4G 6G 9G11G13
  20524615.219    20524618.473      276157.464 8  -1429645.846 8
  21772240.718    21772240.318    -1519621.236 9  -2676557.551 8
  20765316.053    20765318.366     -186836.215 8  -1742799.146 7
  23312108.348    23312114.232    -2467425.909 9  -3276357.383 8
 90  3  9  3 54 44.0800000  0  4G 6G 9G11G13
  20523115.701    20523119.137      268279.903 9  -1435784.195 9
  21764972.530    21764974.846    -1557805.791 9  -2706311.711 9
  20762586.932    20762588.773     -201174.986 7  -1753972.195 7
  23302181.676    23302187.268    -2519594.347 9  -3317007.978 8
 90  3  9  3 54 59.0800000  0  4G 6G 9G11G13
  20521639.080    20521642.228      260514.632 9  -1441835.036 9
  21757718.714    21757720.005    -1595932.638 9  -2736020.915 8
  20759882.914    20759887.946     -215378.874 8  -1765040.150 7
  23292267.105    23292273.284    -2571694.521 9  -3357605.398 8
 90  3  9  3 55 14.0800000  0  4G 6G 9G11G13
  20520182.964    20520185.883      252861.924 9  -1447798.159 8
  21750473.775    21750475.682    -1634001.646 9  -2765685.045 9
  20757206.593    20757209.409     -229448.121 8  -1776003.183 8
  23282365.704    23282371.411    -2623726.333 9  -3398149.534 8
 90  3  9  3 55 29.0800000  0  4G 6G 9G11G13
  20518748.337    20518751.479      245321.935 8  -1453673.473 9
  21743240.570    21743241.604    -1672012.239 9  -2795303.646 9
  20754554.200    20754560.067     -243382.669 8  -1786861.256 7
  23272476.879    23272482.895    -2675689.659 8  -3438640.315 8
 90  3  9  3 55 44.0800000  0  4G 6G 9G11G13
  20517335.333    20517336.206      237894.993 9  -1459460.676 8
  21736017.662    21736019.326    -1709964.132 8  -2824876.526 8
  20751928.328    20751932.583     -257182.452 8  -1797614.290 7
  23262601.309    23262608.595    -2727583.793 9  -3479077.189 9
 90  3  9  3 55 59.0800000  0  4G 6G 9G11G13
  20515942.722    20515944.922      230581.353 8  -1465159.618 9
  21728808.330    21728810.495    -1747857.163 9  -2854403.526 9
  20749328.073    20749333.384     -270847.384 9  -1808262.281 9
  23252739.409    23252746.299    -2779408.607 9  -3519460.023 8
 90  3  9  3 56 14.0800000  0  4G 6G 9G11G13
  20514573.030    20514574.751      223381.170 9  -1470770.130 9
  21721607.481    21721610.395    -1785690.721 8  -2883884.180 8
  20746753.134    20746757.068     -284377.490 7  -1818805.198 8
  23242889.699    23242896.468    -2831164.005 9  -3559788.785 8
 90  3  9  3 56 29.0800000  0  4G 6G 9G11G13
  20513224.409    20513225.514      216294.780 8  -1476291.971 8
  21714420.747    21714420.865    -1823464.525 9  -2913318.285 8
  20744203.843    20744206.971     -297772.911 9  -1829243.158 8
  23233054.607    23233062.288    -2882849.812 9  -3600063.320 8
 90  3  9  3 56 44.0800000  0  4G 6G 9G11G13
  20511896.648    20511899.301      209322.384 9  -1481725.005 8
  21707242.529    21707245.480    -1861178.406 9  -2942705.698 8
  20741681.135    20741683.720     -311033.585 8  -1839576.133 7
  23223231.895    23223238.525    -2934465.447 8  -3640283.163 8
 90  3  9  3 56 59.0800000  0  4G 6G 9G11G13
  20510592.893    20510593.757      202464.309 9  -1487068.941 9
  21700078.598    21700080.430    -1898831.944 9  -2972046.086 9
  20739183.106    20739185.995     -324159.522 9  -1849804.116 7
  23213422.668    23213430.642    -2986010.638 9  -3680448.125 8
 90  3  9  3 57 14.0800000  0  4G 6G 9G11G13
  20509308.990    20509310.315      195720.690 8  -1492323.698 7
  21692923.961    21692926.589    -1936424.772 9  -3001339.182 8
  20736710.108    20736713.190     -337150.799 8  -1859927.156 8
  23203628.414    23203635.857    -3037485.226 8  -3720558.080 8
 90  3  9  3 57 29.0800000  0  4G 6G 9G11G13
  20508046.081    20508049.275      189091.848 8  -1497489.036 9
  21685782.152    21685783.901    -1973956.582 9  -3030584.719 8
  20734263.623    20734266.924     -350007.350 8  -1869945.240 8
  23193845.763    23193852.751    -3088888.765 9  -3760612.655 8
 90  3  9  3 57 44.0800000  0  4G 6G 9G11G13
  20506808.104    20506809.811      182577.950 8  -1502564.792 8
  21678651.515    21678654.503    -2011426.958 9  -3059782.395 8
  20731842.266    20731846.413     -362729.166 8  -1879858.308 8
  23184078.092    23184084.641    -3140221.129 8  -3800611.789 8
 90  3  9  3 57 59.0800000  0  4G 6G 9G11G13
  20505590.101    20505591.202      176179.304 8  -1507550.730 8
  21671532.263    21671533.935    -2048835.652 9  -3088931.982 8
  20729449.358    20729451.542     -375316.313 8  -1889666.463 9
  23174323.342    23174329.677    -3191482.021 8  -3840555.239 8
 90  3  9  3 58 14.0800000  0  4G 6G 9G11G13
  20504394.328    20504396.669      169896.147 9  -1512446.696 8
  21664426.570    21664427.933    -2086182.458 9  -3118033.370 7
  20727077.250    20727082.425     -387768.827 9  -1899369.687 7
  23164582.851    23164588.627    -3242671.169 9  -3880442.764 7
 90  3  9  3 58 29.0800000  0  4G 6G 9G11G13
  20503221.755    20503222.588      163728.662 8  -1517252.509 7
  21657330.939    21657333.719    -2123466.934 9  -3147086.174 8
  20724734.449    20724737.323     -400086.671 8  -1908967.990 8
  23154855.192    23154860.840    -3293788.117 9  -3920274.056 7
 90  3  9  3 58 44.0800000  0  4G 6G 9G11G13
  20502069.352    20502071.528      157677.207 9  -1521967.933 8
  21650248.701    21650250.325    -2160688.609 9  -3176090.050 9
  20722415.793    20722419.148     -412269.866 9  -1918461.359 7
  23145141.696    23145146.750    -3344832.938 8  -3960049.143 7
 90  3  9  3 58 59.0800000  0  4G 6G 9G11G13
  20500939.760    20500941.520      151741.881 9  -1526592.849 8
  21643177.173    21643179.927    -2197847.276 9  -3205044.826 9
  20720122.430    20720126.699     -424318.467 8  -1927849.849 7
  23135442.314    23135446.539    -3395805.356 8  -3999767.819 9
 90  3  9  3 59 14.0800000  0  4G 6G 9G11G13
  20499832.306    20499834.902      145923.036 8  -1531127.001 9
  21636118.008    21636119.606    -2234942.426 9  -3233950.108 8
  20717856.416    20717860.132     -436232.570 8  -1937133.547 8
  23125755.956    23125761.614    -3446704.956 9  -4039429.735 8
 90  3  9  3 59 29.0800000  0  4G 6G 9G11G13
  20498747.866    20498750.412      140220.860 8  -1535570.267 8
  21629070.754    21629073.127    -2271973.895 9  -3262805.779 8
  20715614.267    20715618.253     -448012.109 8  -1946312.385 8
  23116083.395    23116090.706    -3497531.438 9  -4079034.693 8
 90  3  9  3 59 44.0800000  0  4G 6G 9G11G13
  20497684.689    20497686.835      134635.522 8  -1539922.459 8
  21622037.122    21622038.544    -2308941.333 9  -3291611.545 9
  20713398.176    20713401.105     -459657.261 8  -1955386.497 8
  23106424.641    23106430.880    -3548284.514 9  -4118582.460 7
 90  3  9  3 59 59.0800000  0  4G 6G 9G11G13
  20496644.203    20496646.204      129167.312 9  -1544183.397 9
  21615014.651    21615015.908    -2345844.705 9  -3320367.392 9
  20711207.984    20711210.657     -471168.033 8  -1964355.912 7
  23096781.185    23096787.381    -3598963.851 8  -4158072.750 8
 90  3  9  4  0 14.0800000  0  4G 6G 9G11G13
  20495625.393    20495629.840      123816.520 8  -1548352.833 7
  21608002.666    21608004.810    -2382683.081 9  -3349072.594 8
  20709043.062    20709048.108     -482544.314 7  -1973220.528 7
  23087151.410    23087157.206    -3649569.313 9  -4197505.500 8
 90  3  9  4  0 29.0800000  0  4G 6G 9G11G13
  20494630.667    20494632.227      118583.233 8  -1552430.698 9
  21601006.656    21601008.027    -2419456.527 8  -3377727.195 8
  20706902.836    20706907.080     -493786.203 9  -1981980.427 7
  23077535.269    23077541.634    -3700100.862 8  -4236880.634 8
 90  3  9  4  0 44.0800000  0  4G 6G 9G11G13
  20493657.613    20493658.259      113467.820 8  -1556416.722 7
  21594020.221    21594023.207    -2456164.496 9  -3406330.777 8
  20704789.871    20704793.302     -504893.637 8  -1990635.531 8
  23067932.037    23067939.585    -3750558.114 9  -4276197.877 8
 90  3  9  4  0 59.0800000  0  4G 6G 9G11G13
  20492707.378    20492708.308      108470.504 9  -1560310.728 9
  21587047.558    21587050.566    -2492806.609 9  -3434883.051 8
  20702701.607    20702705.194     -515866.705 8  -1999185.939 7
  23058345.165    23058352.171    -3800940.727 9  -4315456.953 8
 90  3  9  4  1 14.0800000  0  4G 6G 9G11G13
  20491778.176    20491779.737      103591.483 9  -1564112.553 8
  21580087.887    21580089.782    -2529382.802 9  -3463383.921 9
  20700639.395    20700642.723     -526705.534 8  -2007631.757 8
  23048772.911    23048779.032    -3851248.269 8  -4354657.546 7
 90  3  9  4  1 29.0800000  0  4G 6G 9G11G13
  20490872.307    20490873.487       98831.033 8  -1567821.981 8
  21573141.038    21573141.299    -2565892.452 9  -3491832.980 9
  20698603.772    20698605.610     -537410.157 8  -2015973.001 8
  23039212.682    23039220.597    -3901480.539 9  -4393799.475 8
 90  3  9  4  1 44.0800000  0  4G 6G 9G11G13
  20489988.615    20489991.198       94189.307 9  -1571438.911 8
  21566205.630    21566205.519    -2602335.540 9  -3520230.167 9
  20696590.598    20696594.487     -547980.505 8  -2024209.612 8
  23029669.385    23029674.375    -3951637.425 9  -4432882.674 8
 90  3  9  4  1 59.0800000  0  4G 6G 9G11G13
  20489127.415    20489130.054       89666.578 8  -1574963.102 9
  21559283.312    21559284.589    -2638711.446 9  -3548575.007 9
  20694605.655    20694609.916     -558416.697 8  -2032341.685 8
  23020138.990    23020145.530    -4001718.374 8  -4471906.699 8
 90  3  9  4  2 14.0800000  0  4G 6G 9G11G13
  20488289.798    20488291.513       85263.022 9  -1578394.437 9
  21552374.021    21552375.733    -2675019.860 9  -3576867.249 8
  20692645.070    20692648.443     -568718.865 9  -2040369.324 8
  23010623.288    23010629.425    -4051723.291 8  -4510871.460 8
 90  3  9  4  2 29.0800000  0  4G 6G 9G11G13
  20487473.617    20487477.698       80978.929 8  -1581732.693 8
  21545477.597    21545478.559    -2711260.679 9  -3605106.821 8
  20690709.878    20690712.929     -578886.926 9  -2048292.472 7
  23001122.659    23001126.979    -4101652.106 9  -4549776.943 8
 90  3  9  4  2 44.0800000  0  4G 6G 9G11G13
  20486680.145    20486683.876       76814.464 8  -1584977.720 8
  21538594.366    21538595.518    -2747433.312 9  -3633293.268 8
  20688800.262    20688804.079     -588920.799 8  -2056111.064 7
  22991634.887    22991639.670    -4151504.582 9  -4588622.925 8
 90  3  9  4  2 59.0800000  0  4G 6G 9G11G13
  20485910.682    20485913.447       72769.871 8  -1588129.348 8
  21531723.058    21531725.411    -2783537.519 9  -3661426.394 8
  20686915.414    20686920.936     -598820.676 8  -2063825.229 8
  22982163.958    22982168.581    -4201280.135 9  -4627408.977 8
 90  3  9  4  3 14.0800000  0  4G 6G 9G11G13
  20485164.078    20485167.688       68845.358 8  -1591187.412 9
  21524865.909    21524866.857    -2819572.910 9  -3689505.887 8
  20685057.400    20685060.568     -608586.710 8  -2071435.110 8
  22972706.172    22972709.725    -4250978.676 8  -4666135.031 7
 90  3  9  4  3 29.0800000  0  4G 6G 9G11G13
  20484440.585    20484443.510       65041.275 8  -1594151.616 7
  21518021.760    21518023.180    -2855539.229 9  -3717531.562 8
  20683225.191    20683227.854     -618218.804 8  -2078940.612 7
  22963263.554    22963268.285    -4300599.861 9  -4704800.794 7
 90  3  9  4  3 44.0800000  0  4G 6G 9G11G13
  20483739.038    20483742.607       61357.659 8  -1597021.965 8
  21511190.655    21511192.510    -2891435.982 9  -3745503.034 8
  20681418.500    20681420.141     -627717.005 8  -2086341.795 8
  22953835.652    22953840.724    -4350143.386 9  -4743406.055 7
 90  3  9  4  3 59.0800000  0  4G 6G 9G11G13
  20483061.392    20483065.435       57794.801 8  -1599798.209 9
  21504373.092    21504375.301    -2927262.928 9  -3773420.097 9
  20679635.737    20679638.050     -637081.440 9  -2093638.715 7
  22944422.321    22944427.402    -4399609.200 9  -4781950.753 8
 90  3  9  4  4 14.0800000  0  4G 6G 9G11G13
  20482406.964    20482408.682       54352.964 8  -1602480.151 9
  21497569.895    21497570.019    -2963019.852 8  -3801282.599 8
  20677879.412    20677880.051     -646312.111 8  -2100831.447 6
  22935025.142    22935029.535    -4448996.894 9  -4820434.583 8
 90  3  9  4  4 29.0800000  0  4G 6G 9G11G13
  20481775.933    20481777.703       51032.323 8  -1605067.660 8
  21490778.369    21490780.851    -2998706.184 8  -3829090.132 8
  20676148.201    20676148.615     -655409.053 8  -2107919.950 6
  22925642.053    22925646.156    -4498306.594 9  -4858857.634 7
 90  3  9  4  4 44.0800000  0  4G 6G 9G11G13
  20481167.360    20481167.912       47833.096 9  -1607560.540 7
  21484002.239    21484002.054    -3034321.786 9  -3856842.493 7
  20674443.106    20674444.588     -664372.400 8  -2114904.351 7
  22916272.995    22916277.059    -4547537.685 9  -4897219.441 8
 90  3  9  4  4 59.0800000  0  4G 6G 9G11G13
  20480581.222    20480582.806       44755.543 9  -1609958.631 9
  21477236.287    21477238.809    -3069866.196 9  -3884539.429 8
  20672762.755    20672765.122     -673202.285 9  -2121784.750 7
  22906919.071    22906925.972    -4596689.988 8  -4935519.842 9
 90  3  9  4  5 14.0800000  0  4G 6G 9G11G13
  20480018.932    20480020.646       41799.759 8  -1612261.825 8
  21470486.085    21470488.276    -3105339.064 8  -3912180.596 9
  20671106.902    20671108.836     -681898.762 8  -2128561.207 7
  22897580.533    22897586.875    -4645763.218 9  -4973758.627 7
 90  3  9  4  5 29.0800000  0  4G 6G 9G11G13
  20479480.008    20479480.719       38966.116 8  -1614469.854 8
  21463749.524    21463752.003    -3140740.222 9  -3939765.879 8
  20669477.335    20669479.306     -690461.774 8  -2135233.681 7
  22888258.334    22888263.747    -4694757.117 9  -5011935.604 8
 90  3  9  4  5 44.0800000  0  4G 6G 9G11G13
  20478961.624    20478964.587       36254.778 8  -1616582.577 9
  21457026.379    21457028.740    -3176068.948 9  -3967294.730 7
  20667872.918    20667875.935     -698891.362 8  -2141802.170 8
  22878950.012    22878953.947    -4743671.281 8  -5050050.441 8
 90  3  9  4  5 59.0800000  0  4G 6G 9G11G13
  20478470.479    20478472.425       33666.124 9  -1618599.689 8
  21450316.895    21450321.083    -3211324.999 9  -3994766.958 9
  20666294.071    20666297.286     -707187.348 8  -2148266.570 8
  22869656.269    22869661.386    -4792505.220 9  -5088102.778 8
 90  3  9  4  6 14.0800000  0  4G 6G 9G11G13
  20478001.412    20478003.656       31200.222 9  -1620521.174 7
  21443622.506    21443625.446    -3246508.096 9  -4022182.319 8
  20664740.623    20664745.082     -715350.064 8  -2154627.098 7
  22860378.876    22860383.772    -4841259.085 9  -5126092.719 8
 90  3  9  4  6 29.0800000  0  4G 6G 9G11G13
  20477554.633    20477557.378       28857.231 8  -1622346.876 8
  21436942.208    21436944.867    -3281617.915 9  -4049540.605 8
  20663213.304    20663217.122     -723379.621 9  -2160883.864 8
  22851116.341    22851120.720    -4889932.820 8  -5164020.208 8
 90  3  9  4  6 44.0800000  0  4G 6G 9G11G13
  20477132.187    20477135.083       26637.372 9  -1624076.629 8
  21430273.684    21430276.878    -3316654.220 9  -4076841.602 8
  20661709.827    20661713.169     -731276.068 9  -2167036.938 8
  22841869.216    22841874.845    -4938526.040 9  -5201884.971 8
 90  3  9  4  6 59.0800000  0  4G 6G 9G11G13
  20476733.353    20476735.990       24540.867 8  -1625710.258 8
  21423620.608    21423623.794    -3351616.646 9  -4104085.012 9
  20660233.752    20660236.868     -739039.396 8  -2173086.255 8
  22832638.145    22832643.295    -4987038.366 9  -5239686.696 7
 90  3  9  4  7 14.0800000  0  4G 6G 9G11G13
  20476356.886    20476361.613       22567.868 8  -1627247.652 8
  21416982.184    21416984.946    -3386504.791 9  -4131270.558 8
  20658781.612    20658783.997     -746669.643 8  -2179031.880 7
  22823421.649    22823426.608    -5035469.637 9  -5277425.277 8
 90  3  9  4  7 29.0800000  0  4G 6G 9G11G13
  20476005.870    20476009.186       20718.650 8  -1628688.582 9
  21410356.908    21410359.590    -3421318.192 9  -4158397.850 8
  20657354.557    20657359.747     -754166.944 8  -2184873.912 8
  22814221.429    22814225.625    -5083819.655 9  -5315100.525 8
 90  3  9  4  7 44.0800000  0  4G 6G 9G11G13
  20475678.419    20475680.456       18993.445 9  -1630032.914 8
  21403747.183    21403749.316    -3456056.907 9  -4185466.944 8
  20655953.921    20655956.158     -761531.544 9  -2190612.547 8
  22805035.336    22805041.963    -5132087.921 8  -5352712.094 8
 90  3  9  4  7 59.0800000  0  4G 6G 9G11G13
  20475373.155    20475376.635       17392.320 8  -1631280.527 8
  21397150.279    21397152.243    -3490720.244 9  -4212477.314 8
  20654577.304    20654580.708     -768763.397 8  -2196247.733 8
  22795865.902    22795870.517    -5180274.423 8  -5390259.929 7
 90  3  9  4  8 14.0800000  0  4G 6G 9G11G13
  20475092.711    20475096.145       15915.614 9  -1632431.208 8
  21390567.970    21390570.498    -3525307.848 9  -4239428.674 9
  20653225.587    20653228.403     -775862.516 8  -2201779.504 8
  22786710.886    22786717.567    -5228379.064 9  -5427743.985 7
 90  3  9  4  8 29.0800000  0  4G 6G 9G11G13
  20474834.546    20474837.830       14563.445 9  -1633484.832 8
  21384002.432    21384002.496    -3559819.326 8  -4266320.699 9
  20651900.356    20651903.171     -782829.069 8  -2207207.964 8
  22777573.533    22777578.168    -5276401.541 8  -5465164.021 8
 90  3  9  4  8 44.0800000  0  4G 6G 9G11G13
  20474601.163    20474603.455       13336.026 9  -1634441.262 8
  21377448.942    21377450.620    -3594254.613 9  -4293153.374 8
  20650598.668    20650602.413     -789663.132 8  -2212533.183 8
  22768450.169    22768456.001    -5324341.228 8  -5502519.541 7
 90  3  9  4  8 59.0800000  0  4G 6G 9G11G13
  20474391.507    20474394.320       12233.566 8  -1635300.308 8
  21370910.597    21370912.209    -3628613.307 9  -4319926.347 8
  20649324.449    20649326.894     -796364.683 8  -2217755.164 8
  22759344.272    22759348.715    -5372198.082 9  -5539810.518 7
 90  3  9  4  9 14.0800000  0  4G 6G 9G11G13
  20474206.177    20474207.596       11256.288 9  -1636061.826 8
  21364387.134    21364388.142    -3662894.907 9  -4346639.266 9
  20648073.724    20648077.101     -802933.942 8  -2222874.044 7
  22750252.894    22750258.361    -5419971.917 9  -5577036.828 7
 90  3  9  4  9 29.0800000  0  4G 6G 9G11G13
  20474044.079    20474046.634       10404.355 9  -1636725.655 8
  21357876.417    21357879.191    -3697099.023 9  -4373291.795 8
  20646849.834    20646851.950     -809370.892 8  -2227889.826 8
  22741177.267    22741182.359    -5467662.493 9  -5614198.236 8
 90  3  9  4  9 44.0800000  0  4G 6G 9G11G13
  20473906.985    20473908.806        9678.020 8  -1637291.620 8
  21351382.848    21351385.170    -3731225.466 9  -4399883.807 7
  20645649.625    20645653.815     -815675.703 8  -2232802.643 7
  22732118.180    22732123.371    -5515269.538 9  -5651294.560 8
 90  3  9  4  9 59.0800000  0  4G 6G 9G11G13
  20473792.925    20473795.052        9077.463 8  -1637759.578 8
  21344904.064    21344907.170    -3765273.742 9  -4426414.915 9
  20644476.102    20644478.543     -821848.488 9  -2237612.595 7
  22723076.106    22723079.255    -5562792.728 9  -5688325.548 7
 90  3  9  4 10 14.0800000  0  4G 6G 9G11G13
  20473701.719    20473702.970        8602.871 8  -1638129.391 8
  21338439.703    21338442.488    -3799243.662 9  -4452884.932 8
  20643326.372    20643328.539     -827889.226 9  -2242319.646 7
  22714047.765    22714052.244    -5610231.806 9  -5725290.997 8
 90  3  9  4 10 29.0800000  0  4G 6G 9G11G13
  20473634.454    20473637.690        8254.355 8  -1638400.969 9
  21331990.304    21331992.116    -3833134.921 9  -4479293.681 9
  20642201.602    20642203.638     -833798.059 9  -2246923.917 7
  22705037.059    22705040.617    -5657586.852 9  -5762190.966 7
 90  3  9  4 10 44.0800000  0  4G 6G 9G11G13
  20473592.483    20473595.429        8032.248 8  -1638574.021 9
  21325556.027    21325557.516    -3866947.071 9  -4505640.789 9
  20641102.871    20641105.211     -839574.903 8  -2251425.328 8
  22696040.513    22696044.825    -5704857.304 9  -5799025.015 8
 90  3  9  4 10 59.0800000  0  4G 6G 9G11G13
  20473574.315    20473575.359        7936.535 9  -1638648.603 9
  21319137.387    21319139.923    -3900679.779 9  -4531925.994 8
  20640028.479    20640030.684     -845220.141 8  -2255824.203 9
  22687061.025    22687066.315    -5752043.302 9  -5835793.258 8
 90  3  9  4 11 14.0800000  0  4G 6G 9G11G13
  20473579.560    20473581.958        7967.617 9  -1638624.365 7
  21312732.352    21312735.404    -3934332.632 9  -4558148.959 8
  20638979.273    20638982.364     -850733.774 9  -2260120.527 7
  22678098.428    22678102.665    -5799144.200 8  -5872495.174 8
 90  3  9  4 11 29.0800000  0  4G 6G 9G11G13
  20473609.416    20473611.474        8125.700 9  -1638501.180 9
  21306344.809    21306346.017    -3967905.370 9  -4584309.507 8
  20637954.295    20637957.594     -856115.846 8  -2264314.333 8
  22669151.164    22669156.816    -5846159.960 9  -5909130.785 8
 90  3  9  4 11 44.0800000  0  4G 6G 9G11G13
  20473663.858    20473665.161        8410.909 8  -1638278.949 8
  21299971.048    21299973.559    -4001397.593 9  -4610407.312 8
  20636954.527    20636958.785     -861366.476 8  -2268405.717 6
  22660221.778    22660226.207    -5893090.418 9  -5945699.905 8
 90  3  9  4 11 59.0800000  0  4G 6G 9G11G13
  20473742.695    20473744.814        8823.368 8  -1637957.548 9
  21293614.705    21293614.989    -4034809.123 9  -4636442.253 8
  20635981.507    20635985.508     -866485.800 9  -2272394.775 8
  22651307.359    22651311.596    -5939935.241 8  -5982202.310 8
 90  3  9  4 12 14.0800000  0  4G 6G 9G11G13
  20473846.155    20473848.068        9363.372 8  -1637536.746 8
  21287270.942    21287273.043    -4068139.299 9  -4662413.788 8
  20635032.837    20635034.378     -871473.782 8  -2276281.497 8
  22642408.537    22642413.978    -5986694.061 9  -6018637.679 9
 90  3  9  4 12 29.0800000  0  4G 6G 9G11G13
  20473971.970    20473974.912       10030.972 8  -1637016.543 9
  21280944.539    21280945.198    -4101388.051 9  -4688321.881 8
  20634108.134    20634111.208     -876330.614 9  -2280066.025 8
  22633527.160    22633531.788    -6033367.036 9  -6055006.165 9
 90  3  9  4 12 44.0800000  0  4G 6G 9G11G13
  20474123.308    20474125.835       10826.559 8  -1636396.608 7
  21274632.210    21274634.163    -4134554.789 9  -4714166.082 9
  20633209.230    20633211.444     -881056.354 8  -2283748.393 7
  22624661.926    22624666.888    -6079953.568 9  -6091307.284 8
 90  3  9  4 12 59.0800000  0  4G 6G 9G11G13
  20474300.223    20474302.427       11750.051 8  -1635676.995 8
  21268336.091    21268338.133    -4167639.248 9  -4739946.144 9
  20632334.655    20632337.813     -885651.075 8  -2287328.684 7
  22615812.159    22615818.888    -6126453.356 9  -6127540.837 8
 90  3  9  4 13 14.0800000  0  4G 6G 9G11G13
  20474500.189    20474502.071       12801.753 8  -1634857.479 8
  21262056.668    21262058.478    -4200641.390 9  -4765662.065 9
  20631485.409    20631488.135     -890114.983 8  -2290807.030 7
  22606980.536    22606985.248    -6172866.444 8  -6163706.808 8
 90  3  9  4 13 29.0800000  0  4G 6G 9G11G13
  20474724.815    20474726.360       13981.871 9  -1633937.902 8
  21255792.041    21255794.423    -4233560.529 9  -4791313.315 8
  20630659.912    20630663.098     -894448.209 9  -2294183.559 8
  22598164.357    22598171.300    -6219192.460 9  -6199804.951 8
 90  3  9  4 13 44.0800000  0  4G 6G 9G11G13
  20474974.351    20474975.549       15290.577 8  -1632918.124 8
  21249544.407    21249544.998    -4266396.422 9  -4816899.699 8
  20629861.273    20629862.757     -898650.754 9  -2297458.265 8
  22589365.432    22589371.414    -6265431.057 8  -6235834.934 9
 90  3  9  4 13 59.0800000  0  4G 6G 9G11G13
  20475248.112    20475249.043       16728.045 9  -1631798.000 7
  21243311.569    21243312.391    -4299148.643 9  -4842420.907 8
  20629085.401    20629087.285     -902722.737 9  -2300631.219 7
  22580583.022    22580589.042    -6311582.076 9  -6271796.718 8
 90  3  9  4 14 14.0800000  0  4G 6G 9G11G13
  20475545.787    20475546.624       18294.498 8  -1630577.385 8
  21237095.828    21237095.766    -4331816.786 9  -4867876.564 8
  20628335.919    20628337.776     -906664.206 9  -2303702.488 8
  22571818.124    22571824.270    -6357645.663 9  -6307690.357 8
 90  3  9  4 14 29.0800000  0  4G 6G 9G11G13
  20475869.458    20475870.233       19989.962 8  -1629256.240 8
  21230893.629    21230895.149    -4364400.760 9  -4893266.666 8
  20627609.381    20627612.241     -910475.459 8  -2306672.273 8
  22563068.886    22563075.536    -6403621.226 8  -6343515.404 7
 90  3  9  4 14 44.0800000  0  4G 6G 9G11G13
  20476215.287    20476216.953       21814.754 9  -1627834.330 9
  21224709.630    21224710.083    -4396900.116 9  -4918590.822 7
  20626909.554    20626911.666     -914156.624 9  -2309540.698 8
  22554336.522    22554343.579    -6449508.444 9  -6379271.605 8
 90  3  9  4 14 59.0800000  0  4G 6G 9G11G13
  20476587.093    20476589.399       23768.979 9  -1626311.536 8
  21218540.423    21218543.079    -4429314.539 9  -4943848.791 8
  20626233.573    20626236.331     -917707.627 8  -2312307.702 8
  22545621.826    22545627.812    -6495307.359 9  -6414959.009 9
 90  3  9  4 15 14.0800000  0  4G 6G 9G11G13
  20476983.773    20476984.670       25852.880 9  -1624687.731 8
  21212387.688    21212390.238    -4461643.716 8  -4969040.330 8
  20625582.723    20625585.034     -921128.635 8  -2314973.412 8
  22536923.832    22536929.206    -6541017.873 9  -6450577.509 8
 90  3  9  4 15 29.0800000  0  4G 6G 9G11G13
  20477404.565    20477406.252       28066.549 9  -1622962.785 7
  21206252.994    21206255.659    -4493886.692 9  -4994164.708 8
  20624955.405    20624959.068     -924419.659 8  -2317537.817 8
  22528242.199    22528246.792    -6586639.587 9  -6486126.835 7
 90  3  9  4 15 44.0800000  0  4G 6G 9G11G13
  20477851.381    20477851.659       30410.207 8  -1621136.537 7
  21200133.192    21200136.198    -4526043.832 9  -5019222.185 8
  20624354.566    20624357.081     -927580.877 7  -2320001.084 8
  22519578.212    22519581.288    -6632172.156 9  -6521606.708 8
 90  3  9  4 15 59.0800000  0  4G 6G 9G11G13
  20478321.602    20478323.975       32883.969 9  -1619208.927 8
  21194031.638    21194033.451    -4558114.447 8  -5044212.247 8
  20623778.377    20623779.244     -930612.526 8  -2322363.394 8
  22510929.731    22510932.883    -6677615.418 9  -6557016.988 9
 90  3  9  4 16 14.0800000  0  4G 6G 9G11G13
  20478818.602    20478819.073       35488.193 9  -1617179.652 8
  21187946.110    21187946.480    -4590098.554 9  -5069134.900 9
  20623226.673    20623228.230     -933514.649 8  -2324624.771 8
  22502299.600    22502303.848    -6722969.256 9  -6592357.571 7
 90  3  9  4 16 29.0800000  0  4G 6G 9G11G13
  20479337.907    20479340.192       38222.839 9  -1615048.761 8
  21181874.766    21181877.614    -4621995.552 9  -5093989.681 8
  20622698.741    20622701.053     -936287.409 8  -2326785.354 7
  22493686.259    22493689.402    -6768233.514 9  -6627628.353 8
 90  3  9  4 16 44.0800000  0  4G 6G 9G11G13
  20479884.155    20479885.178       41088.053 8  -1612816.105 8
  21175822.733    21175824.248    -4653805.017 9  -5118776.260 9
  20622195.786    20622197.973     -938930.903 9  -2328845.212 8
  22485089.076    22485092.999    -6813407.995 9  -6662829.183 8
 90  3  9  4 16 59.0800000  0  4G 6G 9G11G13
  20480454.164    20480455.494       44084.114 9  -1610481.516 9
  21169786.629    21169788.347    -4685526.942 9  -5143494.626 8
  20621716.302    20621719.760     -941445.245 9  -2330804.433 8
  22476510.692    22476513.729    -6858492.084 9  -6697959.594 7
 90  3  9  4 17 14.0800000  0  4G 6G 9G11G13
  20481049.083    20481049.680       47211.171 9  -1608044.837 7
  21163765.310    21163767.709    -4717160.475 9  -5168144.119 9
  20621262.242    20621266.762     -943830.529 9  -2332663.073 7
  22467948.953    22467951.318    -6903485.790 9  -6733019.561 9
 90  3  9  4 17 29.0800000  0  4G 6G 9G11G13
  20481668.059    20481670.726       50469.331 8  -1605506.007 9
  21157762.901    21157764.711    -4748705.706 9  -5192724.784 8
  20620832.724    20620835.829     -946086.940 9  -2334421.298 7
  22459404.008    22459407.601    -6948388.897 9  -6768008.943 8
 90  3  9  4 17 44.0800000  0  4G 6G 9G11G13
  20482312.688    20482313.381       53858.849 8  -1602864.810 8
  21151777.675    21151778.457    -4780162.106 9  -5217236.244 7
  20620428.368    20620430.937     -948214.509 8  -2336079.127 8
  22450876.416    22450879.342    -6993201.233 9  -6802927.585 8
 90  3  9  4 17 59.0800000  0  4G 6G 9G11G13
  20482983.425    20482983.957       57379.750 9  -1600121.253 8
  21145808.167    21145810.144    -4811529.141 8  -5241678.080 7
  20620047.281    20620052.292     -950213.491 9  -2337636.760 8
  22442365.598    22442369.709    -7037922.600 8  -6837775.366 7
 90  3  9  4 18 14.0800000  0  4G 6G 9G11G13
  20483678.911    20483679.229       61032.237 8  -1597275.159 8
  21139856.103    21139858.033    -4842806.693 9  -5266050.172 9
  20619691.860    20619694.189     -952084.006 9  -2339094.286 8
  22433872.843    22433877.207    -7082552.828 9  -6872552.093 7
 90  3  9  4 18 29.0800000  0  4G 6G 9G11G13
  20484398.917    20484399.922       64816.546 8  -1594326.333 8
  21133922.001    21133923.052    -4873994.460 9  -5290352.322 8
  20619361.118    20619363.137     -953826.124 8  -2340451.773 7
  22425396.051    22425400.136    -7127091.634 8  -6907257.593 7
 90  3  9  4 18 44.0800000  0  4G 6G 9G11G13
  20485145.530    20485145.098       68732.684 9  -1591274.787 8
  21128004.057    21128005.929    -4905092.020 8  -5314584.176 8
  20619053.962    20619055.316     -955440.017 9  -2341709.341 7
  22416938.757    22416943.378    -7171538.642 9  -6941891.563 9
 90  3  9  4 18 59.0800000  0  4G 6G 9G11G13
  20485915.994    20485915.416       72781.064 8  -1588120.214 8
  21122102.671    21122104.495    -4936098.985 9  -5338745.403 9
  20618770.784    20618773.596     -956925.771 9  -2342867.066 9
  22408496.989    22408502.305    -7215893.660 8  -6976453.858 7
 90  3  9  4 19 14.0800000  0  4G 6G 9G11G13
  20486710.310    20486711.349       76961.667 9  -1584862.598 8
  21116220.460    21116221.159    -4967014.990 8  -5362835.778 9
  20618511.454    20618515.805     -958283.537 9  -2343925.042 8
  22400075.514    22400078.942    -7260156.721 9  -7010944.491 8
 90  3  9  4 19 29.0800000  0  4G 6G 9G11G13
  20487530.141    20487531.638       81274.617 8  -1581501.852 8
  21110355.082    21110356.431    -4997839.786 9  -5386855.083 8
  20618277.432    20618282.054     -959513.550 9  -2344883.479 7
  22391669.598    22391675.499    -7304327.647 9  -7045363.336 8
 90  3  9  4 19 44.0800000  0  4G 6G 9G11G13
  20488376.093    20488377.922       85720.033 7  -1578037.892 8
  21104507.013    21104507.689    -5028572.984 9  -5410803.013 8
  20618067.974    20618071.620     -960615.770 8  -2345742.332 8
  22383281.305    22383287.565    -7348406.213 9  -7079710.208 8
 90  3  9  4 19 59.0800000  0  4G 6G 9G11G13
  20489247.295    20489249.302       90298.315 8  -1574470.399 8
  21098675.507    21098676.327    -5059214.240 9  -5434679.303 9
  20617882.357    20617885.949     -961590.311 9  -2346501.710 8
  22374911.522    22374916.831    -7392392.174 9  -7113984.910 8
 90  3  9  4 20 14.0800000  0  4G 6G 9G11G13
  20490143.672    20490145.961       95009.282 9  -1570799.509 8
  21092862.764    21092863.701    -5089763.236 9  -5458483.696 8
  20617722.012    20617725.773     -962437.415 9  -2347161.763 8
  22366558.019    22366563.824    -7436285.379 8  -7148187.346 8
 90  3  9  4 20 29.0800000  0  4G 6G 9G11G13
  20491065.829    20491067.520       99853.293 8  -1567024.926 8
  21087066.843    21087068.489    -5120219.519 9  -5482215.851 8
  20617585.719    20617587.946     -963157.074 9  -2347722.527 7
  22358224.034    22358228.532    -7480085.398 9  -7182317.174 7
 90  3  9  4 20 44.0800000  0  4G 6G 9G11G13
  20492013.762    20492014.318      104830.394 8  -1563146.660 8
  21081288.854    21081290.540    -5150582.848 9  -5505875.566 7
  20617472.720    20617474.645     -963749.652 9  -2348184.254 8
  22349906.407    22349910.869    -7523792.275 9  -7216374.423 9
 90  3  9  4 20 59.0800000  0  4G 6G 9G11G13
  20492986.304    20492987.020      109940.767 8  -1559164.552 7
  21075528.649    21075529.588    -5180852.766 9  -5529462.492 8
  20617383.747    20617387.509     -964215.267 9  -2348547.064 8
  22341606.941    22341612.688    -7567405.721 9  -7250358.868 8
 90  3  9  4 21 14.0800000  0  4G 6G 9G11G13
  20493984.253    20493985.209      115184.536 9  -1555078.493 9
  21069785.786    21069787.950    -5211029.060 9  -5552976.471 8
  20617319.172    20617322.114     -964554.011 9  -2348811.014 8
  22333325.691    22333331.029    -7610925.514 9  -7284270.340 8
 90  3  9  4 21 29.0800000  0  4G 6G 9G11G13
  20495006.526    20495007.407      120561.905 8  -1550888.335 7
  21064062.041    21064063.609    -5241111.252 9  -5576417.125 8
  20617279.408    20617281.878     -964766.071 9  -2348976.254 8
  22325062.315    22325066.403    -7654351.289 9  -7318108.547 8
 90  3  9  4 21 44.0800000  0  4G 6G 9G11G13
  20496054.888    20496056.182      126072.870 8  -1546594.096 8
  21058355.597    21058356.233    -5271099.301 9  -5599784.405 7
  20617261.835    20617265.542     -964851.632 8  -2349042.901 9
  22316816.356    22316822.428    -7697682.963 9  -7351873.427 8
 90  3  9  4 21 59.0800000  0  4G 6G 9G11G13
  20497127.984    20497130.671      131717.517 9  -1542195.661 8
  21052666.228    21052667.179    -5300992.648 8  -5623077.916 8
  20617268.576    20617273.552     -964810.873 8  -2349011.124 8
  22308588.451    22308593.597    -7740920.525 8  -7385564.981 8
 90  3  9  4 22 14.0800000  0  4G 6G 9G11G13
  20498228.312    20498230.396      137496.369 9  -1537692.652 7
  21046995.856    21046997.737    -5330790.710 9  -5646297.168 8
  20617299.985    20617304.977     -964643.530 8  -2348880.702 7
  22300379.530    22300382.724    -7784063.297 9  -7419182.667 8
 90  3  9  4 22 29.0800000  0  4G 6G 9G11G13
  20499353.189    20499356.330      143409.360 8  -1533085.137 7
  21041343.845    21041344.375    -5360493.515 9  -5669442.187 8
  20617357.268    20617361.158     -964350.049 8  -2348652.017 8
  22292187.164    22292191.748    -7827111.264 9  -7452726.480 8
 90  3  9  4 22 44.0800000  0  4G 6G 9G11G13
  20500502.835    20500506.971      149456.611 7  -1528372.980 9
  21035710.053    21035711.121    -5390100.509 9  -5692512.548 7
  20617436.729    20617440.978     -963930.540 9  -2348325.095 8
  22284013.970    22284017.574    -7870064.545 9  -7486196.520 8
 90  3  9  4 22 59.0800000  0  4G 6G 9G11G13
  20501679.330    20501682.766      155638.212 8  -1523556.144 9
  21030093.764    21030096.079    -5419611.421 9  -5715508.063 9
  20617541.377    20617543.061     -963385.192 8  -2347900.130 7
  22275858.152    22275861.579    -7912922.836 9  -7519592.541 8
 90  3  9  4 23 14.0800000  0  4G 6G 9G11G13
  20502881.184    20502884.228      161954.412 8  -1518634.430 9
  21024496.357    21024498.461    -5449025.780 9  -5738428.320 8
  20617669.027    20617671.819     -962714.151 9  -2347377.229 8
  22267720.701    22267724.657    -7955685.841 8  -7552914.306 7
 90  3  9  4 23 29.0800000  0  4G 6G 9G11G13
  20504108.480    20504113.243      168405.127 8  -1513607.884 9
  21018917.878    21018919.106    -5478343.513 9  -5761273.284 8
  20617820.653    20617822.952     -961917.617 9  -2346756.535 8
  22259601.117    22259604.747    -7998353.375 9  -7586161.689 7
 90  3  9  4 23 44.0800000  0  4G 6G 9G11G13
  20505362.715    20505366.329      174990.646 8  -1508476.323 8
  21013357.578    21013358.437    -5507564.052 9  -5784042.518 8
  20617995.939    20617998.409     -960995.706 9  -2346038.172 8
  22251501.043    22251504.929    -8040925.349 9  -7619334.594 8
 90  3  9  4 23 59.0800000  0  4G 6G 9G11G13
  20506641.281    20506644.900      181710.975 7  -1503239.694 8
  21007815.450    21007816.813    -5536687.143 9  -5806735.811 8
  20618194.739    20618197.367     -959948.633 9  -2345222.239 9
  22243417.551    22243419.934    -8083401.478 9  -7652432.833 8
 90  3  9  4 24 14.0800000  0  4G 6G 9G11G13
  20507945.790    20507948.851      188566.441 9  -1497897.770 9
  21002292.485    21002293.090    -5565712.405 9  -5829352.889 8
  20618418.092    20618421.166     -958776.531 9  -2344308.922 8
  22235352.992    22235356.046    -8125781.485 9  -7685456.155 7
 90  3  9  4 24 29.0800000  0  4G 6G 9G11G13
  20509276.536    20509278.514      195557.046 7  -1492450.548 8
  20996786.423    20996788.410    -5594639.462 9  -5851893.426 8
  20618664.614    20618667.628     -957479.462 9  -2343298.197 7
  22227305.612    22227309.659    -8168065.294 9  -7718404.543 8
 90  3  9  4 24 44.0800000  0  4G 6G 9G11G13
  20510632.673    20510636.406      202682.928 8  -1486897.901 8
  20991300.416    20991302.025    -5623467.996 9  -5874357.194 8
  20618934.917    20618937.158     -956057.659 8  -2342190.278 7
  22219277.369    22219280.845    -8210252.993 9  -7751278.011 8
 90  3  9  4 24 59.0800000  0  4G 6G 9G11G13
  20512014.461    20512017.119      209944.224 7  -1481239.780 8
  20985832.879    20985834.723    -5652197.652 9  -5896743.926 8
  20619230.132    20619232.415     -954511.317 9  -2340985.331 7
  22211268.142    22211271.459    -8252344.073 9  -7784076.205 8
 90  3  9  4 25 14.0800000  0  4G 6G 9G11G13
  20513421.437    20513425.343      217341.009 8  -1475476.049 8
  20980384.471    20980386.549    -5680828.104 9  -5919053.344 8
  20619547.335    20619550.422     -952840.561 8  -2339683.427 9
  22203275.922    22203279.670    -8294338.222 9  -7816798.864 7
 90  3  9  4 25 29.0800000  0  4G 6G 9G11G13
  20514853.648    20514858.532      224873.503 8  -1469606.562 8
  20974955.924    20974958.268    -5709359.182 8  -5941285.334 7
  20619889.858    20619892.417     -951045.524 9  -2338284.673 8
  22195303.186    22195306.416    -8336235.393 9  -7849445.954 8
 90  3  9  4 25 44.0800000  0  4G 6G 9G11G13
  20516313.558    20516317.219      232541.704 8  -1463631.330 9
  20969545.287    20969546.815    -5737790.250 9  -5963439.382 8
  20620254.971    20620258.134     -949126.352 9  -2336789.214 7
  22187348.753    22187353.328    -8378035.353 9  -7882017.297 8
 90  3  9  4 25 59.0800000  0  4G 6G 9G11G13
  20517798.882    20517803.036      240345.888 9  -1457550.157 7
  20964153.502    20964157.369    -5766121.064 9  -5985515.332 8
  20620643.615    20620646.657     -947083.249 8  -2335197.181 8
  22179413.196    22179417.402    -8419737.860 9  -7914512.710 8
 90  3  9  4 26 14.0800000  0  4G 6G 9G11G13
  20519309.704    20519315.175      248286.059 8  -1451363.002 9
  20958782.353    20958783.610    -5794351.381 8  -6007512.959 8
  20621056.048    20621058.933     -944916.464 8  -2333508.768 8
  22171495.225    22171499.716    -8461342.993 9  -7946932.240 7
 90  3  9  4 26 29.0800000  0  4G 6G 9G11G13
  20520848.498    20520851.234      256362.331 8  -1445069.804 9
  20953429.009    20953432.155    -5822480.621 9  -6029431.840 8
  20621491.779    20621494.221     -942626.192 8  -2331724.123 7
  22163596.369    22163601.509    -8502850.260 9  -7979275.524 7
 90  3  9  4 26 44.0800000  0  4G 6G 9G11G13
  20522412.343    20522412.822      264574.818 8  -1438670.462 8
  20948095.824    20948097.176    -5850508.830 9  -6051271.983 8
  20621951.790    20621953.549     -940212.487 8  -2329843.298 7
  22155717.311    22155721.768    -8544259.703 9  -8011542.584 7
 90  3  9  4 26 59.0800000  0  4G 6G 9G11G13
  20523999.322    20524002.824      272923.646 9  -1432164.891 8
  20942781.178    20942782.936    -5878435.359 9  -6073032.898 8
  20622433.655    20622436.772     -937675.704 9  -2327866.575 8
  22147855.774    22147860.206    -8585571.148 9  -8043733.255 7
 90  3  9  4 27 14.0800000  0  4G 6G 9G11G13
  20525614.275    20525615.736      281408.853 8  -1425553.041 8
  20937486.663    20937488.613    -5906259.956 9  -6094714.392 7
  20622939.985    20622942.720     -935015.833 9  -2325793.938 8
  22140013.348    22140016.372    -8626784.402 8  -8075847.425 7
 90  3  9  4 27 29.0800000  0  4G 6G 9G11G13
  20527255.503    20527257.386      290030.663 8  -1418834.749 8
  20932209.541    20932213.752    -5933982.230 9  -6116316.146 8
  20623469.958    20623471.612     -932233.095 9  -2323625.549 8
  22132188.551    22132192.969    -8667899.132 9  -8107884.835 8
 90  3  9  4 27 44.0800000  0  4G 6G 9G11G13
  20528920.570    20528924.370      298789.116 9  -1412009.972 8
  20926955.229    20926955.985    -5961601.964 8  -6137838.007 8
  20624022.255    20624023.892     -929327.531 8  -2321361.467 8
  22124384.135    22124387.546    -8708915.455 9  -8139845.564 8
 90  3  9  4 27 59.0800000  0  4G 6G 9G11G13
  20530614.116    20530615.995      307684.334 8  -1405078.637 9
  20921718.025    20921720.069    -5989118.720 8  -6159279.621 8
  20624597.453    20624600.984     -926299.325 9  -2319001.814 8
  22116597.024    22116602.670    -8749832.937 9  -8171729.268 8
 90  3  9  4 28 14.0800000  0  4G 6G 9G11G13
  20532332.131    20532334.096      316716.477 9  -1398040.598 8
  20916503.497    20916505.109    -6016532.171 8  -6180640.739 8
  20625197.812    20625199.970     -923148.732 9  -2316546.793 8
  22108829.986    22108834.318    -8790651.318 9  -8203535.754 8
 90  3  9  4 28 29.0800000  0  4G 6G 9G11G13
  20534077.674    20534079.150      325885.649 8  -1390895.788 9
  20911305.237    20911307.470    -6043842.097 9  -6201921.196 8
  20625819.305    20625822.650     -919875.882 9  -2313996.525 9
  22101082.904    22101085.723    -8831370.632 8  -8235265.032 7
 90  3  9  4 28 44.0800000  0  4G 6G 9G11G13
  20535848.465    20535850.452      335191.829 8  -1383644.218 8
  20906127.702    20906131.168    -6071048.048 9  -6223120.607 8
  20626466.026    20626468.962     -916481.047 9  -2311351.177 8
  22093353.081    22093356.020    -8871990.729 9  -8266917.017 8
 90  3  9  4 28 59.0800000  0  4G 6G 9G11G13
  20537644.993    20537648.430      344635.264 9  -1376285.705 8
  20900969.696    20900973.594    -6098149.718 8  -6244238.797 9
  20627135.828    20627139.044     -912964.332 8  -2308610.884 7
  22085642.817    22085645.149    -8912511.390 9  -8298491.496 8
 90  3  9  4 29 14.0800000  0  4G 6G 9G11G13
  20539469.309    20539470.079      354215.899 8  -1368820.272 8
  20895833.801    20895837.459    -6125146.848 9  -6265275.487 7
  20627826.343    20627830.661     -909326.093 8  -2305775.870 7
  22077950.812    22077953.275    -8952932.267 9  -8329988.238 7
 90  3  9  4 29 29.0800000  0  4G 6G 9G11G13
  20541318.142    20541318.966      363933.960 8  -1361247.767 9
  20890716.135    20890719.722    -6152038.914 9  -6286230.333 8
  20628543.777    20628546.013     -905566.279 8  -2302846.136 7
  22070276.840    22070281.296    -8993253.427 9  -8361407.284 7
 90  3  9  4 29 44.0800000  0  4G 6G 9G11G13
  20543193.432    20543195.796      373789.568 8  -1353568.076 8
  20885619.143    20885621.923    -6178825.649 8  -6307103.099 8
  20629281.063    20629284.595     -901685.099 8  -2299821.830 8
  22062623.146    22062626.174    -9033474.614 9  -8392748.426 8
 90  3  9  4 29 59.0800000  0  4G 6G 9G11G13
  20545094.830    20545096.769      383782.696 8  -1345781.218 8
  20880540.782    20880543.364    -6205506.818 8  -6327893.593 9
  20630043.334    20630046.103     -897682.741 8  -2296703.090 7
  22054988.384    22054991.819    -9073595.626 9  -8424011.508 8
 90  3  9  4 30 14.0800000  0  4G 6G 9G11G13
  20547022.973    20547024.865      393913.581 9  -1337887.014 7
  20875484.440    20875486.951    -6232081.829 9  -6348601.366 8
  20630829.365    20630830.306     -893559.494 8  -2293490.145 8
  22047372.246    22047375.583    -9113616.300 9  -8455196.412 7
 90  3  9  4 30 29.0800000  0  4G 6G 9G11G13
  20548976.673    20548978.358      404182.150 8  -1329885.533 9
  20870448.761    20870450.227    -6258550.539 8  -6369226.317 8
  20631636.329    20631638.144     -889315.562 9  -2290183.181 9
  22039776.268    22039779.500    -9153536.606 9  -8486303.104 8
 90  3  9  4 30 44.0800000  0  4G 6G 9G11G13
  20550956.711    20550958.691      414588.606 9  -1321776.624 8
  20865432.124    20865433.573    -6284912.472 9  -6389768.082 8
  20632466.882    20632468.651     -884951.146 8  -2286782.323 8
  22032198.545    22032203.095    -9193356.250 9  -8517331.344 7
 90  3  9  4 30 59.0800000  0  4G 6G 9G11G13
  20552964.021    20552965.736      425132.933 8  -1313560.247 8
  20860436.184    20860436.708    -6311167.415 8  -6410226.458 8
  20633319.856    20633322.625     -880466.364 8  -2283287.680 7
  22024639.651    22024643.529    -9233075.223 8  -8548281.158 8
 90  3  9  4 31 14.0800000  0  4G 6G 9G11G13
  20554996.319    20554998.612      435815.361 8  -1305236.288 9
  20855459.372    20855460.349    -6337315.127 8  -6430601.272 7
  20634195.765    20634198.213     -875861.335 9  -2279699.347 9
  22017100.679    22017103.936    -9272693.098 9  -8579152.203 7
 90  3  9  4 31 29.0800000  0  4G 6G 9G11G13
  20557055.752    20557056.540      446635.964 8  -1296804.647 8
  20850503.727    20850505.147    -6363355.198 9  -6450892.243 8
  20635094.970    20635098.512     -871136.293 8  -2276017.502 8
  22009580.096    22009584.936    -9312209.729 9  -8609944.327 9
 90  3  9  4 31 44.0800000  0  4G 6G 9G11G13
  20559141.083    20559142.802      457594.789 9  -1288265.307 9
  20845568.567    20845571.927    -6389287.363 9  -6471099.114 7
  20636016.768    20636019.998     -866291.497 9  -2272242.327 8
  22002079.870    22002084.076    -9351625.037 9  -8640657.510 8
 90  3  9  4 31 59.0800000  0  4G 6G 9G11G13
  20561254.209    20561254.272      468691.849 9  -1279618.254 8
  20840655.752    20840656.331    -6415111.113 9  -6491221.506 7
  20636960.587    20636964.033     -861327.000 9  -2268373.883 8
  21994599.004    21994602.788    -9390938.922 9  -8671291.654 8
 90  3  9  4 32 14.0800000  0  4G 6G 9G11G13
  20563391.201    20563392.912      479927.238 8  -1270863.410 8
  20835762.248    20835763.797    -6440826.176 8  -6511259.201 8
  20637929.211    20637930.821     -856243.118 8  -2264412.414 7
  21987137.296    21987140.417    -9430151.176 8  -8701846.616 8
 90  3  9  4 32 29.0800000  0  4G 6G 9G11G13
  20565556.194    20565557.102      491301.168 8  -1262000.611 8
  20830889.677    20830892.279    -6466432.315 9  -6531212.034 8
  20638919.827    20638921.540     -851040.068 8  -2260358.071 9
  21979694.221    21979699.264    -9469261.619 9  -8732322.249 8
 90  3  9  4 32 44.0800000  0  4G 6G 9G11G13
  20567746.474    20567747.962      502813.671 7  -1253029.841 8
  20826037.704    20826039.831    -6491929.046 9  -6551079.588 8
  20639931.688    20639933.768     -845718.018 8  -2256211.014 7
  21972272.259    21972274.648    -9508270.090 9  -8762718.417 8
 90  3  9  4 32 59.0800000  0  4G 6G 9G11G13
  20569962.927    20569965.445      514464.701 8  -1243951.108 8
  20821206.097    20821208.704    -6517316.018 9  -6570861.625 8
  20640967.429    20640969.965     -840277.029 8  -2251971.274 8
  21964868.314    21964872.972    -9547176.598 9  -8793035.144 7
 90  3  9  4 33 14.0800000  0  4G 6G 9G11G13
  20572206.831    20572208.220      526254.467 9  -1234764.278 8
  20816396.926    20816396.764    -6542593.102 8  -6590558.044 7
  20642025.592    20642029.299     -834717.299 9  -2247639.007 9
  21957484.435    21957488.339    -9585980.801 9  -8823272.135 8
 90  3  9  4 33 29.0800000  0  4G 6G 9G11G13
  20574476.493    20574479.429      538182.957 8  -1225469.342 8
  20811607.330    20811609.371    -6567759.855 9  -6610168.469 8
  20643105.969    20643109.643     -829039.103 9  -2243214.425 8
  21950118.620    21950122.885    -9624682.657 9  -8853429.383 9
 90  3  9  4 33 44.0800000  0  4G 6G 9G11G13
  20576773.188    20576775.006      550250.301 8  -1216066.223 7
  20806838.815    20806841.929    -6592815.877 9  -6629692.630 8
  20644209.007    20644210.964     -823242.692 9  -2238697.726 8
  21942774.526    21942776.597    -9663282.046 9  -8883506.797 8
 90  3  9  4 33 59.0800000  0  4G 6G 9G11G13
  20579096.283    20579097.996      562456.521 9  -1206554.891 9
  20802093.555    20802094.314    -6617761.038 9  -6649130.406 8
  20645334.616    20645336.096     -817328.284 9  -2234089.089 9
  21935448.181    21935452.068    -9701778.679 9  -8913504.130 8
 90  3  9  4 34 14.0800000  0  4G 6G 9G11G13
  20581446.090    20581447.574      574801.775 8  -1196935.210 8
  20797367.286    20797367.495    -6642594.814 9  -6668481.367 8
  20646481.579    20646485.616     -811296.044 8  -2229388.643 9
  21928143.198    21928145.337    -9740172.462 9  -8943421.319 8
 90  3  9  4 34 29.0800000  0  4G 6G 9G11G13
  20583821.101    20583822.967      587286.082 8  -1187207.178 8
  20792663.081    20792663.686    -6667316.941 9  -6687745.355 8
  20647651.307    20647656.366     -805146.200 9  -2224596.539 8
  21920855.591    21920858.691    -9778463.203 9  -8973258.231 7
 90  3  9  4 34 44.0800000  0  4G 6G 9G11G13
  20586221.529    20586224.696      599909.553 9  -1177370.706 8
  20787978.773    20787979.360    -6691927.090 8  -6706922.080 8
  20648844.407    20648846.664     -798878.879 9  -2219712.915 7
  21913589.007    21913591.988    -9816650.733 9  -9003014.715 8
 90  3  9  4 34 59.0800000  0  4G 6G 9G11G13
  20588650.728    20588653.754      612672.174 8  -1167425.824 8
  20783318.298    20783318.115    -6716424.855 8  -6726011.229 8
  20650060.060    20650061.569     -792494.215 9  -2214737.842 7
  21906341.003    21906345.147    -9854735.100 9  -9032690.808 7
 90  3  9  4 35 14.0800000  0  4G 6G 9G11G13
  20591105.790    20591109.469      625574.034 8  -1157372.427 8
  20778677.311    20778677.592    -6740810.214 9  -6745012.793 8
  20651297.593    20651299.117     -785992.582 9  -2209671.616 8
  21899113.263    21899116.217    -9892716.086 9  -9062286.343 7
 90  3  9  4 35 29.0800000  0  4G 6G 9G11G13
  20593587.744    20593590.348      638615.208 9  -1147210.475 9
  20774058.103    20774059.321    -6765082.349 9  -6763926.134 8
  20652555.953    20652558.299     -779374.205 8  -2204514.425 7
  21891906.212    21891908.148    -9930593.451 9  -9091801.130 7
 90  3  9  4 35 44.0800000  0  4G 6G 9G11G13
  20596096.272    20596098.512      651795.708 8  -1136939.958 9
  20769460.944    20769461.070    -6789241.337 9  -6782751.319 8
  20653837.963    20653841.149     -772639.197 8  -2199266.360 8
  21884717.391    21884720.585    -9968367.239 9  -9121235.232 8
 90  3  9  4 35 59.0800000  0  4G 6G 9G11G13
  20598630.930    20598633.096      665115.656 8  -1126560.763 8
  20764886.644    20764886.072    -6813286.820 9  -6801488.033 8
  20655141.831    20655145.408     -765787.815 7  -2193927.605 8
  21877549.087    21877552.400   -10006037.268 9  -9150588.475 8
 90  3  9  4 36 14.0800000  0  4G 6G 9G11G13
  20601192.520    20601194.489      678575.121 9  -1116072.877 8
  20760331.976    20760331.754    -6837218.226 9  -6820135.873 8
  20656467.925    20656471.640     -758820.193 9  -2188498.271 8
  21870400.381    21870404.739   -10043603.264 9  -9179860.637 8
 90  3  9  4 36 29.0800000  0  4G 6G 9G11G13
  20603780.240    20603781.182      692174.133 8  -1105476.241 8
  20755800.204    20755799.457    -6861035.444 9  -6838694.726 8
  20657815.279    20657817.936     -751736.631 9  -2182978.602 8
  21863271.422    21863274.946   -10081065.023 9  -9209051.587 8
 90  3  9  4 36 44.0800000  0  4G 6G 9G11G13
  20606394.806    20606395.792      705912.795 8  -1094770.792 8
  20751289.042    20751288.548    -6884738.218 9  -6857164.414 8
  20659185.083    20659189.731     -744537.252 8  -2177368.703 7
  21856162.767    21856166.781   -10118422.230 9  -9238161.061 7
 90  3  9  4 36 59.0800000  0  4G 6G 9G11G13
  20609035.869    20609037.636      719791.085 8  -1083956.552 9
  20746800.666    20746800.676    -6908325.984 9  -6875544.485 8
  20660576.810    20660581.158     -737222.303 9  -2171668.722 8
  21849074.497    21849077.756   -10155674.881 9  -9267189.076 8
 90  3  9  4 37 14.0800000  0  4G 6G 9G11G13
  20611703.316    20611704.416      733809.100 9  -1073033.413 8
  20742332.443    20742332.032    -6931798.388 9  -6893834.645 8
  20661991.749    20661995.425     -729791.861 8  -2165878.755 8
  21842005.132    21842007.676   -10192823.242 9  -9296135.813 8
 90  3  9  4 37 29.0800000  0  4G 6G 9G11G13
  20614397.343    20614398.945      747966.862 9  -1062001.393 9
  20737888.369    20737888.956    -6955155.333 9  -6912034.860 7
  20663428.222    20663431.378     -722246.260 9  -2159999.066 8
  21834955.651    21834959.169   -10229866.850 9  -9325000.930 8
 90  3  9  4 37 44.0800000  0  4G 6G 9G11G13
  20617118.520    20617120.708      762264.488 7  -1050860.394 8
  20733465.352    20733467.631    -6978396.444 9  -6930144.807 8
  20664885.945    20664889.373     -714585.711 9  -2154029.794 7
  21827926.791    21827929.612   -10266805.654 9  -9353784.382 8
 90  3  9  4 37 59.0800000  0  4G 6G 9G11G13
  20619866.825    20619867.843      776701.972 9  -1039610.406 8
  20729064.863    20729066.400    -7001521.315 9  -6948164.178 8
  20666365.670    20666367.200     -706810.451 8  -2147971.140 8
  21820917.796    21820920.776   -10303639.517 9  -9382486.075 8
 90  3  9  4 38 14.0800000  0  4G 6G 9G11G13
  20622640.986    20622641.487      791279.298 8  -1028251.449 9
  20724686.960    20724688.446    -7024529.724 8  -6966092.793 8
  20667867.337    20667868.724     -698920.612 8  -2141823.196 8
  21813928.328    21813930.172   -10340368.353 9  -9411105.906 7
 90  3  9  4 38 29.0800000  0  4G 6G 9G11G13
  20625441.655    20625442.002      805996.659 9  -1016783.383 9
  20720330.355    20720331.835    -7047421.264 8  -6983930.334 8
  20669389.538    20669392.168     -690916.462 9  -2135586.194 7
  21806958.918    21806962.691   -10376991.986 9  -9439643.781 7
 90  3  9  4 38 44.0800000  0  4G 6G 9G11G13
  20628266.792    20628270.098      820853.988 9  -1005206.264 7
  20715997.113    20715997.749    -7070195.744 9  -7001676.679 8
  20670933.831    20670936.841     -682798.269 8  -2129260.318 8
  21800009.800    21800013.821   -10413510.068 9  -9468099.407 7
 90  3  9  4 38 59.0800000  0  4G 6G 9G11G13
  20631120.667    20631124.257      835851.453 8   -993519.926 8
  20711685.719    20711687.446    -7092852.682 9  -7019331.441 9
  20672499.586    20672503.704     -674566.075 8  -2122845.618 7
  21793080.201    21793083.598   -10449922.785 9  -9496472.904 7
 90  3  9  4 39 14.0800000  0  4G 6G 9G11G13
  20634000.720    20634004.888      850988.940 8   -981724.495 9
  20707396.133    20707398.257    -7115391.950 9  -7036894.491 7
  20674088.881    20674091.679     -666220.196 9  -2116342.327 8
  21786171.710    21786174.293   -10486229.577 9  -9524763.893 8
 90  3  9  4 39 29.0800000  0  4G 6G 9G11G13
  20636908.769    20636910.856      866266.586 8   -969819.826 8
  20703129.400    20703130.935    -7137813.038 9  -7054365.455 8
  20675698.437    20675701.379     -657760.907 8  -2109750.664 8
  21779282.292    21779285.636   -10522430.750 9  -9552972.562 7
 90  3  9  4 39 44.0800000  0  4G 6G 9G11G13
  20639842.154    20639845.907      881684.373 9   -957805.968 8
  20698885.700    20698886.963    -7160115.520 9  -7071744.000 7
  20677329.870    20677333.431     -649188.359 9  -2103070.754 8
  21772414.086    21772418.199   -10558526.055 9  -9581098.757 8
 90  3  9  4 39 59.0800000  0  4G 6G 9G11G13
  20642803.596    20642805.649      897242.295 8   -945682.919 8
  20694664.952    20694665.127    -7182299.243 9  -7089029.990 7
  20678983.074    20678986.460     -640502.778 8  -2096302.769 6
  21765565.205    21765566.711   -10594515.333 9  -9609142.321 7
 90  3  9  4 40 14.0800000  0  4G 6G 9G11G13
  20645790.069    20645793.863      912940.529 9   -933450.534 8
  20690465.702    20690466.341    -7204364.055 9  -7106223.349 7
  20680657.490    20680659.520     -631704.457 9  -2089446.910 7
  21758736.952    21758741.441   -10630398.316 9  -9637103.061 7
 90  3  9  4 40 29.0800000  0  4G 6G 9G11G13
  20648804.333    20648806.913      928778.974 8   -921108.894 8
  20686289.914    20686289.345    -7226309.514 9  -7123323.687 8
  20682353.201    20682355.105     -622793.577 8  -2082503.362 8
  21751929.177    21751932.113   -10666175.304 9  -9664981.208 7
 90  3  9  4 40 44.0800000  0  4G 6G 9G11G13
  20651845.475    20651847.739      944757.757 8   -908657.905 8
  20682136.299    20682135.878    -7248135.074 8  -7140330.611 8
  20684069.679    20684073.012     -613770.260 8  -2075472.202 8
  21745141.419    21745143.702   -10701845.815 9  -9692776.382 8
 90  3  9  4 40 59.0800000  0  4G 6G 9G11G13
  20654913.104    20654915.912      960876.811 9   -896097.601 9
  20678005.074    20678007.553    -7269840.552 9  -7157243.966 8
  20685808.589    20685810.748     -604634.910 9  -2068353.725 8
  21738373.530    21738378.077   -10737409.980 9  -9720488.702 7
 90  3  9  4 41 14.0800000  0  4G 6G 9G11G13
  20658006.834    20658009.005      977136.309 8   -883427.863 8
  20673897.941    20673899.464    -7291426.212 8  -7174063.959 7
  20687568.151    20687570.635     -595387.717 9  -2061148.113 8
  21731625.671    21731629.229   -10772867.554 9  -9748117.954 7
 90  3  9  4 41 29.0800000  0  4G 6G 9G11G13
  20661126.573    20661130.621      993536.182 9   -870648.751 8
  20669812.627    20669814.087    -7312890.957 9  -7190789.727 8
  20689349.404    20689352.130     -586028.872 8  -2053855.496 7
  21724898.569    21724901.832   -10808218.210 9  -9775663.881 7
 90  3  9  4 41 44.0800000  0  4G 6G 9G11G13
  20664274.183    20664277.563     1010076.423 9   -857760.245 8
  20665750.693    20665752.279    -7334234.817 8  -7207421.287 7
  20691150.745    20691155.262     -576558.532 9  -2046476.018 9
  21718191.716    21718195.823   -10843461.929 9  -9803126.484 7
 90  3  9  4 41 59.0800000  0  4G 6G 9G11G13
  20667448.285    20667452.582     1026757.094 8   -844762.332 9
  20661712.645    20661713.573    -7355457.565 8  -7223958.482 7
  20692973.736    20692977.912     -566976.947 9  -2039009.830 8
  21711505.059    21711508.250   -10878598.652 9  -9830505.714 7
 90  3  9  4 42 14.0800000  0  4G 6G 9G11G13
  20670649.498    20670652.420     1043578.222 8   -831654.957 8
  20657697.909    20657698.700    -7376558.388 8  -7240400.660 8
  20694818.397    20694821.737     -557284.392 9  -2031457.194 8
  21704840.430    21704844.020   -10913628.356 9  -9857801.577 8
 90  3  9  4 42 29.0800000  0  4G 6G 9G11G13
  20673878.285    20673879.829     1060539.884 8   -818438.080 8
  20653705.450    20653706.352    -7397538.131 9  -7256748.501 9
  20696683.630    20696687.604     -547481.207 8  -2023818.323 8
  21698194.880    21698197.665   -10948551.071 9  -9885014.043 7
 90  3  9  4 42 44.0800000  0  4G 6G 9G11G13
  20677132.535    20677134.368     1077642.035 8   -805111.721 8
  20649737.116    20649737.806    -7418395.169 9  -7273000.730 7
  20698570.826    20698573.526     -537567.379 9  -2016093.261 8
  21691569.511    21691573.496   -10983366.275 9  -9912142.744 8
 90  3  9  4 42 59.0800000  0  4G 6G 9G11G13
  20680414.481    20680416.285     1094884.743 8   -791675.849 7
  20645790.526    20645791.927    -7439129.534 9  -7289157.372 7
  20700477.870    20700480.942     -527543.325 9  -2008282.288 8
  21684965.936    21684968.659   -11018074.048 9  -9939187.750 8
 90  3  9  4 43 14.0800000  0  4G 6G 9G11G13
  20683722.100    20683723.386     1112267.891 9   -778130.535 8
  20641869.768    20641870.203    -7459741.233 8  -7305218.416 8
  20702407.037    20702409.107     -517409.256 8  -2000385.607 7
  21678381.004    21678383.324   -11052674.337 9  -9966148.965 7
 90  3  9  4 43 29.0800000  0  4G 6G 9G11G13
  20687057.875    20687057.857     1129791.679 9   -764475.651 9
  20637971.783    20637970.410    -7480230.181 8  -7321183.829 8
  20704356.137    20704358.965     -507165.387 9  -1992403.361 8
  21671816.865    21671819.894   -11087167.030 9  -9993026.362 7
 90  3  9  4 43 44.0800000  0  4G 6G 9G11G13
  20690418.614    20690419.238     1147456.037 9   -750711.212 7
  20634094.834    20634095.249    -7500595.527 9  -7337052.937 8
  20706327.460    20706328.856     -496811.863 8  -1984335.675 7
  21665273.485    21665276.733   -11121551.915 9 -10019819.763 8
 90  3  9  4 43 59.0800000  0  4G 6G 9G11G13
  20693807.572    20693808.081     1165260.964 9   -736837.256 9
  20630242.513    20630243.166    -7520836.939 8  -7352825.447 8
  20708318.155    20708320.585     -486349.018 9  -1976182.792 8
  21658750.276    21658752.730   -11155828.941 9 -10046529.098 8
 90  3  9  4 44 14.0800000  0  4G 6G 9G11G13
  20697222.825    20697223.991     1183206.489 9   -722853.736 8
  20626413.945    20626414.747    -7540954.377 9  -7368501.369 7
  20710329.796    20710332.630     -475776.986 8  -1967944.857 8
  21652248.644    21652249.896   -11189998.062 9 -10073154.364 7
 90  3  9  4 44 29.0800000  0  4G 6G 9G11G13
  20700663.719    20700666.054     1201292.583 8   -708760.680 7
  20622609.514    20622611.201    -7560947.658 9  -7384080.544 7
  20712362.151    20712364.222     -465096.174 9  -1959622.128 8
  21645767.221    21645768.894   -11224059.041 9 -10099695.350 8
 90  3  9  4 44 44.0800000  0  4G 6G 9G11G13
  20704131.765    20704132.788     1219519.248 9   -694558.093 8
  20618829.472    20618830.045    -7580816.134 9  -7399562.463 7
  20714414.442    20714417.991     -454306.743 8  -1951214.773 8
  21639305.681    21639308.232   -11258011.768 9 -10126151.998 7
 90  3  9  4 44 59.0800000  0  4G 6G 9G11G13
  20707626.430    20707628.630     1237886.567 9   -680245.903 9
  20615072.325    20615073.802    -7600559.809 9  -7414947.149 8
  20716489.298    20716491.510     -443408.887 9  -1942722.936 8
  21632864.838    21632868.276   -11291856.094 9 -10152524.180 6
 90  3  9  4 45 14.0800000  0  4G 6G 9G11G13
  20711147.959    20711150.648     1256394.459 9   -665824.177 8
  20611339.396    20611340.647    -7620178.071 9  -7430234.101 6
  20718584.033    20718585.776     -432402.892 9  -1934146.829 8
  21626445.698    21626447.387   -11325592.108 9 -10178811.956 6
 90  3  9  4 45 29.0800000  0  4G 6G 9G11G13
  20714696.376    20714698.836     1275042.987 9   -651292.864 8
  20607628.783    20607632.155    -7639671.236 9  -7445423.572 7
  20720698.503    20720701.418     -421288.929 9  -1925486.579 8
  21620046.208    21620048.925   -11359219.599 9 -10205015.171 7
 90  3  9  4 45 44.0800000  0  4G 6G 9G11G13
  20718272.100    20718274.657     1293832.136 8   -636651.960 8
  20603944.185    20603945.227    -7659038.425 9  -7460514.870 7
  20722833.978    20722836.639     -410067.219 9  -1916742.389 9
  21613668.495    21613669.838   -11392738.415 9 -10231133.698 7
 90  3  9  4 45 59.0800000  0  4G 6G 9G11G13
  20721874.622    20721877.151     1312761.803 9   -621901.580 8
  20600282.262    20600284.246    -7678279.488 9  -7475507.903 8
  20724989.045    20724992.062     -398738.106 9  -1907914.493 8
  21607310.401    21607313.606   -11426148.580 9 -10257167.566 7
 90  3  9  4 46 14.0800000  0  4G 6G 9G11G13
  20725502.998    20725506.196     1331832.194 9   -607041.534 8
  20596645.122    20596647.087    -7697394.200 9  -7490402.460 7
  20727165.746    20727169.089     -387301.833 9  -1899003.096 8
  21600973.221    21600975.111   -11459449.876 9 -10283116.625 7
 90  3  9  4 46 29.0800000  0  4G 6G 9G11G13
  20729159.549    20729161.811     1351043.161 9   -592071.969 8
  20593031.655    20593032.193    -7716381.979 9  -7505198.125 8
  20729361.425    20729364.379     -375758.580 9  -1890008.355 8
  21594655.778    21594659.777   -11492642.276 9 -10308980.802 7
 90  3  9  4 46 44.0800000  0  4G 6G 9G11G13
  20732841.991    20732843.887     1370394.751 9   -576992.808 7
  20589442.224    20589443.108    -7735242.855 9  -7519894.906 8
  20731579.234    20731580.448     -364108.605 9  -1880930.434 7
  21588360.896    21588364.989   -11525725.896 9 -10334760.227 8
 90  3  9  4 46 59.0800000  0  4G 6G 9G11G13
  20736550.905    20736552.773     1389886.859 9   -561804.150 8
  20585877.868    20585879.110    -7753976.475 9  -7534492.520 8
  20733816.080    20733817.518     -352352.070 9  -1871769.496 8
  21582086.241    21582090.261   -11558700.369 9 -10360454.582 7
 90  3  9  4 47 14.0800000  0  4G 6G 9G11G13
  20740287.739    20740290.282     1409519.612 8   -546505.905 8
  20582337.376    20582337.561    -7772582.555 9  -7548990.769 8
  20736073.479    20736075.707     -340489.145 9  -1862525.673 8
  21575831.700    21575835.386   -11591565.857 9 -10386064.045 7
 90  3  9  4 47 29.0800000  0  4G 6G 9G11G13
  20744050.023    20744051.109     1429292.962 9   -531098.111 8
  20578821.239    20578821.691    -7791060.793 9  -7563389.377 7
  20738351.260    20738353.737     -328520.187 9  -1853199.186 8
  21569599.233    21569603.389   -11624322.019 9 -10411588.289 8
 90  3  9  4 47 44.0800000  0  4G 6G 9G11G13
  20747838.997    20747841.460     1449206.891 9   -515580.769 7
  20575329.693    20575330.460    -7809410.944 9  -7577688.186 7
  20740649.795    20740651.447     -316445.389 8  -1843790.239 8
  21563386.842    21563390.398   -11656968.801 9 -10437027.305 7
 90  3  9  4 47 59.0800000  0  4G 6G 9G11G13
  20751655.545    20751656.926     1469261.337 9   -499953.940 8
  20571861.925    20571862.172    -7827632.576 9  -7591886.853 8
  20742967.240    20742969.541     -304265.111 9  -1834299.115 8
  21557195.083    21557198.238   -11689506.122 9 -10462381.043 7
 90  3  9  4 48 14.0800000  0  4G 6G 9G11G13
  20755498.405    20755500.094     1489456.401 9   -484217.522 8
  20568419.017    20568419.052    -7845725.411 8  -7605985.161 7
  20745305.833    20745307.466     -291979.652 9  -1824726.012 8
  21551025.379    21551025.574   -11721933.914 9 -10487649.413 7
 90  3  9  4 48 29.0800000  0  4G 6G 9G11G13
  20759367.578    20759368.979     1509791.923 8   -468371.654 8
  20565000.501    20565000.420    -7863689.293 9  -7619982.979 7
  20747663.177    20747664.991     -279589.108 9  -1815071.025 8
  21544874.520    21544877.604   -11754252.104 9 -10512832.401 7
 90  3  9  4 48 44.0800000  0  4G 6G 9G11G13
  20763264.398    20763266.254     1530267.946 9   -452416.303 8
  20561606.485    20561607.956    -7881523.739 9  -7633879.963 7
  20750040.719    20750043.519     -267093.812 8  -1805334.422 8
  21538745.389    21538747.707   -11786460.631 9 -10537929.934 7
 90  3  9  4 48 59.0800000  0  4G 6G 9G11G13
  20767187.346    20767190.018     1550884.455 9   -436351.496 8
  20558237.317    20558237.843    -7899228.488 9  -7647675.857 7
  20752438.044    20752440.685     -254494.035 8  -1795516.403 7
  21532636.803    21532639.787   -11818559.318 9 -10562941.880 7
 90  3  9  4 49 14.0800000  0  4G 6G 9G11G13
  20771136.886    20771139.326     1571641.417 9   -420177.253 8
  20554893.210    20554894.369    -7916803.365 9  -7661370.544 7
  20754855.379    20754857.852     -241789.879 9  -1785617.050 8
  21526549.287    21526551.903   -11850548.082 9 -10587868.162 7
 90  3  9  4 49 29.0800000  0  4G 6G 9G11G13
  20775114.352    20775116.497     1592538.861 9   -403893.556 7
  20551573.885    20551574.580    -7934248.174 9  -7674963.909 8
  20757292.295    20757294.908     -228981.627 8  -1775636.589 8
  21520483.644    21520485.307   -11882426.725 9 -10612708.640 7
 90  3  9  4 49 44.0800000  0  4G 6G 9G11G13
  20779117.580    20779120.289     1613576.678 9   -387500.448 7
  20548279.147    20548280.535    -7951562.393 8  -7688455.501 8
  20759749.158    20759751.539     -216069.474 8  -1765575.174 7
  21514438.880    21514440.357   -11914195.288 9 -10637463.351 7
 90  3  9  4 49 59.0800000  0  4G 6G 9G11G13
  20783147.821    20783150.433     1634754.960 8   -370997.902 7
  20545009.086    20545009.703    -7968745.855 9  -7701845.202 8
  20762225.633    20762228.691     -203053.754 9  -1755433.060 8
  21508412.876    21508416.168   -11945853.716 9 -10662132.216 7
 90  3  9  4 50 14.0800000  0  4G 6G 9G11G13
  20787205.153    20787207.358     1656073.607 9   -354385.975 7
  20541763.683    20541765.439    -7985798.279 9  -7715132.819 7
  20764721.423    20764725.249     -189934.742 9  -1745210.438 8
  21502409.600    21502413.394   -11977401.984 9 -10686715.255 7
 90  3  9  4 50 29.0800000  0  4G 6G 9G11G13
  20791288.383    20791291.321     1677532.628 9   -337664.674 8
  20538543.388    20538545.155    -8002719.282 9  -7728317.997 7
  20767239.006    20767242.010     -176712.780 9  -1734907.621 9
  21496427.241    21496431.453   -12008839.962 9 -10711212.357 8
 90  3  9  4 50 44.0800000  0  4G 6G 9G11G13
  20795399.003    20795399.364     1699131.816 9   -320834.137 8
  20535347.857    20535351.360    -8019508.824 9  -7741400.766 7
  20769775.527    20769776.568     -163388.087 9  -1724524.724 8
  21490466.586    21490467.449   -12040167.423 9 -10735623.338 7
 90  3  9  4 50 59.0800000  0  4G 6G 9G11G13
  20799534.903    20799536.061     1720871.321 9   -303894.265 8
  20532178.458    20532180.362    -8036166.530 8  -7754380.771 8
  20772329.214    20772332.388     -149960.814 9  -1714061.908 8
  21484526.076    21484529.238   -12071384.391 9 -10759948.223 8
 90  3  9  4 51 14.0800000  0  4G 6G 9G11G13
  20803698.912    20803701.437     1742751.100 9   -286845.098 7
  20529031.826    20529036.993    -8052692.031 9  -7767257.796 8
  20774904.658    20774907.733     -136431.247 9  -1703519.376 8
  21478605.897    21478608.549   -12102490.973 9 -10784187.093 7
 90  3  9  4 51 29.0800000  0  4G 6G 9G11G13
  20807887.456    20807891.415     1764771.037 9   -269686.709 8
  20525913.613    20525914.645    -8069085.160 8  -7780031.638 7
  20777497.556    20777501.124     -122799.623 8  -1692897.344 8
  21472707.851    21472710.757   -12133487.018 9 -10808339.828 7
 90  3  9  4 51 44.0800000  0  4G 6G 9G11G13
  20812103.939    20812107.527     1786931.275 8   -252418.983 7
  20522820.107    20522822.244    -8085345.507 9  -7792702.032 8
  20780111.675    20780114.304     -109066.255 8  -1682195.996 8
  21466830.804    21466833.362   -12164372.554 9 -10832406.448 8
 90  3  9  4 51 59.0800000  0  4G 6G 9G11G13
  20816348.724    20816351.427     1809231.571 9   -235042.142 7
  20519750.385    20519753.043    -8101472.895 8  -7805268.828 7
  20782742.992    20782747.689      -95231.313 8  -1671415.512 8
  21460973.986    21460977.550   -12195147.213 9 -10856386.687 7
 90  3  9  4 52 14.0800000  0  4G 6G 9G11G13
  20820618.836    20820622.893     1831671.990 9   -217556.099 8
  20516706.895    20516709.044    -8117466.999 9  -7817731.751 7
  20785395.903    20785399.320      -81295.017 9  -1660556.060 7
  21455139.741    21455143.024   -12225811.185 9 -10880280.670 7
 90  3  9  4 52 29.0800000  0  4G 6G 9G11G13
  20824915.606    20824917.579     1854252.490 9   -199960.910 8
  20513689.533    20513691.682    -8133327.541 8  -7830090.620 8
  20788066.258    20788070.906      -67257.736 9  -1649617.904 8
  21449325.263    21449327.457   -12256364.033 9 -10904088.059 8
 90  3  9  4 52 44.0800000  0  4G 6G 9G11G13
  20829239.543    20829241.537     1876973.025 9   -182256.605 8
  20510696.242    20510698.751    -8149054.151 9  -7842345.117 8
  20790757.016    20790761.579      -53119.696 8  -1638601.253 8
  21443532.145    21443535.194   -12286806.071 9 -10927809.100 7
 90  3  9  4 52 59.0800000  0  4G 6G 9G11G13
  20833589.767    20833592.161     1899833.533 9   -164443.237 6
  20507728.817    20507730.452    -8164646.735 8  -7854495.170 7
  20793468.427    20793469.023      -38881.083 9  -1627506.228 8
  21437760.769    21437763.448   -12317137.087 9 -10951443.630 7
 90  3  9  4 53 14.0800000  0  4G 6G 9G11G13
  20837967.701    20837969.033     1922833.985 9   -146520.821 8
  20504787.514    20504790.376    -8180104.990 9  -7866540.561 7
  20796195.656    20796198.187      -24542.102 8  -1616332.985 8
  21432010.215    21432012.384   -12347357.019 9 -10974991.609 8
 90  3  9  4 53 29.0800000  0  4G 6G 9G11G13
  20842371.140    20842370.953     1945974.267 8   -128489.424 7
  20501871.748    20501872.683    -8195428.626 8  -7878481.041 7
  20798944.181    20798946.587      -10103.153 9  -1605081.849 8
  21426280.731    21426283.374   -12377465.809 9 -10998452.983 7
 90  3  9  4 53 44.0800000  0  4G 6G 9G11G13
  20846801.352    20846801.754     1969254.482 9   -110349.020 7
  20498981.330    20498983.486    -8210617.349 9  -7890316.409 8
  20801711.040    20801712.980        4435.583 9  -1593752.957 8
  21420572.464    21420574.960   -12407463.546 9 -11021827.821 7
 90  3  9  4 53 59.0800000  0  4G 6G 9G11G13
  20851256.874    20851258.106     1992674.333 9    -92099.790 7
  20496116.684    20496118.726    -8225670.982 8  -7902046.502 7
  20804496.181    20804497.379       19073.844 9  -1582346.517 9
  21414884.591    21414887.504   -12437350.089 9 -11045116.007 7
 90  3  9  4 54 14.0800000  0  4G 6G 9G11G13
  20855741.043    20855742.149     2016233.963 9    -73741.638 7
  20493277.759    20493280.570    -8240589.061 9  -7913670.974 8
  20807301.129    20807301.664       33811.253 9  -1570862.817 8
  21409218.984    21409222.132   -12467125.110 9 -11068317.296 8
 90  3  9  4 54 29.0800000  0  4G 6G 9G11G13
  20860251.337    20860252.303     2039933.256 9    -55274.661 7
  20490466.714    20490466.562    -8255371.565 9  -7925189.788 7
  20810124.121    20810125.936       48647.586 8  -1559302.022 7
  21403573.643    21403576.469   -12496788.789 9 -11091431.838 7
 90  3  9  4 54 44.0800000  0  4G 6G 9G11G13
  20864788.020    20864787.613     2063772.238 9    -36698.833 8
  20487678.416    20487680.628    -8270018.087 8  -7936602.670 7
  20812965.541    20812968.428       63582.492 9  -1547664.432 8
  21397949.985    21397953.235   -12526341.000 9 -11114459.509 7
 90  3  9  4 54 59.0800000  0  4G 6G 9G11G13
  20869350.538    20869351.770     2087750.748 9    -18014.289 8
  20484917.340    20484918.546    -8284528.407 9  -7947909.418 8
  20815824.587    20815828.721       78615.809 9  -1535950.151 8
  21392348.327    21392351.584   -12555781.712 9 -11137400.301 8
 90  3  9  4 55 14.0800000  0  4G 6G 9G11G13
  20873940.254    20873939.583     2111868.775 8       778.981 7
  20482182.091    20482183.435    -8298902.227 8  -7959109.783 7
  20818704.903    20818708.476       93747.365 9  -1524159.314 9
  21386766.915    21386769.387   -12585110.798 9 -11160254.105 7
 90  3  9  4 55 29.0800000  0  4G 6G 9G11G13
  20878556.909    20878557.160     2136126.264 9     19680.916 8
  20479472.681    20479474.176    -8313139.281 9  -7970203.591 7
  20821603.588    20821605.914      108976.751 8  -1512292.252 7
  21381206.875    21381208.972   -12614328.182 9 -11183020.893 7
 90  3  9  4 55 44.0800000  0  4G 6G 9G11G13
  20883197.761    20883198.163     2160523.160 9     38691.477 7
  20476789.357    20476790.653    -8327239.392 9  -7981190.676 7
  20824520.461    20824522.961      124303.749 9  -1500349.147 8
  21375667.269    21375669.594   -12643433.986 9 -11205700.706 7
 90  3  9  4 55 59.0800000  0  4G 6G 9G11G13
  20887865.923    20887868.586     2185059.262 9     57810.504 7
  20474132.730    20474134.307    -8341202.260 9  -7992070.831 7
  20827455.591    20827459.325      139728.231 9  -1488330.059 8
  21370150.147    21370153.938   -12672428.131 9 -11228293.526 7
 90  3  9  4 56 14.0800000  0  4G 6G 9G11G13
  20892562.984    20892562.590     2209734.671 9     77038.094 6
  20471502.840    20471503.128    -8355027.640 8  -8002843.835 7
  20830409.366    20830410.763      155249.828 9  -1476235.307 8
  21364654.218    21364657.951   -12701310.423 9 -11250799.185 7
 90  3  9  4 56 29.0800000  0  4G 6G 9G11G13
  20897284.843    20897285.900     2234549.284 9     96374.136 7
  20468896.905    20468900.431    -8368715.094 8  -8013509.386 7
  20833382.229    20833383.558      170868.299 9  -1464065.060 9
  21359179.643    21359182.398   -12730080.771 9 -11273217.608 7
 90  3  9  4 56 44.0800000  0  4G 6G 9G11G13
  20902033.829    20902035.928     2259503.019 9    115818.591 6
  20466318.292    20466320.725    -8382264.761 9  -8024067.557 7
  20836372.725    20836374.094      186583.452 9  -1451819.476 7
  21353726.061    21353727.677   -12758739.259 9 -11295548.870 7
 90  3  9  4 56 59.0800000  0  4G 6G 9G11G13
  20906808.477    20906809.881     2284595.815 9    135371.412 8
  20463766.855    20463768.410    -8395676.016 8  -8034517.890 7
  20839381.594    20839381.975      202394.954 9  -1439498.827 8
  21348293.283    21348296.188   -12787286.020 9 -11317793.070 7
 90  3  9  4 57 14.0800000  0  4G 6G 9G11G13
  20911610.218    20911610.912     2309827.597 9    155032.535 8
  20461238.882    20461242.785    -8408948.567 8  -8044860.128 7
  20842407.801    20842410.458      218302.497 9  -1427103.324 8
  21342882.894    21342885.389   -12815720.781 9 -11339950.016 7
 90  3  9  4 57 29.0800000  0  4G 6G 9G11G13
  20916438.580    20916439.658     2335198.277 9    174801.895 7
  20458740.696    20458743.334    -8422082.548 9  -8055094.385 8
  20845453.412    20845455.631      234305.671 9  -1414633.320 8
  21337492.699    21337495.335   -12844043.582 9 -11362019.702 6
 90  3  9  4 57 44.0800000  0  4G 6G 9G11G13
  20921292.670    20921293.943     2360707.824 9    194679.458 8
  20456268.428    20456270.244    -8435077.386 9  -8065220.239 8
  20848517.370    20848519.000      250404.433 9  -1402088.820 7
  21332124.596    21332126.240   -12872254.229 9 -11384002.002 7
 90  3  9  4 57 59.0800000  0  4G 6G 9G11G13
  20926173.150    20926173.474     2386356.127 9    214665.133 8
  20453821.898    20453823.622    -8447932.929 8  -8075237.537 8
  20851598.381    20851601.199      266598.478 9  -1389470.078 8
  21326777.487    21326779.598   -12900352.871 9 -11405897.022 7
 90  3  9  4 58 14.0800000  0  4G 6G 9G11G13
  20931079.268    20931081.590     2412143.151 9    234758.905 8
  20451401.276    20451404.383    -8460649.056 8  -8085146.198 7
  20854698.787    20854700.856      282887.563 9  -1376777.286 7
  21321451.500    21321455.341   -12928339.469 9 -11427704.736 7
 90  3  9  4 58 29.0800000  0  4G 6G 9G11G13
  20936012.814    20936015.285     2438068.753 9    254960.650 7
  20449009.161    20449011.021    -8473225.409 9  -8094945.945 8
  20857815.816    20857817.887      299271.432 9  -1364010.608 8
  21316147.392    21316150.182   -12956213.920 9 -11449425.061 7
 90  3  9  4 58 44.0800000  0  4G 6G 9G11G13
  20940972.992    20940975.286     2464132.904 8    275270.372 7
  20446641.361    20446643.369    -8485661.728 9  -8104636.578 8
  20860951.349    20860954.036      315749.784 9  -1351170.339 9
  21310864.761    21310867.479   -12983976.093 8 -11471057.905 8
 90  3  9  4 58 59.0800000  0  4G 6G 9G11G13
  20945959.356    20945961.976     2490335.549 8    295688.005 8
  20444302.180    20444302.940    -8497957.778 9  -8114217.912 8
  20864105.125    20864107.551      332322.297 9  -1338256.693 7
  21305602.264    21305605.820   -13011625.987 9 -11492603.250 8
 90  3  9  4 59 14.0800000  0  4G 6G 9G11G13
  20950972.053    20950973.296     2516676.589 9    316213.487 8
  20441991.251    20441989.799    -8510113.228 8  -8123689.672 7
  20867277.428    20867278.413      348988.634 8  -1325269.923 9
  21300362.875    21300365.966   -13039163.575 9 -11514061.100 7
 90  3  9  4 59 29.0800000  0  4G 6G 9G11G13
  20956011.347    20956012.833     2543155.891 9    336846.703 8
  20439703.972    20439704.246    -8522128.121 9  -8133051.930 8
  20870466.649    20870467.849      365748.630 9  -1312210.171 8
  21295143.634    21295145.934   -13066588.886 9 -11535431.436 7
 90  3  9  4 59 44.0800000  0  4G 6G 9G11G13
  20961075.650    20961078.201     2569773.429 9    357587.635 7
  20437444.121    20437446.032    -8534001.950 9  -8142304.267 7
  20873673.786    20873674.566      382602.067 9  -1299077.624 8
  21289946.775    21289951.086   -13093901.828 9 -11556714.240 7
 90  3  9  4 59 59.0800000  0  4G 6G 9G11G13
  20966167.247    20966168.805     2596529.036 9    378436.159 9
  20435211.361    20435213.057    -8545734.440 8  -8151446.454 8
  20876898.659    20876900.177      399548.688 9  -1285872.455 8
  21284769.730    21284773.681   -13121102.271 9 -11577909.366 7
 90  3  9  5  0 14.0800000  0  4G 6G 9G11G13
  20971284.351    20971287.764     2623422.655 9    399392.204 8
  20433005.533    20433007.406    -8557325.453 9  -8160478.417 7
  20880141.070    20880142.119      416587.958 9  -1272595.100 8
  21279615.439    21279619.283   -13148190.162 9 -11599016.795 8
 90  3  9  5  0 29.0800000  0  4G 6G 9G11G13
  20976429.121    20976430.917     2650454.193 9    420455.737 8
  20430826.376    20430827.409    -8568774.984 9  -8169400.122 7
  20883400.247    20883401.957      433719.783 9  -1259245.630 8
  21274481.718    21274485.858   -13175165.654 9 -11620036.634 9
 90  3  9  5  0 44.0800000  0  4G 6G 9G11G13
  20981599.642    20981601.257     2677623.488 9    441626.613 8
  20428675.206    20428676.087    -8580082.560 8  -8178211.200 7
  20886677.710    20886679.854      450943.958 9  -1245824.194 8
  21269370.836    21269373.479   -13202028.603 9 -11640968.769 7
 90  3  9  5  0 59.0800000  0  4G 6G 9G11G13
  20986797.015    20986797.406     2704930.680 9    462904.916 8
  20426550.613    20426552.056    -8591247.918 7  -8186911.481 7
  20889972.603    20889974.946      468260.256 9  -1232330.966 8
  21264280.288    21264281.540   -13228779.156 9 -11661813.339 6
 90  3  9  5  1 14.0800000  0  4G 6G 9G11G13
  20992019.781    20992020.598     2732375.447 9    484290.453 8
  20424452.873    20424452.809    -8602270.759 8  -8195500.714 7
  20893286.139    20893287.241      485668.352 8  -1218766.218 8
  21259211.114    21259213.450   -13255417.245 9 -11682570.264 7
 90  3  9  5  1 29.0800000  0  4G 6G 9G11G13
  20997268.554    20997268.420     2759957.819 9    505783.198 8
  20422382.666    20422383.644    -8613151.036 9  -8203978.841 7
  20896616.306    20896617.708      503167.879 9  -1205130.210 8
  21254164.572    21254165.593   -13281942.586 9 -11703239.341 7
 90  3  9  5  1 44.0800000  0  4G 6G 9G11G13
  21002542.143    21002542.863     2787677.698 9    527383.105 8
  20420338.045    20420338.687    -8623888.477 8  -8212345.671 8
  20899963.312    20899966.056      520758.688 8  -1191423.086 8
  21249137.524    21249139.971   -13308355.252 9 -11723820.615 7
 90  3  9  5  1 59.0800000  0  4G 6G 9G11G13
  21007843.728    21007845.752     2815534.851 9    549089.968 7
  20418321.364    20418323.550    -8634482.772 8  -8220600.963 7
  20903327.345    20903331.034      538440.563 9  -1177644.995 8
  21244132.952    21244136.690   -13334655.140 9 -11744314.021 8
 90  3  9  5  2 14.0800000  0  4G 6G 9G11G13
  21013170.710    21013171.966     2843529.273 9    570903.787 8
  20416332.167    20416335.414    -8644933.714 8  -8228744.558 7
  20906709.313    20906711.783      556213.156 9  -1163796.220 7
  21239149.713    21239152.251   -13360842.355 9 -11764719.629 7
 90  3  9  5  2 29.0800000  0  4G 6G 9G11G13
  21018523.364    21018525.521     2871660.946 9    592824.562 8
  20414372.005    20414373.793    -8655241.013 9  -8236776.207 8
  20910109.307    20910113.225      574076.216 9  -1149876.947 8
  21234187.725    21234190.344   -13386916.794 9 -11785037.344 7
 90  3  9  5  2 44.0800000  0  4G 6G 9G11G13
  21023902.536    21023904.031     2899929.858 9    614852.282 8
  20412438.973    20412440.105    -8665404.549 9  -8244695.841 7
  20913524.783    20913528.367      592029.298 9  -1135887.525 8
  21229246.888    21229248.859   -13412878.596 9 -11805267.307 6
 90  3  9  5  2 59.0800000  0  4G 6G 9G11G13
  21029308.477    21029309.861     2928335.451 9    636986.504 8
  20410531.126    20410531.804    -8675424.147 8  -8252503.298 7
  20916959.564    20916961.376      610072.275 9  -1121828.063 7
  21224327.877    21224331.151   -13438727.797 9 -11825409.526 7
 90  3  9  5  3 14.0800000  0  4G 6G 9G11G13
  21034740.017    21034741.950     2956878.035 9    659227.463 8
  20408653.522    20408652.942    -8685299.438 9  -8260198.316 7
  20920410.670    20920411.753      628204.909 9  -1107698.739 8
  21219430.127    21219432.675   -13464464.252 9 -11845463.902 7
 90  3  9  5  3 29.0800000  0  4G 6G 9G11G13
  21040197.849    21040199.459     2985557.260 9    681574.901 9
  20406801.883    20406802.307    -8695030.281 8  -8267780.791 8
  20923877.289    20923878.500      646426.754 9  -1093499.896 8
  21214553.149    21214557.547   -13490087.883 9 -11865430.336 7
 90  3  9  5  3 44.0800000  0  4G 6G 9G11G13
  21045681.919    21045681.975     3014373.128 9    704028.829 8
  20404976.955    20404977.879    -8704616.512 9  -8275250.569 7
  20927361.375    20927364.936      664737.629 9  -1079231.670 8
  21209699.531    21209703.019   -13515598.862 9 -11885309.003 7
 90  3  9  5  3 59.0800000  0  4G 6G 9G11G13
  21051189.988    21051192.989     3043325.579 9    726589.169 8
  20403180.464    20403180.888    -8714057.846 8  -8282607.449 7
  20930861.631    20930863.961      683137.326 9  -1064894.234 8
  21204866.388    21204869.498   -13540997.183 9 -11905099.871 8
 90  3  9  5  4 14.0800000  0  4G 6G 9G11G13
  21056726.469    21056729.249     3072414.397 9    749255.767 7
  20401411.381    20401412.803    -8723354.047 8  -8289851.252 7
  20934380.439    20934383.856      701625.442 9  -1050487.911 8
  21200054.820    21200057.953   -13566282.525 9 -11924802.706 7
 90  3  9  5  4 29.0800000  0  4G 6G 9G11G13
  21062287.951    21062289.114     3101639.450 9    772028.532 8
  20399669.569    20399670.561    -8732505.059 8  -8296981.904 7
  20937914.695    20937917.908      720201.726 9  -1036012.870 8
  21195263.819    21195268.242   -13591455.076 9 -11944417.669 7
 90  3  9  5  4 44.0800000  0  4G 6G 9G11G13
  21067874.365    21067877.020     3131000.699 8    794907.406 8
  20397955.696    20397957.968    -8741510.360 9  -8303999.018 6
  20941467.139    20941469.024      738865.928 9  -1021469.337 8
  21190495.151    21190499.322   -13616514.826 9 -11963944.719 7
 90  3  9  5  4 59.0800000  0  4G 6G 9G11G13
  21073487.243    21073489.709     3160498.115 9    817892.396 8
  20396270.604    20396270.808    -8750369.933 9  -8310902.575 8
  20945036.411    20945038.826      757617.754 9  -1006857.522 8
  21185748.193    21185752.425   -13641461.759 9 -11983383.867 8
 90  3  9  5  5 14.0800000  0  4G 6G 9G11G13
  21079126.353    21079128.372     3190131.426 9    840983.278 7
  20394612.275    20394613.955    -8759083.440 7  -8317692.313 7
  20948621.293    20948623.821      776456.994 9   -992177.600 8
  21181022.950    21181025.991   -13666295.687 9 -12002734.968 7
 90  3  9  5  5 29.0800000  0  4G 6G 9G11G13
  21084791.622    21084794.194     3219900.603 9    864180.029 8
  20392981.386    20392981.739    -8767650.731 7  -8324368.112 7
  20952222.963    20952224.502      795383.380 9   -977429.745 8
  21176319.534    21176321.587   -13691016.720 9 -12021998.094 8
 90  3  9  5  5 44.0800000  0  4G 6G 9G11G13
  21090482.036    21090484.393     3249805.470 9    887482.523 7
  20391378.555    20391379.805    -8776071.800 9  -8330929.994 7
  20955840.481    20955843.013      814396.516 9   -962614.312 8
  21171635.935    21171638.462   -13715624.988 9 -12041173.341 8
 90  3  9  5  5 59.0800000  0  4G 6G 9G11G13
  21096198.203    21096200.640     3279845.778 9    910890.526 8
  20389803.456    20389806.297    -8784346.260 8  -8337377.621 8
  20959475.074    20959476.145      833496.250 9   -947731.404 8
  21166974.804    21166978.438   -13740120.530 9 -12060260.755 7
 90  3  9  5  6 14.0800000  0  4G 6G 9G11G13
  21101940.906    21101943.171     3310021.621 9    934404.158 7
  20388257.167    20388259.463    -8792474.064 9  -8343710.984 7
  20963125.893    20963128.482      852682.158 9   -932781.330 8
  21162333.879    21162338.186   -13764502.930 9 -12079260.007 8
 90  3  9  5  6 29.0800000  0  4G 6G 9G11G13
  21107708.655    21107709.924     3340332.839 9    958023.294 8
  20386738.024    20386740.534    -8800454.806 8  -8349929.742 7
  20966793.457    20966795.697      871954.075 9   -917764.249 8
  21157715.394    21157719.748   -13788772.450 9 -12098171.290 7
 90  3  9  5  6 44.0800000  0  4G 6G 9G11G13
  21113502.925    21113503.390     3370779.099 9    981747.634 8
  20385247.778    20385248.671    -8808288.310 8  -8356033.754 7
  20970477.573    20970478.544      891311.745 9   -902680.340 9
  21153118.280    21153122.515   -13812929.131 9 -12116994.655 8
 90  3  9  5  6 59.0800000  0  4G 6G 9G11G13
  21119322.055    21119323.487     3401360.505 9   1005577.292 9
  20383785.443    20383787.110    -8815974.512 8  -8362022.990 8
  20974177.832    20974179.329      910754.777 9   -887529.924 7
  21148542.796    21148545.870   -13836973.052 9 -12135730.149 7
 90  3  9  5  7 14.0800000  0  4G 6G 9G11G13
  21125165.932    21125168.958     3432076.966 9   1029512.185 7
  20382350.918    20382353.430    -8823512.844 8  -8367897.035 7
  20977893.185    20977896.631      930283.018 9   -872313.111 8
  21143988.441    21143993.081   -13860904.087 9 -12154377.699 7
 90  3  9  5  7 29.0800000  0  4G 6G 9G11G13
  21131036.808    21131039.711     3462928.081 9   1053552.004 8
  20380942.424    20380945.607    -8830903.644 9  -8373656.110 7
  20981625.397    20981627.609      949896.084 8   -857030.184 8
  21139457.219    21139459.656   -13884722.354 9 -12172937.356 7
 90  3  9  5  7 44.0800000  0  4G 6G 9G11G13
  21136932.990    21136936.472     3493913.902 9   1077696.783 8
  20379566.126    20379566.881    -8838146.380 9  -8379299.787 7
  20985373.274    20985374.471      969593.706 9   -841681.387 8
  21134945.289    21134948.203   -13908427.572 9 -12191408.952 7
 90  3  9  5  7 59.0800000  0  4G 6G 9G11G13
  21142855.568    21142857.839     3525034.248 9   1101946.398 8
  20378215.920    20378218.317    -8845240.803 8  -8384827.917 6
  20989138.509    20989139.682      989375.615 9   -826266.896 8
  21130456.428    21130458.588   -13932020.074 9 -12209792.697 8
 90  3  9  5  8 14.0800000  0  4G 6G 9G11G13
  21148803.401    21148806.725     3556289.100 9   1126300.811 8
  20376894.110    20376896.754    -8852186.917 8  -8390240.458 7
  20992919.129    20992920.086     1009241.543 9   -810786.962 8
  21125988.336    21125991.300   -13955499.530 9 -12228088.357 8
 90  3  9  5  8 29.0800000  0  4G 6G 9G11G13
  21154777.526    21154780.006     3587678.181 8   1150759.818 9
  20375601.063    20375604.613    -8858984.361 8  -8395537.187 8
  20996715.874    20996716.628     1029191.155 9   -795241.793 8
  21121542.262    21121544.938   -13978866.260 9 -12246296.173 7
 90  3  9  5  8 44.0800000  0  4G 6G 9G11G13
  21160775.516    21160779.077     3619201.336 9   1175323.316 7
  20374336.150    20374337.891    -8865633.166 8  -8400718.062 7
  21000528.073    21000528.515     1049224.320 9   -779631.532 9
  21117116.993    21117120.621   -14002119.968 9 -12264415.936 7
 90  3  9  5  8 59.0800000  0  4G 6G 9G11G13
  21166800.095    21166802.749     3650858.510 8   1199991.227 8
  20373098.956    20373100.036    -8872132.967 8  -8405782.844 7
  21004355.584    21004356.221     1069340.628 9   -763956.467 8
  21112713.649    21112715.568   -14025260.812 9 -12282447.733 7
 90  3  9  5  9 14.0800000  0  4G 6G 9G11G13
  21172849.346    21172851.519     3682649.582 8   1224763.486 8
  20371891.279    20371892.034    -8878483.560 8  -8410731.353 7
  21008199.264    21008201.046     1089539.864 9   -748216.798 8
  21108331.110    21108335.460   -14048288.851 9 -12300391.643 7
 90  3  9  5  9 29.0800000  0  4G 6G 9G11G13
  21178924.078    21178927.042     3714574.189 9   1249639.790 8
  20370710.922    20370712.277    -8884684.901 8  -8415563.542 7
  21012058.109    21012060.351     1109821.719 8   -732412.760 8
  21103970.686    21103972.982   -14071204.027 9 -12318247.616 6
 90  3  9  5  9 44.0800000  0  4G 6G 9G11G13
  21185024.977    21185027.171     3746632.454 9   1274620.248 8
  20369559.753    20369560.361    -8890736.627 8  -8420279.183 8
  21015933.839    21015934.853     1130185.905 8   -716544.556 8
  21099630.716    21099635.007   -14094006.425 9 -12336015.682 7
 90  3  9  5  9 59.0800000  0  4G 6G 9G11G13
  21191150.620    21191152.455     3778824.277 9   1299704.770 8
  20368436.283    20368437.014    -8896638.722 8  -8424878.218 7
  21019823.883    21019826.068     1150632.178 9   -700612.390 7
  21095313.729    21095315.758   -14116695.653 9 -12353695.576 8
 90  3  9  5 10 14.0800000  0  4G 6G 9G11G13
  21197301.603    21197304.240     3811149.151 9   1324892.982 8
  20367340.761    20367342.277    -8902390.779 8  -8429360.322 8
  21023730.878    21023732.677     1171160.287 9   -684616.450 7
  21091017.573    21091021.264   -14139272.107 9 -12371287.587 8
 90  3  9  5 10 29.0800000  0  4G 6G 9G11G13
  21203478.583    21203480.282     3843607.091 9   1350184.872 7
  20366275.352    20366276.096    -8907992.713 9  -8433725.467 7
  21027652.073    21027654.031     1191769.905 9   -668557.014 8
  21086742.304    21086746.440   -14161735.662 9 -12388791.647 7
 90  3  9  5 10 44.0800000  0  4G 6G 9G11G13
  21209680.362    21209682.681     3876198.089 8   1375580.438 8
  20365238.202    20365239.120    -8913444.318 9  -8437973.454 7
  21031590.045    21031591.659     1212460.712 9   -652434.304 9
  21082489.282    21082493.882   -14184086.529 9 -12406207.887 7
 90  3  9  5 10 59.0800000  0  4G 6G 9G11G13
  21215907.965    21215910.162     3908921.989 9   1401079.562 7
  20364228.401    20364229.190    -8918745.658 8  -8442104.381 7
  21035542.777    21035543.890     1233232.436 9   -636248.548 8
  21078257.755    21078260.771   -14206324.855 9 -12423536.445 7
 90  3  9  5 11 14.0800000  0  4G 6G 9G11G13
  21222160.258    21222161.791     3941778.478 9   1426682.013 8
  20363248.848    20363249.776    -8923896.267 8  -8446117.838 7
  21039511.148    21039511.914     1254084.832 9   -619999.929 8
  21074047.478    21074051.191   -14228450.334 9 -12440777.060 8
 90  3  9  5 11 29.0800000  0  4G 6G 9G11G13
  21228437.858    21228439.468     3974767.390 9   1452387.642 8
  20362296.344    20362297.370    -8928896.136 8  -8450013.853 7
  21043494.222    21043495.885     1275017.783 9   -603688.546 8
  21069858.686    21069862.197   -14250463.310 9 -12457929.989 7
 90  3  9  5 11 44.0800000  0  4G 6G 9G11G13
  21234740.989    21234742.490     4007888.624 9   1478196.377 8
  20361374.209    20361375.220    -8933744.995 8  -8453792.171 7
  21047493.274    21047495.017     1296030.837 9   -587314.723 8
  21065691.521    21065695.207   -14272363.592 9 -12474995.159 7
 90  3  9  5 11 59.0800000  0  4G 6G 9G11G13
  21241069.189    21241071.302     4041142.118 9   1504108.180 8
  20360479.733    20360481.259    -8938442.704 9  -8457452.724 7
  21051506.188    21051507.829     1317123.765 9   -570878.685 9
  21061545.628    21061548.562   -14294151.154 9 -12491972.444 8
 90  3  9  5 12 14.0800000  0  4G 6G 9G11G13
  21247421.663    21247423.273     4074527.756 9   1530122.959 7
  20359615.302    20359617.344    -8942989.207 8  -8460995.457 7
  21055535.669    21055537.528     1338296.183 9   -554380.695 8
  21057420.681    21057423.775   -14315826.150 9 -12508862.043 7
 90  3  9  5 12 29.0800000  0  4G 6G 9G11G13
  21253799.991    21253802.150     4108045.180 9   1556240.413 8
  20358779.051    20358779.042    -8947384.104 8  -8464420.053 7
  21059579.719    21059581.278     1359547.844 8   -537820.944 8
  21053316.906    21053319.892   -14337388.346 9 -12525663.719 7
 90  3  9  5 12 44.0800000  0  4G 6G 9G11G13
  21260203.340    21260204.661     4141694.218 9   1582460.438 7
  20357971.516    20357972.324    -8951627.395 8  -8467726.504 8
  21063637.724    21063641.084     1380878.422 8   -521199.717 7
  21049235.810    21049238.325   -14358837.832 9 -12542377.587 6
 90  3  9  5 12 59.0800000  0  4G 6G 9G11G13
  21266632.449    21266633.604     4175474.782 9   1608782.930 8
  20357191.884    20357194.615    -8955719.016 8  -8470914.781 7
  21067711.507    21067715.766     1402287.608 9   -504517.222 9
  21045174.583    21045178.833   -14380174.763 9 -12559003.750 8
 90  3  9  5 13 14.0800000  0  4G 6G 9G11G13
  21273085.551    21273086.448     4209386.666 9   1635207.771 8
  20356442.453    20356444.178    -8959658.684 8  -8473984.639 7
  21071800.132    21071802.788     1423775.095 8   -487773.728 8
  21041136.339    21041138.734   -14401399.225 9 -12575542.282 7
 90  3  9  5 13 29.0800000  0  4G 6G 9G11G13
  21279564.962    21279564.970     4243429.899 9   1661734.953 7
  20355723.347    20355722.388    -8963446.059 8  -8476935.844 7
  21075904.782    21075908.039     1445340.755 9   -470969.329 8
  21037118.726    21037122.010   -14422511.160 9 -12591993.121 7
 90  3  9  5 13 44.0800000  0  4G 6G 9G11G13
  21286066.215    21286068.028     4277604.211 9   1688364.274 8
  20355031.973    20355031.594    -8967081.297 9  -8479768.504 8
  21080022.883    21080026.541     1466984.296 8   -454104.219 8
  21033122.224    21033125.929   -14443510.602 9 -12608356.309 7
 90  3  9  5 13 59.0800000  0  4G 6G 9G11G13
  21292594.257    21292598.010     4311909.404 9   1715095.572 8
  20354368.520    20354369.885    -8970564.019 9  -8482482.301 7
  21084157.542    21084158.092     1488705.379 9   -437178.703 8
  21029147.953    21029149.808   -14464397.623 9 -12624631.894 7
 90  3  9  5 14 14.0800000  0  4G 6G 9G11G13
  21299148.116    21299149.291     4346345.186 9   1741928.649 8
  20353734.719    20353735.587    -8973893.938 8  -8485077.048 6
  21088304.586    21088306.956     1510503.746 9   -420192.963 8
  21025194.183    21025197.100   -14485172.343 9 -12640819.974 6
 90  3  9  5 14 29.0800000  0  4G 6G 9G11G13
  21305725.430    21305726.482     4380911.533 9   1768863.446 8
  20353130.364    20353131.664    -8977071.153 9  -8487552.790 7
  21092467.762    21092470.247     1532379.039 8   -403147.280 8
  21021263.382    21021264.870   -14505834.655 9 -12656920.465 7
 90  3  9  5 14 44.0800000  0  4G 6G 9G11G13
  21312327.749    21312328.812     4415608.261 9   1795899.843 7
  20352555.459    20352554.848    -8980095.490 9  -8489909.413 7
  21096644.344    21096647.792     1554330.961 9   -386041.874 9
  21017351.757    21017354.750   -14526384.483 9 -12672933.305 6
 90  3  9  5 14 59.0800000  0  4G 6G 9G11G13
  21318955.283    21318957.265     4450435.200 9   1823037.710 8
  20352008.579    20352008.036    -8982966.811 8  -8492146.829 8
  21100837.623    21100839.270     1576359.343 9   -368876.905 8
  21013463.845    21013466.332   -14546821.978 9 -12688858.605 6
 90  3  9  5 15 14.0800000  0  4G 6G 9G11G13
  21325606.788    21325609.271     4485392.100 9   1850276.830 7
  20351490.974    20351492.031    -8985684.733 9  -8494264.677 8
  21105044.528    21105046.829     1598463.879 9   -351652.585 8
  21009596.466    21009598.798   -14567147.160 9 -12704696.396 7
 90  3  9  5 15 29.0800000  0  4G 6G 9G11G13
  21332284.227    21332285.184     4520478.856 9   1877617.155 7
  20351002.621    20351001.401    -8988249.415 9  -8496263.134 7
  21109264.598    21109267.755     1620644.247 9   -334369.176 9
  21005749.268    21005752.062   -14587360.009 9 -12720446.643 7
 90  3  9  5 15 44.0800000  0  4G 6G 9G11G13
  21338984.915    21338986.259     4555695.170 9   1905058.427 8
  20350543.475    20350545.511    -8990660.465 8  -8498141.862 6
  21113500.163    21113503.734     1642900.070 9   -317026.974 9
  21001925.675    21001927.656   -14607460.670 9 -12736109.485 7
 90  3  9  5 15 59.0800000  0  4G 6G 9G11G13
  21345710.914    21345713.623     4591040.903 9   1932600.538 8
  20350113.581    20350115.465    -8992917.715 8  -8499900.772 7
  21117749.179    21117752.789     1665231.174 9   -299626.119 8
  20998120.827    20998124.807   -14627448.889 9 -12751684.689 7
 90  3  9  5 16 14.0800000  0  4G 6G 9G11G13
  21352461.939    21352463.515     4626516.076 9   1960243.525 7
  20349713.682    20349715.979    -8995021.129 7  -8501539.784 7
  21122012.358    21122016.393     1687637.236 8   -282166.840 9
  20994338.291    20994342.096   -14647324.915 9 -12767172.493 7
 90  3  9  5 16 29.0800000  0  4G 6G 9G11G13
  21359236.961    21359238.917     4662120.422 9   1987987.142 8
  20349342.289    20349343.910    -8996970.850 8  -8503059.026 8
  21126290.147    21126293.550     1710117.967 9   -264649.396 9
  20990578.059    20990580.877   -14667088.945 9 -12782573.016 7
 90  3  9  5 16 44.0800000  0  4G 6G 9G11G13
  21366036.563    21366038.868     4697853.636 9   2015831.191 8
  20349000.091    20349002.112    -8998766.268 7  -8504458.059 7
  21130581.837    21130586.106     1732673.198 9   -247073.878 8
  20986837.517    20986839.779   -14686740.869 9 -12797886.191 7
 90  3  9  5 16 59.0800000  0  4G 6G 9G11G13
  21372861.081    21372863.014     4733715.510 9   2043775.504 8
  20348688.949    20348689.903    -9000407.332 8  -8505736.820 7
  21134887.429    21134892.203     1755302.494 7   -229440.655 8
  20983119.089    20983123.075   -14706280.896 9 -12813112.177 7
 90  3  9  5 17 14.0800000  0  4G 6G 9G11G13
  21379709.185    21379712.669     4769706.028 9   2071820.050 7
  20348407.274    20348407.942    -9001894.167 8  -8506895.395 7
  21139208.363    21139212.524     1778005.579 9   -211749.934 8
  20979422.189    20979425.395   -14725709.160 9 -12828251.066 7
 90  3  9  5 17 29.0800000  0  4G 6G 9G11G13
  21386582.520    21386584.321     4805825.002 9   2099964.698 8
  20348153.112    20348152.789    -9003226.632 7  -8507933.665 7
  21143542.774    21143546.465     1800782.284 8   -194001.854 8
  20975746.212    20975749.566   -14745025.443 9 -12843302.701 6
 90  3  9  5 17 44.0800000  0  4G 6G 9G11G13
  21393480.051    21393481.575     4842072.038 9   2128209.123 7
  20347927.495    20347928.246    -9004404.379 8  -8508851.405 8
  21147891.880    21147894.167     1823632.265 9   -176196.664 9
  20972093.031    20972094.582   -14764229.815 9 -12858267.135 7
 90  3  9  5 17 59.0800000  0  4G 6G 9G11G13
  21400401.033    21400404.110     4878446.967 9   2156553.218 7
  20347734.293    20347735.031    -9005426.977 8  -8509648.215 7
  21152253.666    21152256.412     1846555.238 9   -158334.600 8
  20968459.485    20968461.102   -14783322.256 9 -12873144.343 7
 90  3  9  5 18 14.0800000  0  4G 6G 9G11G13
  21407348.289    21407351.830     4914949.806 9   2184996.963 8
  20347569.060    20347569.368    -9006294.756 9  -8510324.417 7
  21156631.595    21156632.849     1869550.973 9   -140415.853 8
  20964847.728    20964850.114   -14802303.011 9 -12887934.526 6
 90  3  9  5 18 29.0800000  0  4G 6G 9G11G13
  21414317.890    21414320.635     4951580.250 9   2213540.164 8
  20347430.803    20347432.041    -9007007.372 8  -8510879.702 7
  21161019.969    21161022.683     1892619.153 9   -122440.638 9
  20961257.971    20961258.654   -14821171.878 9 -12902637.528 7
 90  3  9  5 18 44.0800000  0  4G 6G 9G11G13
  21421313.241    21421316.142     4988338.073 9   2242182.607 8
  20347325.287    20347327.261    -9007564.632 7  -8511313.917 6
  21165424.077    21165425.850     1915759.493 9   -104409.203 8
  20957687.799    20957690.322   -14839929.091 9 -12917253.534 8
 90  3  9  5 18 59.0800000  0  4G 6G 9G11G13
  21428333.008    21428336.002     5025223.117 9   2270924.196 7
  20347248.631    20347250.680    -9007967.022 7  -8511627.466 7
  21169841.028    21169842.531     1938971.728 9    -86321.749 8
  20954139.273    20954141.534   -14858574.473 9 -12931782.378 7
 90  3  9  5 19 14.0800000  0  4G 6G 9G11G13
  21435376.807    21435378.392     5062235.187 8   2299764.749 8
  20347204.194    20347204.813    -9008213.982 8  -8511819.917 7
  21174271.310    21174273.913     1962255.510 9    -68178.544 9
  20950611.979    20950614.216   -14877108.422 9 -12946224.409 7
 90  3  9  5 19 29.0800000  0  4G 6G 9G11G13
  21442443.972    21442445.719     5099373.901 9   2328704.009 7
  20347185.812    20347189.502    -9008305.200 8  -8511890.991 7
  21178715.061    21178718.149     1985610.572 9    -49979.799 9
  20947105.556    20947108.397   -14895531.268 9 -12960579.858 7
 90  3  9  5 19 44.0800000  0  4G 6G 9G11G13
  21449536.374    21449536.233     5136639.200 9   2357741.885 7
  20347197.866    20347200.946    -9008240.951 9  -8511840.918 7
  21183174.007    21183174.492     2009036.609 9    -31725.748 8
  20943620.953    20943624.349   -14913842.905 9 -12974848.635 7
 90  3  9  5 19 59.0800000  0  4G 6G 9G11G13
  21456652.078    21456651.690     5174031.175 9   2386878.479 8
  20347240.135    20347243.397    -9008019.980 8  -8511668.748 7
  21187644.514    21187646.571     2032533.569 9    -13416.429 9
  20940158.303    20940161.490   -14932042.761 9 -12989030.335 7
 90  3  9  5 20 14.0800000  0  4G 6G 9G11G13
  21463790.410    21463792.269     5211549.319 9   2416113.389 8
  20347311.814    20347315.364    -9007643.666 8  -8511375.526 7
  21192129.062    21192131.188     2056100.964 9      4947.780 8
  20936716.193    20936717.630   -14950131.063 9 -13003125.110 7
 90  3  9  5 20 29.0800000  0  4G 6G 9G11G13
  21470953.958    21470954.638     5249193.355 9   2445446.387 8
  20347412.893    20347414.326    -9007111.336 9  -8510960.712 8
  21196627.268    21196629.139     2079738.491 9     23366.631 7
  20933295.424    20933296.776   -14968108.009 9 -13017133.091 8
 90  3  9  5 20 44.0800000  0  4G 6G 9G11G13
  21478141.685    21478142.528     5286963.334 9   2474877.516 7
  20347545.376    20347544.398    -9006422.741 8  -8510424.138 8
  21201138.799    21201140.054     2103445.812 9     41839.883 8
  20929896.443    20929897.523   -14985973.717 9 -13031054.419 7
 90  3  9  5 20 59.0800000  0  4G 6G 9G11G13
  21485352.545    21485354.201     5324858.794 9   2504406.431 8
  20347705.112    20347706.223    -9005577.816 8  -8509765.753 7
  21205662.853    21205665.858     2127222.674 9     60367.308 8
  20926516.603    20926520.031   -15003728.391 9 -13044889.217 7
 90  3  9  5 21 14.0800000  0  3G 6G11G13
  21492588.290    21492589.057     5362879.705 8   2534033.092 8
  21210201.068    21210202.933     2151068.814 9     78948.720 8
  20923160.934    20923161.836   -15021371.913 9 -13058637.405 7
 90  3  9  5 21 29.0800000  0  4G 6G12G11G13
  21499846.999    21499848.170     5401025.781 9   2563757.296 8
                  22055037.624   -35915935.389 9
  21214751.967    21214754.099     2174983.951 9     97583.896 9
  20919822.571    20919825.328   -15038904.316 9 -13072299.005 7
 90  3  9  5 21 44.0800000  0  4G 6G12G11G13
  21507130.179    21507131.219     5439296.890 9   2593578.923 8
  22047127.437    22047129.511   -35957681.223 9  45660754.309 8
  21219315.508    21219318.737     2198967.802 9    116272.619 8
  20916506.826    20916510.146   -15056325.710 9 -13085874.094 7
 90  3  9  5 21 59.0800000  0  4G 6G12G11G13
  21514435.909    21514437.637     5477692.752 9   2623497.770 9
  22039195.765    22039200.343   -35999355.747 9  45628280.163 8
  21223893.485    21223895.754     2223020.209 9    135014.748 9
  20913213.818    20913216.918   -15073636.201 9 -13099362.774 7
 90  3  9  5 22 14.0800000  0  4G 6G12G11G13
  21521766.251    21521768.580     5516212.973 9   2653513.525 8
  22031279.763    22031283.955   -36040958.875 9  45595862.168 9
  21228483.429    21228486.004     2247140.805 9    153810.016 8
  20909939.928    20909943.019   -15090836.120 9 -13112765.289 7
 90  3  9  5 22 29.0800000  0  4G 6G12G11G13
  21529119.802    21529121.273     5554857.699 9   2683626.281 8
  22023375.015    22023380.059   -36082490.192 9  45563500.114 8
  21233086.734    21233089.639     2271329.354 9    172658.231 8
  20906687.632    20906691.596   -15107925.277 9 -13126081.502 7
 90  3  9  5 22 44.0800000  0  4G 6G12G11G13
  21536497.508    21536499.522     5593626.490 9   2713835.713 7
  22015487.158    22015491.079   -36123949.471 9  45531194.213 9
  21237701.662    21237703.664     2295585.556 9    191559.170 8
  20903458.030    20903460.802   -15124903.714 8 -13139311.437 7
 90  3  9  5 22 59.0800000  0  4G 6G12G11G13
  21543897.593    21543900.153     5632519.218 9   2744141.717 7
  22007611.008    22007615.000   -36165336.309 9  45498944.741 8
  21242329.565    21242332.312     2319909.104 9    210512.582 9
  20900248.160    20900251.559   -15141771.447 9 -13152455.111 8
 90  3  9  5 23 14.0800000  0  4G 6G12G11G13
  21551322.462    21551324.476     5671535.653 9   2774544.135 8
  21999749.402    21999752.915   -36206650.314 9  45466752.039 8
  21246971.379    21246974.154     2344299.651 9    229518.221 9
  20897059.862    20897062.540   -15158528.491 9 -13165512.525 8
 90  3  9  5 23 29.0800000  0  4G 6G12G11G13
  21558771.656    21558772.841     5710675.606 9   2805042.798 9
  21991901.855    21991905.868   -36247891.028 8  45434616.423 9
  21251626.443    21251627.474     2368756.918 9    248575.826 8
  20893891.703    20893893.538   -15175175.002 9 -13178483.805 8
 90  3  9  5 23 44.0800000  0  4G 6G12G11G13
  21566241.885    21566245.301     5749938.720 9   2835637.406 7
  21984068.388    21984071.723   -36289058.312 9  45402538.046 9
  21256291.841    21256294.614     2393280.610 9    267685.207 8
  20890746.310    20890748.218   -15191711.062 8 -13191369.024 7
 90  3  9  5 23 59.0800000  0  4G 6G12G11G13
  21573737.355    21573738.468     5789324.771 9   2866327.828 7
  21976247.570    21976252.084   -36330151.676 9  45370517.266 9
  21260970.814    21260972.697     2417870.523 9    286846.170 8
  20887619.763    20887621.076   -15208136.892 9 -13204168.347 7
 90  3  9  5 24 14.0800000  0  4G 6G12G11G13
  21581254.947    21581258.165     5828833.728 9   2897114.017 9
  21968443.187    21968446.386   -36371170.839 9  45338554.308 8
  21265663.045    21265665.332     2442526.379 9    306058.535 9
  20884515.424    20884515.950   -15224452.678 9 -13216881.939 7
 90  3  9  5 24 29.0800000  0  4G 6G12G11G13
  21588797.639    21588799.652     5868465.201 9   2927995.671 9
  21960650.938    21960654.751   -36412115.300 9  45306649.537 9
  21270367.711    21270371.138     2467247.827 9    325321.992 8
  20881430.803    20881433.053   -15240658.086 9 -13229509.507 7
 90  3  9  5 24 44.0800000  0  4G 6G12G11G13
  21596361.820    21596364.994     5908219.067 9   2958972.695 8
  21952873.385    21952877.971   -36452984.858 9  45274803.171 9
  21275083.458    21275088.138     2492034.582 9    344636.352 9
  20878366.800    20878371.042   -15256753.338 8 -13242051.253 7
 90  3  9  5 24 59.0800000  0  4G 6G12G11G13
  21603951.102    21603952.601     5948095.122 9   2990044.939 8
  21945112.072    21945113.517   -36493779.041 9  45243015.527 9
  21279813.145    21279815.856     2516886.363 9    364001.377 9
  20875325.315    20875328.171   -15272738.522 9 -13254507.217 8
 90  3  9  5 25 14.0800000  0  4G 6G12G11G13
  21611562.106    21611562.573     5988093.053 8   3021212.144 8
  21937362.929    21937364.997   -36534497.477 9  45211286.863 9
  21284555.443    21284558.044     2541802.889 9    383416.845 9
  20872303.135    20872308.562   -15288613.735 9 -13266877.508 7
 90  3  9  5 25 29.0800000  0  4G 6G12G11G13
  21619196.832    21619198.173     6028212.694 9   3052474.189 7
  21929630.471    21929632.676   -36575139.826 9  45179617.545 8
  21289309.199    21289312.234     2566783.878 9    402882.556 8
  20869303.291    20869306.990   -15304379.066 9 -13279162.152 8
 90  3  9  5 25 44.0800000  0  4G 6G12G11G13
  21626853.366    21626855.752     6068453.701 9   3083830.813 7
  21921911.764    21921912.194   -36615705.684 9  45148007.778 9
  21294074.886    21294077.074     2591829.041 9    422398.260 8
  20866323.969    20866327.190   -15320034.547 9 -13291361.214 8
 90  3  9  5 25 59.0800000  0  4G 6G12G11G13
  21634534.971    21634538.558     6108815.887 9   3115281.843 7
  21914203.731    21914206.729   -36656194.776 9  45116457.851 8
  21298852.371    21298854.411     2616938.124 9    441963.783 7
  20863365.698    20863370.072   -15335580.140 9 -13303474.662 7
 90  3  9  5 26 14.0800000  0  4G 6G12G11G13
  21642238.096    21642240.267     6149299.110 9   3146827.205 8
  21906516.569    21906517.507   -36696606.653 9  45084968.083 9
  21303643.436    21303645.423     2642110.850 9    461578.897 8
  20860428.635    20860431.662   -15351016.154 8 -13315502.691 8
 90  3  9  5 26 29.0800000  0  4G 6G12G11G13
  21649965.347    21649966.315     6189903.069 9   3178466.637 8
  21898839.101    21898842.643   -36736940.995 9  45053538.746 9
  21308445.132    21308447.427     2667346.926 9    481243.369 9
  20857513.519    20857514.033   -15366342.750 8 -13327445.488 7
 90  3  9  5 26 44.0800000  0  4G 6G12G11G13
  21657713.803    21657717.048     6230627.461 9   3210199.922 8
  21891179.770    21891180.908   -36777197.390 9  45022170.142 8
  21313260.021    21313261.331     2692646.029 9    500956.972 8
  20854617.409    20854619.730   -15381559.988 9 -13339303.069 6
 90  3  9  5 26 59.0800000  0  4G 6G12G11G13
  21665487.387    21665488.500     6271472.238 9   3242027.002 8
  21883532.902    21883537.302   -36817375.528 9  44990862.489 7
  21318086.234    21318088.961     2718007.925 8    520719.492 8
  20851742.246    20851744.969   -15396667.750 8 -13351075.346 8
 90  3  9  5 27 14.0800000  0  4G 6G12G11G13
  21673282.464    21673284.921     6312437.015 9   3273947.594 8
  21875902.018    21875905.796   -36857475.001 9  44959616.187 9
  21322924.047    21322926.550     2743432.282 9    540530.689 9
  20848887.758    20848892.127   -15411666.378 9 -13362762.562 7
 90  3  9  5 27 29.0800000  0  4G 6G12G11G13
  21681101.578    21681101.947     6353521.544 9   3305961.509 8
  21868286.996    21868288.876   -36897495.455 9  44928431.421 8
  21327773.964    21327776.525     2768918.918 9    560390.405 9
  20846054.676    20846058.985   -15426555.795 9 -13374364.692 7
 90  3  9  5 27 44.0800000  0  4G 6G12G11G13
  21688942.701    21688944.028     6394725.637 9   3338068.582 8
  21860685.109    21860689.216   -36937436.483 8  44897308.556 9
  21332636.089    21332638.670     2794467.524 8    580298.410 7
  20843241.296    20843245.509   -15441336.026 8 -13385881.735 8
 90  3  9  5 27 59.0800000  0  4G 6G12G11G13
  21696805.661    21696807.030     6436049.072 9   3370268.654 8
  21853101.888    21853103.434   -36977297.750 9  44866247.846 9
  21337508.985    21337511.913     2820077.751 9    600254.431 8
  20840450.120    20840454.431   -15456007.251 9 -13397313.848 8
 90  3  9  5 28 14.0800000  0  4G 6G12G11G13
  21704691.628    21704693.457     6477491.560 9   3402561.491 7
  21845528.920    21845532.998   -37017078.867 9  44835249.579 9
  21342394.115    21342397.603     2845749.408 9    620258.333 8
  20837677.893    20837682.483   -15470569.604 9 -13408661.106 7
 90  3  9  5 28 29.0800000  0  4G 6G12G11G13
  21712601.435    21712601.373     6519052.887 9   3434946.928 8
  21837974.697    21837978.761   -37056779.556 9  44804314.013 8
  21347292.070    21347294.364     2871482.142 9    640309.812 8
  20834928.054    20834930.494   -15485023.032 9 -13419923.506 9
 90  3  9  5 28 44.0800000  0  4G 6G12G11G13
  21720532.650    21720534.906     6560732.830 9   3467424.799 8
  21830436.071    21830439.441   -37096399.407 9  44773441.413 9
  21352199.078    21352201.784     2897275.649 9    660408.646 8
  20832197.994    20832202.753   -15499367.758 9 -13431101.202 7
 90  3  9  5 28 59.0800000  0  4G 6G12G11G13
  21728485.097    21728487.528     6602531.078 9   3499994.847 8
  21822910.089    21822913.393   -37135938.087 9  44742632.077 8
  21357118.593    21357121.407     2923129.674 9    680554.643 8
  20829488.762    20829492.998   -15513603.896 9 -13442194.283 8
 90  3  9  5 29 14.0800000  0  4G 6G12G11G13
  21736461.413    21736464.430     6644447.501 9   3532656.968 8
  21815405.319    21815406.069   -37175395.200 9  44711886.289 9
  21362050.602    21362051.885     2949043.963 9    700747.597 8
  20826800.465    20826803.739   -15527731.560 9 -13453202.826 7
 90  3  9  5 29 29.0800000  0  4G 6G12G11G13
  21744460.023    21744463.412     6686481.751 9   3565410.912 8
  21807910.943    21807913.863   -37214770.429 9  44681204.289 9
  21366992.942    21366994.820     2975018.220 9    720987.284 7
  20824132.929    20824136.697   -15541750.930 9 -13464126.991 7
 90  3  9  5 29 44.0800000  0  4G 6G12G11G13
  21752481.872    21752484.788     6728633.649 9   3598256.530 8
  21800434.670    21800435.593   -37254063.523 9  44650586.328 8
  21371946.419    21371950.020     3001052.215 9    741273.505 8
  20821487.088    20821488.441   -15555661.753 9 -13474966.582 6
 90  3  9  5 29 59.0800000  0  4G 6G12G11G13
  21760526.242    21760527.069     6770902.851 9   3631193.564 7
  21792973.879    21792973.664   -37293273.963 9  44620032.738 8
  21376912.349    21376915.220     3027145.775 9    761606.153 8
  20818860.157    20818862.186   -15569464.244 9 -13485721.754 7
 90  3  9  5 30 14.0800000  0  4G 6G12G11G13
  21768590.790    21768593.776     6813289.209 9   3664221.880 8
  21785528.169    21785528.264   -37332401.429 9  44589543.814 8
  21381889.227    21381892.165     3053298.482 8    781984.889 8
  20816255.054    20816255.699   -15583158.586 9 -13496392.656 7
 90  3  9  5 30 29.0800000  0  4G 6G12G11G13
  21776678.974    21776681.805     6855792.384 9   3697341.222 9
  21778098.823    21778098.330   -37371445.478 9  44559119.884 9
  21386877.664    21386880.021     3079510.065 9    802409.507 9
  20813668.899    20813672.814   -15596744.713 9 -13506979.247 7
 90  3  9  5 30 44.0800000  0  4G 6G12G11G13
  21784790.026    21784791.355     6898412.107 9   3730551.388 8
  21770683.728    21770686.104   -37410405.861 9  44528761.135 8
  21391876.906    21391878.801     3105780.264 9    822879.793 8
  20811103.459    20811106.650   -15610222.842 9 -13517481.671 7
 90  3  9  5 30 59.0800000  0  4G 6G12G11G13
  21792921.798    21792923.198     6941148.238 9   3763852.258 8
  21763288.159    21763288.208   -37449282.212 9  44498467.898 9
  21396886.720    21396889.383     3132108.647 9    843395.420 8
  20808559.361    20808563.378   -15623593.038 9 -13527899.996 7
 90  3  9  5 31 14.0800000  0  4G 6G12G11G13
  21801075.205    21801080.153     6984000.473 9   3797243.588 8
  21755904.101    21755905.152   -37488074.130 9  44468240.439 8
  21401907.247    21401910.132     3158495.058 9    863956.262 8
  20806037.511    20806040.231   -15636855.483 9 -13538234.363 8
 90  3  9  5 31 29.0800000  0  4G 6G12G11G13
  21809254.311    21809254.236     7026968.480 9   3830725.147 9
  21748538.509    21748540.870   -37526781.351 9  44438078.967 9
  21406938.766    21406941.916     3184939.184 9    884562.070 9
  20803534.024    20803535.677   -15650010.271 9 -13548484.818 8
 90  3  9  5 31 44.0800000  0  4G 6G12G11G13
  21817450.789    21817454.634     7070052.141 9   3864296.806 8
  21741189.652    21741191.196   -37565403.416 9  44407983.865 9
  21411983.419    21411984.335     3211440.799 9    905212.678 7
  20801050.439    20801054.525   -15663057.543 8 -13558651.509 8
 90  3  9  5 31 59.0800000  0  4G 6G12G11G13
  21825673.081    21825675.352     7113251.038 9   3897958.292 9
  21733855.233    21733855.954   -37603939.917 9  44377955.444 8
  21417037.025    21417038.731     3237999.689 8    925907.921 8
  20798588.283    20798591.023   -15675997.290 9 -13568734.400 8
 90  3  9  5 32 14.0800000  0  4G 6G12G11G13
  21833914.831    21833916.946     7156565.105 9   3931709.499 8
  21726538.584    21726540.673   -37642390.462 9  44347993.987 8
  21422101.643    21422103.921     3264615.529 9    946647.548 9
  20796146.076    20796148.751   -15688829.575 9 -13578733.573 7
 90  3  9  5 32 29.0800000  0  4G 6G12G11G13
  21842179.163    21842181.550     7199993.813 9   3965550.039 8
  21719238.758    21719239.295   -37680754.825 9  44318099.706 9
  21427177.557    21427179.097     3291287.879 9    967431.191 8
  20793724.781    20793726.460   -15701554.725 9 -13588649.265 7
 90  3  9  5 32 44.0800000  0  4G 6G12G11G13
  21850465.760    21850467.788     7243537.166 9   3999479.908 9
  21711955.737    21711955.537   -37719032.569 9  44288272.898 8
  21432263.251    21432264.176     3318016.585 9    988258.762 8
  20791321.833    20791325.955   -15714172.885 9 -13598481.569 8
 90  3  9  5 32 59.0800000  0  4G 6G12G11G13
  21858772.791    21858776.651     7287194.788 9   4033498.826 9
  21704685.817    21704688.800   -37757223.262 9  44258513.915 8
  21437359.116    21437362.509     3344801.362 8   1009130.024 8
  20788942.088    20788944.578   -15726683.937 9 -13608230.424 7
 90  3  9  5 33 14.0800000  0  4G 6G12G11G13
  21867100.683    21867104.859     7330966.423 9   4067606.583 8
  21697436.865    21697436.200   -37795326.610 9  44228823.016 9
  21442466.590    21442470.229     3371641.892 9   1030044.710 8
  20786581.304    20786585.977   -15739088.005 8 -13617895.915 7
 90  3  9  5 33 29.0800000  0  4G 6G12G11G13
  21875452.531    21875455.819     7374851.854 9   4101802.995 9
  21690201.646    21690202.246   -37833342.178 9  44199200.496 8
  21447584.722    21447588.563     3398537.885 9   1051002.631 8
  20784241.398    20784246.750   -15751385.189 9 -13627478.123 8
 90  3  9  5 33 44.0800000  0  4G 6G12G11G13
  21883826.384    21883828.556     7418850.693 9   4136087.787 7
  21682985.312    21682985.097   -37871269.658 9  44169646.624 8
  21452714.429    21452717.522     3425489.124 9   1072003.591 7
  20781922.569    20781926.436   -15763575.791 9 -13636977.277 8
 90  3  9  5 33 59.0800000  0  4G 6G12G11G13
  21892221.102    21892223.673     7462962.787 9   4170460.832 9
  21675783.052    21675784.899   -37909108.634 9  44140161.706 9
  21457853.076    21457856.833     3452495.322 9   1093047.392 8
  20779623.261    20779626.548   -15775659.762 9 -13646393.345 7
 90  3  9  5 34 14.0800000  0  4G 6G12G11G13
  21900635.565    21900639.554     7507187.852 9   4204921.905 9
  21668599.602    21668600.189   -37946858.878 9  44110745.949 8
  21463002.725    21463006.632     3479556.180 9   1114133.780 8
  20777343.954    20777347.475   -15787637.359 8 -13655726.526 8
 90  3  9  5 34 29.0800000  0  4G 6G12G11G13
  21909073.812    21909077.185     7551525.541 9   4239470.725 9
  21661433.617    21661435.035   -37984520.062 9  44081399.576 8
  21468162.917    21468165.092     3506671.485 9   1135262.581 8
  20775085.013    20775087.563   -15799508.623 9 -13664976.842 8
 90  3  9  5 34 44.0800000  0  4G 6G12G11G13
  21917532.176    21917534.303     7595975.688 9   4274107.203 8
  21654283.479    21654285.374   -38022091.821 9  44052122.886 8
  21473332.176    21473336.120     3533840.956 9   1156433.604 8
  20772845.735    20772848.418   -15811273.754 8 -13674144.469 7
 90  3  9  5 34 59.0800000  0  4G 6G12G11G13
  21926011.947    21926013.417     7640537.910 9   4308830.999 9
  21647151.012    21647152.414   -38059573.821 9  44022916.145 9
  21478513.889    21478515.182     3561064.276 9   1177646.584 8
  20770627.246    20770629.689   -15822932.762 9 -13683229.398 7
 90  3  9  5 35 14.0800000  0  4G 6G12G11G13
  21934513.810    21934515.939     7685211.997 8   4343641.952 8
  21640036.539    21640035.759   -38096965.570 9  43993779.727 9
  21483705.821    21483706.964     3588341.244 9   1198901.360 9
  20768427.808    20768431.022   -15834485.748 9 -13692231.718 7
 90  3  9  5 35 29.0800000  0  4G 6G12G11G13
  21943036.623    21943038.480     7729997.712 9   4378539.902 8
  21632935.903    21632939.316   -38134266.682 9  43964713.924 9
  21488906.098    21488905.881     3615671.608 9   1220197.751 9
  20766249.866    20766253.577   -15845932.929 9 -13701151.583 7
 90  3  9  5 35 44.0800000  0  4G 6G12G11G13
  21951579.928    21951580.495     7774894.761 9   4413524.611 8
  21625857.519    21625857.533   -38171476.861 9  43935719.013 9
  21494116.104    21494118.570     3643054.979 9   1241535.435 8
  20764091.451    20764094.918   -15857274.353 9 -13709989.036 7
 90  3  9  5 35 59.0800000  0  4G 6G12G11G13
  21960144.665    21960146.723     7819902.812 9   4448595.804 9
  21618792.420    21618795.060   -38208595.758 9  43906795.196 9
  21499336.365    21499338.846     3670491.069 9   1262914.203 7
  20761953.903    20761957.514   -15868510.111 8 -13718744.165 7
 90  3  9  5 36 14.0800000  0  4G 6G12G11G13
  21968731.039    21968733.998     7865021.691 9   4483753.357 7
  21611746.687    21611747.346   -38245623.067 9  43877942.757 9
  21504567.375    21504568.989     3697979.672 9   1284333.892 8
  20759835.757    20759838.900   -15879640.282 9 -13727416.995 7
 90  3  9  5 36 29.0800000  0  4G 6G12G11G13
  21977337.762    21977338.875     7910251.033 9   4518996.988 9
  21604717.490    21604720.360   -38282558.403 9  43849161.984 9
  21509807.958    21509811.315     3725520.428 9   1305794.214 8
  20757738.540    20757739.055   -15890664.908 9 -13736007.599 7
 90  3  9  5 36 44.0800000  0  4G 6G12G11G13
  21985965.490    21985966.516     7955590.556 9   4554326.482 8
  21597706.510    21597708.061   -38319401.453 9  43820453.124 9
  21515058.177    21515061.351     3753113.123 9   1327295.011 8
  20755660.085    20755662.921   -15901584.424 9 -13744516.300 8
 90  3  9  5 36 59.0800000  0  4G 6G12G11G13
  21994612.794    21994615.423     8001040.027 9   4589741.639 8
  21590713.644    21590716.063   -38356151.752 9  43791816.546 8
  21520319.438    21520323.021     3780757.457 9   1348836.052 8
  20753601.912    20753603.410   -15912398.885 9 -13752943.146 8
 90  3  9  5 37 14.0800000  0  4G 6G12G11G13
  22003282.876    22003285.407     8046599.200 9   4625242.289 9
  21583736.031    21583738.865   -38392808.917 9  43763252.527 8
  21525590.990    21525593.075     3808453.192 9   1370417.148 9
  20751564.183    20751566.941   -15923108.395 9 -13761288.207 8
 90  3  9  5 37 29.0800000  0  4G 6G12G11G13
  22011972.277    22011976.052     8092267.730 9   4660828.134 8
  21576779.296    21576781.364   -38429372.666 9  43734761.296 8
  21530870.996    21530873.561     3836200.036 9   1392038.071 9
  20749546.358    20749548.741   -15933713.159 9 -13769551.637 8
 90  3  9  5 37 44.0800000  0  4G 6G12G11G13
  22020683.885    22020686.343     8138045.324 9   4696498.973 8
  21569838.480    21569842.929   -38465842.580 9  43706343.182 8
  21536160.050    21536164.013     3863997.738 9   1413698.606 9
  20747548.381    20747549.879   -15944213.184 9 -13777733.469 8
 90  3  9  5 37 59.0800000  0  4G 6G12G11G13
  22029416.671    22029418.239     8183931.768 9   4732254.635 7
  21562917.424    21562920.623   -38502218.354 9  43677998.447 8
  21541459.689    21541462.016     3891845.932 8   1435398.499 8
  20745570.958    20745572.953   -15954608.638 9 -13785833.789 7
 90  3  9  5 38 14.0800000  0  4G 6G12G11G13
  22038168.746    22038171.103     8229926.674 8   4768094.822 8
  21556012.939    21556016.021   -38538499.581 9  43649727.359 8
  21546768.007    21546770.211     3919744.420 9   1457137.581 8
  20743611.632    20743615.186   -15964899.497 9 -13793852.633 7
 90  3  9  5 38 29.0800000  0  4G 6G12G11G13
  22046942.829    22046945.443     8276029.812 8   4804019.321 8
  21549127.048    21549131.105   -38574685.956 9  43621530.197 8
  21552087.185    21552090.248     3947692.958 8   1478915.671 8
  20741673.668    20741676.023   -15975086.066 9 -13801790.195 9
 90  3  9  5 38 44.0800000  0  4G 6G12G11G13
  22055735.684    22055737.727     8322240.913 8   4840027.977 8
  21542258.851    21542261.442   -38610777.103 9  43593407.241 8
  21557413.623    21557417.370     3975691.162 9   1500732.451 8
  20739753.786    20739756.119   -15985168.327 8 -13809646.487 8
 90  3  9  5 38 59.0800000  0  4G 6G12G11G13
  22064550.060    22064552.447     8368559.771 8   4876120.563 8
  21535408.892    21535412.153   -38646772.669 9  43565358.755 9
  21562750.745    21562753.629     4003738.894 9   1522587.821 9
  20737854.806    20737856.881   -15995146.441 9 -13817421.634 9
 90  3  9  5 39 14.0800000  0  4G 6G12G11G13
  22073382.954    22073386.342     8414985.912 9   4912296.786 8
  21528578.321    21528580.824   -38682672.308 9  43537385.015 9
  21568097.707    21568100.917     4031835.865 8   1544481.562 9
  20735976.658    20735978.363   -16005020.525 9 -13825115.715 7
 90  3  9  5 39 29.0800000  0  4G 6G12G11G13
  22082239.401    22082241.173     8461519.214 9   4948556.473 9
  21521764.934    21521767.395   -38718475.636 9  43509486.333 9
  21573453.717    21573457.407     4059981.908 9   1566413.550 9
  20734117.897    20734119.206   -16014790.711 9 -13832728.839 8
 90  3  9  5 39 44.0800000  0  4G 6G12G11G13
  22091115.307    22091117.263     8508159.294 9   4984899.391 8
  21514970.988    21514973.041   -38754182.264 9  43481662.997 8
  21578820.670    21578822.531     4088176.743 9   1588383.539 9
  20732277.142    20732279.046   -16024457.191 9 -13840261.167 7
 90  3  9  5 39 59.0800000  0  4G 6G12G11G13
  22100008.299    22100012.016     8554905.862 9   5021325.268 8
  21508192.788    21508197.746   -38789791.974 9  43453915.180 8
  21584195.839    21584197.773     4116419.885 9   1610391.201 9
  20730458.037    20730459.481   -16034020.082 9 -13847712.753 7
 90  3  9  5 40 14.0800000  0  4G 6G12G11G13
  22108925.330    22108927.458     8601758.633 8   5057833.906 8
  21501435.752    21501438.821   -38825304.286 9  43426243.258 9
  21589579.562    21589580.791     4144711.078 9   1632436.273 8
  20728656.645    20728660.199   -16043479.467 9 -13855083.696 7
 90  3  9  5 40 29.0800000  0  4G 6G12G11G13
  22117862.279    22117865.738     8648717.307 9   5094425.068 8
  21494697.274    21494700.070   -38860718.744 9  43398647.589 8
  21594971.820    21594974.168     4173050.124 9   1654518.654 9
  20726877.377    20726879.454   -16052835.613 9 -13862374.188 8
 90  3  9  5 40 44.0800000  0  4G 6G12G11G13
  22126817.802    22126819.974     8695781.601 9   5131098.530 7
  21487976.820    21487980.283   -38896035.150 9  43371128.320 9
  21600372.907    21600375.245     4201436.791 9   1676638.128 8
  20725115.912    20725120.115   -16062088.472 9 -13869584.206 7
 90  3  9  5 40 59.0800000  0  4G 6G12G11G13
  22135792.958    22135795.143     8742951.241 9   5167854.084 8
  21481274.381    21481277.257   -38931253.203 9  43343685.698 9
  21605784.039    21605785.687     4229870.734 9   1698794.452 8
  20723375.894    20723378.262   -16071238.398 9 -13876714.008 8
 90  3  9  5 41 14.0800000  0  4G 6G12G11G13
  22144791.895    22144791.375     8790225.959 9   5204691.526 8
  21474592.016    21474593.460   -38966372.590 9  43316319.946 8
  21611202.695    21611205.358     4258351.726 9   1720987.421 8
  20721654.040    20721657.272   -16080285.636 9 -13883763.793 8
 90  3  9  5 41 29.0800000  0  4G 6G12G11G13
  22153808.002    22153809.330     8837605.340 9   5241610.508 8
  21467925.973    21467930.651   -39001392.904 9  43289031.397 8
  21616631.587    21616634.051     4286879.488 9   1743216.850 8
  20719950.849    20719953.832   -16089230.148 9 -13890733.532 7
 90  3  9  5 41 44.0800000  0  4G 6G12G11G13
  22162841.196    22162845.228     8885089.260 9   5278610.946 8
  21461282.643    21461284.640   -39036313.678 9  43261820.418 9
  21622068.988    21622070.703     4315453.831 9   1765482.577 9
  20718268.758    20718272.635   -16098072.177 9 -13897623.409 7
 90  3  9  5 41 59.0800000  0  4G 6G12G11G13
  22171897.655    22171901.058     8932677.268 8   5315692.496 8
  21454656.559    21454658.126   -39071134.559 9  43234687.265 8
  21627515.385    21627517.394     4344074.525 9   1787784.407 9
  20716606.201    20716609.558   -16106811.646 9 -13904433.373 8
 90  3  9  5 42 14.0800000  0  4G 6G12G11G13
  22180974.463    22180977.179     8980369.043 9   5352854.913 8
  21448047.837    21448050.756   -39105855.286 9  43207632.172 8
  21632970.736    21632972.662     4372741.198 9   1810122.074 9
  20714962.193    20714965.739   -16115448.689 9 -13911163.537 8
 90  3  9  5 42 29.0800000  0  4G 6G12G11G13
  22190068.442    22190070.785     9028164.428 9   5390098.070 7
  21441462.647    21441462.589   -39140475.547 9  43180655.347 8
  21638434.598    21638436.961     4401453.486 9   1832495.283 9
  20713339.256    20713341.828   -16123983.595 9 -13917814.097 9
 90  3  9  5 42 44.0800000  0  4G 6G12G11G13
  22199183.426    22199185.626     9076062.989 9   5427421.619 8
  21434892.961    21434894.628   -39174994.967 9  43153757.098 9
  21643907.393    21643910.231     4430211.262 9   1854903.944 8
  20711733.959    20711737.041   -16132416.574 9 -13924385.239 7
 90  3  9  5 42 59.0800000  0  4G 6G12G11G13
  22208317.728    22208319.670     9124064.572 9   5464825.435 8
  21428343.630    21428345.691   -39209413.107 9  43126937.766 8
  21649388.285    21649391.127     4459014.240 9   1877347.818 9
  20710149.302    20710151.720   -16140747.659 9 -13930876.992 7
 90  3  9  5 43 14.0800000  0  4G 6G12G11G13
  22217471.920    22217473.446     9172168.834 9   5502309.270 8
  21421813.459    21421813.916   -39243729.620 9  43100197.624 9
  21654878.576    21654880.846     4487862.193 9   1899826.745 8
  20708583.631    20708585.574   -16148976.873 9 -13937289.360 8
 90  3  9  5 43 29.0800000  0  4G 6G12G11G13
  22226645.056    22226647.086     9220375.359 9   5539872.786 8
  21415302.447    21415304.208   -39277944.171 9  43073536.931 9
  21660376.203    21660379.207     4516754.812 9   1922340.463 9
  20707036.582    20707037.135   -16157104.475 9 -13943622.549 7
 90  3  9  5 43 44.0800000  0  4G 6G12G11G13
  22235837.854    22235840.869     9268684.033 9   5577515.896 9
  21408811.441    21408813.559   -39312056.361 9  43046955.999 8
  21665882.964    21665884.837     4545691.829 9   1944888.790 9
  20705508.810    20705511.595   -16165130.563 9 -13949876.628 9
 90  3  9  5 43 59.0800000  0  4G 6G12G11G13
  22245049.798    22245053.615     9317094.421 9   5615238.267 9
  21402339.079    21402342.084   -39346065.850 9  43020455.110 8
  21671397.114    21671400.204     4574672.977 9   1967471.496 9
  20704000.648    20704002.178   -16173055.445 9 -13956051.864 7
 90  3  9  5 44 14.0800000  0  4G 6G12G11G13
  22254281.918    22254284.490     9365606.183 9   5653039.629 9
  21395886.864    21395888.017   -39379972.243 9  42994034.553 9
  21676920.605    21676923.158     4603698.078 8   1990088.454 7
  20702512.357    20702514.069   -16180878.971 9 -13962148.093 9
 90  3  9  5 44 29.0800000  0  4G 6G12G11G13
  22263531.522    22263535.454     9414219.144 9   5690919.844 8
  21389454.067    21389456.170   -39413775.316 9  42967694.493 8
  21682451.890    21682455.139     4632766.852 9   2012739.449 9
  20701042.534    20701044.332   -16188601.664 8 -13968165.773 9
 90  3  9  5 44 44.0800000  0  4G 6G12G11G13
  22272803.765    22272805.006     9462932.898 9   5728878.607 9
  21383041.983    21383044.808   -39447474.746 9  42941435.196 8
  21687992.814    21687993.983     4661878.897 8   2035424.158 8
  20699591.478    20699593.890   -16196223.459 9 -13974104.806 8
 90  3  9  5 44 59.0800000  0  4G 6G12G11G13
  22282091.261    22282092.820     9511747.119 9   5766915.673 8
  21376647.963    21376651.541   -39481070.065 9  42915257.049 9
  21693541.624    21693542.473     4691034.028 9   2058142.444 9
  20698160.743    20698162.828   -16203744.598 9 -13979965.421 7
 90  3  9  5 45 14.0800000  0  4G 6G12G11G13
  22291399.190    22291402.180     9560661.549 9   5805030.809 8
  21370276.144    21370278.020   -39514560.976 9  42889160.240 9
  21699095.332    21699099.201     4720232.010 9   2080894.105 8
  20696748.805    20696750.614   -16211164.883 9 -13985747.468 8
 90  3  9  5 45 29.0800000  0  4G 6G12G11G13
  22300726.895    22300729.840     9609675.887 8   5843223.777 9
  21363922.348    21363924.588   -39547947.105 9  42863145.078 9
  21704660.188    21704662.792     4749472.481 9   2103678.882 9
  20695355.633    20695357.486   -16218484.751 9 -13991451.238 8
 90  3  9  5 45 44.0800000  0  4G 6G12G11G13
  22310072.916    22310075.776     9658789.851 9   5881494.381 8
  21357588.865    21357591.955   -39581228.097 9  42837211.849 8
  21710232.649    21710234.798     4778755.341 9   2126496.699 9
  20693982.041    20693983.937   -16225704.522 9 -13997077.041 7
 90  3  9  5 45 59.0800000  0  4G 6G12G11G13
  22319437.139    22319439.481     9708002.984 9   5919842.273 8
  21351277.324    21351277.775   -39614403.695 9  42811360.740 8
  21715812.464    21715816.225     4808080.206 9   2149347.235 9
  20692626.743    20692629.782   -16232824.385 9 -14002624.972 7
 90  3  9  5 46 14.0800000  0  4G 6G12G11G13
  22328821.193    22328822.636     9757315.079 9   5958267.279 8
  21344982.589    21344985.552   -39647473.552 9  42785592.021 8
  21721401.722    21721404.639     4837446.755 9   2172230.270 9
  20691291.890    20691294.690   -16239844.526 9 -14008095.193 8
 90  3  9  5 46 29.0800000  0  4G 6G12G11G13
  22338223.994    22338226.694     9806725.799 8   5996769.131 9
  21338710.177    21338712.295   -39680437.296 9  42759906.004 8
  21726997.594    21726999.978     4866854.823 9   2195145.646 9
  20689974.836    20689977.776   -16246764.817 9 -14013487.631 8
 90  3  9  5 46 44.0800000  0  4G 6G12G11G13
  22347646.167    22347648.953     9856234.836 9   6035347.573 8
  21332457.346    21332458.904   -39713294.577 9  42734302.925 9
  21732600.785    21732604.094     4896304.304 8   2218093.281 9
  20688676.492    20688680.227   -16253585.420 9 -14018802.385 7
 90  3  9  5 46 59.0800000  0  4G 6G12G11G13
  22357083.939    22357088.456     9905841.979 8   6074002.475 7
  21326224.792    21326227.703   -39746045.207 9  42708782.949 9
  21738213.521    21738216.123     4925794.813 9   2241072.909 8
  20687397.508    20687401.739   -16260306.437 9 -14024039.523 8
 90  3  9  5 47 14.0800000  0  4G 6G12G11G13
  22366542.658    22366544.987     9955546.761 9   6112733.483 9
  21320013.043    21320015.211   -39778688.833 9  42683346.381 8
  21743833.113    21743835.730     4955326.044 9   2264084.261 9
  20686136.296    20686139.923   -16266928.059 9 -14029199.225 8
 90  3  9  5 47 29.0800000  0  4G 6G12G11G13
  22376019.980    22376023.611    10005348.851 8   6151540.293 8
  21313822.257    21313824.624   -39811224.989 9  42657993.533 8
  21749460.128    21749463.511     4984897.756 9   2287127.138 9
  20684895.851    20684898.333   -16273450.606 9 -14034281.729 8
 90  3  9  5 47 44.0800000  0  4G 6G12G11G13
  22385516.026    22385519.228    10055248.065 9   6190422.789 9
  21307650.890    21307653.587   -39843653.371 9  42632724.675 8
  21755094.659    21755098.770     5014509.695 9   2310201.380 8
  20683673.735    20683676.738   -16279874.187 9 -14039287.099 8
 90  3  9  5 47 59.0800000  0  4G 6G12G11G13
  22395028.565    22395033.545    10105244.038 9   6229380.687 9
  21301501.551    21301502.174   -39875973.581 9  42607540.105 7
  21760737.511    21760740.363     5044161.639 8   2333306.784 8
  20682469.302    20682471.947   -16286198.983 9 -14044215.509 8
 90  3  9  5 48 14.0800000  0  4G 6G12G11G13
  22404562.076    22404565.762    10155336.508 8   6268413.755 8
  21295370.677    21295372.244   -39908185.230 9  42582440.119 8
  21766387.843    21766391.418     5073853.412 9   2356443.250 9
  20681284.930    20681287.377   -16292424.918 9 -14049066.873 7
 90  3  9  5 48 29.0800000  0  4G 6G12G11G13
  22414114.389    22414115.511    10205525.013 9   6307521.673 8
  21289262.742    21289263.579   -39940288.082 9  42557424.927 8
  21772045.057    21772049.212     5103584.687 8   2379610.454 9
  20680118.732    20680120.505   -16298552.335 9 -14053841.455 8
 90  3  9  5 48 44.0800000  0  4G 6G12G11G13
  22423682.573    22423684.590    10255809.355 8   6346704.276 8
  21283175.877    21283176.689   -39972281.798 6  42532494.754 4
  21777711.416    21777714.337     5133355.229 9   2402808.275 9
  20678971.869    20678974.627   -16304581.457 9 -14058539.453 8
 90  3  9  5 48 59.0800000  0  4G 6G12G11G13
  22433268.873    22433272.564    10306189.129 8   6385961.222 9
  21277106.625    21277108.171   -40004166.019 7  42507649.911 6
  21783383.743    21783386.479     5163164.743 9   2426036.478 9
  20677843.550    20677845.827   -16310512.426 9 -14063160.964 8
 90  3  9  5 49 14.0800000  0  4G 6G12G11G13
  22442874.376    22442876.537    10356664.088 8   6425292.352 9
  21271060.299    21271060.882   -40035940.473 5  42482890.597 4
  21789063.371    21789066.012     5193012.990 9   2449294.849 9
  20676733.278    20676734.441   -16316345.386 9 -14067706.131 8
 90  3  9  5 49 29.0800000  0  4G 6G12G11G13
  22452497.582    22452498.468    10407233.845 8   6464697.346 8
  21265035.532    21265036.044   -40067604.771 9  42458217.115 8
                  21794744.085     5222858.550 5
  20675641.961    20675643.493   -16322080.554 9 -14072175.072 8
 90  3  9  5 49 44.0800000  0  4G 6G12G11G13
  22462139.062    22462141.084    10457898.155 7   6504176.021 9
  21259030.909    21259031.283   -40099158.451 9  42433629.831 8
                  21239297.737   -46139203.931 3
  20674569.413    20674571.904   -16327717.936 5 -14076567.824 5
 90  3  9  5 49 59.0800000  0  4G 6G12G11G13
  22471796.609    22471800.169    10508656.651 9   6543728.099 8
  21253046.866    21253048.971   -40130601.231 8  42409128.970 8
                  21431893.450   -46252536.513 3
  20673517.217    20673517.768   -16333257.714 3 -14080884.537 6
 90  3  9  5 50 14.0800000  0  4G 6G12G11G13
  22481474.979    22481475.230    10559508.972 9   6583353.277 8
  21247084.433    21247087.169   -40161932.798 9  42384714.762 8
                  21811857.071   -46303265.878 9
  20672480.138    20672481.221   -16338700.077 9 -14085125.322 8
 90  3  9  5 50 29.0800000  0  4G 6G12G11G13
  22491170.458    22491171.653    10610454.824 9   6623051.326 9
  21241143.312    21241146.029   -40193152.883 9  42360387.418 9
  21817572.678    21817573.672   -46273227.959 8  58760226.770 9
  20671462.644    20671464.055   -16344045.321 9 -14089290.431 8
 90  3  9  5 50 44.0800000  0  4G 6G12G11G13
  22500879.524    22500883.219    10661493.880 9   6662822.002 9
  21235223.672    21235227.059   -40224261.076 9  42336147.295 9
  21823295.700    21823296.591   -46243152.938 9  58783661.361 8
  20670464.005    20670465.181   -16349293.396 9 -14093379.838 7
 90  3  9  5 50 59.0800000  0  4G 6G12G11G13
  22510611.799    22510614.987    10712625.713 9   6702664.991 8
  21229325.787    21229328.215   -40255257.068 9  42311994.582 9
  21829025.355    21829029.220   -46213040.971 9  58807125.218 8
  20669482.666    20669483.970   -16354444.731 9 -14097393.862 7
 90  3  9  5 51 14.0800000  0  4G 6G12G11G13
  22520358.157    22520362.787    10763850.213 8   6742580.147 8
  21223449.415    21223451.596   -40286140.461 9  42287929.604 7
  21834762.246    21834765.190   -46182892.216 9  58830617.763 9
  20668521.588    20668522.764   -16359499.389 9 -14101332.554 8
 90  3  9  5 51 29.0800000  0  4G 6G12G11G13
  22530124.520    22530125.891    10815166.856 9   6782567.139 8
  21217594.323    21217596.588   -40316910.963 9  42263952.597 7
  21840507.340    21840509.021   -46152707.121 9  58854138.623 8
  20667578.308    20667580.758   -16364457.311 9 -14105195.852 8
 90  3  9  5 51 44.0800000  0  4G 6G12G11G13
  22539907.128    22539910.374    10866575.422 9   6822625.744 9
  21211760.458    21211761.262   -40347568.173 9  42240063.858 9
  21846256.440    21846260.565   -46122485.848 9  58877687.667 8
  20666652.142    20666655.064   -16369318.738 9 -14108983.974 8
 90  3  9  5 51 59.0800000  0  4G 6G12G11G13
  22549706.693    22549710.424    10918075.576 9   6862755.707 9
  21205947.398    21205950.393   -40378111.806 9  42216263.617 8
  21852014.803    21852017.611   -46092228.661 9  58901264.691 9
  20665745.643    20665748.357   -16374084.123 9 -14112697.237 8
 90  3  9  5 52 14.0800000  0  4G 6G12G11G13
  22559524.073    22559526.845    10969666.959 8   6902956.784 9
  21200157.284    21200158.811   -40408541.447 9  42192552.227 9
  21857779.865    21857782.491   -46061935.767 9  58924869.542 9
  20664856.699    20664859.721   -16378753.382 9 -14116335.621 8
 90  3  9  5 52 29.0800000  0  4G 6G12G11G13
  22569360.325    22569362.468    11021349.301 9   6943228.716 9
  21194388.110    21194390.282   -40438856.890 9  42168929.805 8
  21863550.622    21863553.793   -46031607.422 9  58948502.014 8
  20663985.928    20663988.663   -16383326.862 9 -14119899.361 7
 90  3  9  5 52 44.0800000  0  4G 6G12G11G13
  22579212.690    22579214.919    11073122.096 9   6983571.152 8
  21188641.981    21188643.251   -40469057.910 9  42145396.558 9
  21869328.020    21869331.892   -46001243.942 9  58972161.869 8
  20663134.254    20663137.537   -16387804.823 9 -14123388.667 8
 90  3  9  5 52 59.0800000  0  4G 6G12G11G13
  22589080.953    22589084.197    11124985.223 9   7023983.964 8
  21182915.010    21182918.196   -40499143.989 9  42121952.855 8
  21875112.873    21875115.305   -45970845.373 9  58995849.061 8
  20662304.774    20662302.658   -16392187.278 1 -14126803.563 1
 90  3  9  5 53 14.0800000  0  4G 6G12G11G13
  22598966.599    22598968.669    11176938.255 9   7064466.843 8
  21177212.809    21177215.010   -40529114.833 9  42098598.962 9
  21880904.386    21880907.375   -45940412.165 9  59019563.254 9
  20661484.415    20661484.052   -16396474.461 1 -14130144.230 1
 90  3  9  5 53 29.0800000  0  4G 6G12G11G13
  22608871.181    22608873.266    11228980.862 9   7105019.497 8
  21171532.065    21171532.589   -40558970.162 9  42075335.076 8
  21886703.026    21886705.346   -45909944.556 9  59043304.248 9
  20660684.018    20660786.543   -16400666.421 1 -14085887.147 1
 90  3  9  5 53 44.0800000  0  4G 6G12G11G13
  22618790.711    22618794.597    11281112.611 9   7145641.629 8
  21165872.099    21165873.058   -40588709.587 9  42052161.487 9
  21892506.431    21892508.659   -45879442.708 9  59067071.911 7
                  20659544.979   -47602376.673 3
 90  3  9  5 53 59.0800000  0  4G 6G12G11G13
  22628729.702    22628731.732    11333333.329 9   7186333.080 8
  21160233.794    21160236.175   -40618332.888 9  42029078.410 9
  21898316.945    21898320.257   -45848907.012 9  59090865.965 8
  20659147.099    20659147.175   -47606424.628 9  60379726.268 5
 90  3  9  5 54 14.0800000  0  4G 6G12G11G13
  22638680.863    22638683.664    11385642.611 8   7227093.536 9
  21154619.705    21154620.962   -40647839.749 9  42006086.045 8
  21904134.012    21904137.494   -45818337.522 9  59114686.336 9
  20658403.049    20658403.381   -47610332.359 9  60376681.294 7
 90  3  9  5 54 29.0800000  0  4G 6G12G11G13
  22648654.986    22648655.425    11438040.090 8   7267922.746 8
  21149026.786    21149028.930   -40677229.811 9  41983184.706 8
  21909957.698    21909960.959   -45787734.564 9  59138532.781 9
  20657677.426    20657677.505   -47614145.691 9  60373709.876 7
 90  3  9  5 54 44.0800000  0  4G 6G12G11G13
  22658639.798    22658643.420    11490525.556 9   7308820.495 8
  21143455.628    21143457.326   -40706502.668 9  41960374.692 8
  21915788.055    21915790.921   -45757098.356 9  59162405.146 8
  20656969.849    20656970.544   -47617864.717 9  60370811.961 7
 90  3  9  5 54 59.0800000  0  4G 6G12G11G13
  22668644.829    22668647.097    11543098.486 9   7349786.403 8
  21137908.103    21137910.041   -40735658.103 9  41937656.174 8
  21921622.876    21921627.415   -45726429.197 9  59186303.192 8
  20656280.575    20656280.636   -47621489.557 9  60367987.407 7
 90  3  9  5 55 14.0800000  0  4G 6G12G11G13
  22678665.894    22678667.977    11595758.642 9   7390820.279 9
  21132381.401    21132384.146   -40764695.721 9  41915029.462 7
  21927466.955    21927469.544   -45695727.370 8  59210226.688 8
  20655608.914    20655609.079   -47625020.489 9  60365236.049 7
 90  3  9  5 55 29.0800000  0  4G 6G12G11G13
  22688703.106    22688706.177    11648505.681 8   7431921.855 9
  21126877.848    21126881.495   -40793615.228 9  41892494.782 8
  21933315.443    21933318.785   -45664993.160 9  59234175.428 8
  20654954.554    20654955.723   -47628457.947 9  60362557.513 7
 90  3  9  5 55 44.0800000  0  4G 6G12G11G13
  22698757.180    22698758.010    11701339.320 9   7473090.910 8
  21121399.672    21121400.370   -40822416.322 9  41870052.381 9
  21939170.080    21939172.966   -45634226.731 9  59258149.272 8
  20654318.509    20654319.046   -47631801.762 9  60359951.946 8
 90  3  9  5 55 59.0800000  0  4G 6G12G11G13
  22708828.495    22708830.071    11754259.162 9   7514327.123 9
  21115940.918    21115941.780   -40851098.546 9  41847702.591 8
  21945030.800    21945034.024   -45603428.131 9  59282148.170 8
  20653699.422    20653702.147   -47635052.295 9  60357419.059 7
 90  3  9  5 56 14.0800000  0  4G 6G12G11G13
  22718914.151    22718916.564    11807264.818 8   7555630.212 8
  21110505.120    21110507.567   -40879661.681 9  41825445.611 9
  21950897.187    21950899.885   -45572597.660 9  59306171.917 9
  20653098.177    20653100.814   -47638209.591 9  60354958.839 7
 90  3  9  5 56 29.0800000  0  4G 6G12G11G13
  22729019.027    22729018.952    11860356.004 9   7596999.959 9
  21105093.300    21105093.919   -40908105.379 9  41803281.691 8
  21956769.576    21956774.319   -45541735.636 8  59330220.232 9
  20652514.861    20652517.060   -47641273.759 9  60352571.178 7
 90  3  9  5 56 44.0800000  0  4G 6G12G11G13
  22739135.893    22739138.369    11913532.383 8   7638436.090 8
  21099702.521    21099704.608   -40936429.304 9  41781211.100 8
  21962648.794    21962651.406   -45510842.303 9  59354292.969 9
  20651949.033    20651951.813   -47644245.105 9  60350255.859 8
 90  3  9  5 56 59.0800000  0  4G 6G12G11G13
  22749271.930    22749273.668    11966793.636 8   7679938.324 9
  21094337.381    21094337.470   -40964633.209 9  41759234.040 8
  21968533.018    21968536.165   -45479917.986 8  59378389.825 9
  20651402.005    20651404.113   -47647123.920 9  60348012.622 8
 90  3  9  5 57 14.0800000  0  4G 6G12G11G13
  22759423.383    22759425.075    12020139.397 9   7721506.460 8
  21088991.871    21088993.296   -40992716.752 9  41737350.767 8
  21974424.010    21974427.766   -45448962.864 9  59402510.706 9
  20650870.432    20650872.699   -47649910.265 9  60345841.458 7
 90  3  9  5 57 29.0800000  0  4G 6G12G11G13
  22769591.072    22769593.142    12073569.364 8   7763140.178 9
  21083670.231    21083672.206   -41020679.631 9  41715561.507 8
  21980319.807    21980323.120   -45417977.122 8  59426655.428 9
  20650357.315    20650360.114   -47652604.368 8  60343742.165 8
 90  3  9  5 57 44.0800000  0  4G 6G12G11G13
  22779772.692    22779775.348    12127083.080 9   7804839.163 7
  21078372.347    21078373.031   -41048521.617 9  41693866.454 8
  21986222.341    21986225.641   -45386961.068 8  59450823.789 9
  20649863.176    20649865.675   -47655206.237 9  60341714.731 7
 90  3  9  5 57 59.0800000  0  4G 6G12G11G13
  22789973.077    22789975.968    12180680.297 9   7846603.199 8
  21073097.152    21073098.274   -41076242.253 9  41672265.963 7
  21992129.888    21992133.559   -45355914.930 8  59475015.576 9
  20649385.976    20649388.201   -47657716.151 9  60339758.962 7
 90  3  9  5 58 14.0800000  0  4G 6G12G11G13
  22800188.021    22800189.005    12234360.580 9   7888431.992 8
  21067844.802    21067847.276   -41103841.218 9  41650760.284 8
  21998044.547    21998047.528   -45324838.887 9  59499230.661 9
  20648925.666    20648927.936   -47660134.347 9  60337874.670 7
 90  3  9  5 58 29.0800000  0  4G 6G12G11G13
  22810418.092    22810421.719    12288123.672 9   7930325.295 8
  21062616.189    21062619.270   -41131318.228 9  41629349.623 8
  22003964.688    22003966.693   -45293733.221 9  59523468.852 8
  20648483.051    20648484.205   -47662461.156 9  60336061.589 8
 90  3  9  5 58 44.0800000  0  4G 6G12G11G13
  22820665.023    22820668.363    12341969.185 9   7972282.812 9
  21057410.746    21057413.030   -41158672.951 9  41608034.261 8
  22009888.040    22009892.235   -45262598.162 9  59547729.913 8
  20648057.910    20648060.536   -47664696.664 9  60334319.634 8
 90  3  9  5 58 59.0800000  0  4G 6G12G11G13
  22830927.354    22830929.367    12395896.850 9   8014304.336 8
  21052229.064    21052230.733   -41185905.049 9  41586814.447 8
  22015819.342    22015821.066   -45231433.903 9  59572013.760 9
  20647649.409    20647651.407   -47666840.959 9  60332648.760 7
 90  3  9  5 59 14.0800000  0  4G 6G12G11G13
  22841204.539    22841207.017    12449906.155 9   8056389.493 9
  21047069.708    21047072.801   -41213014.241 9  41565690.398 8
  22021755.129    22021757.806   -45200240.762 9  59596320.099 8
  20647258.927    20647261.478   -47668894.085 9  60331048.940 7
 90  3  9  5 59 29.0800000  0  4G 6G12G11G13
  22851498.332    22851500.733    12503996.967 9   8098538.151 8
  21041933.984    21041937.050   -41240000.123 9  41544662.426 8
  22027697.020    22027698.381   -45169018.888 8  59620648.835 8
  20646885.825    20646887.925   -47670856.298 9  60329519.941 8
 90  3  9  5 59 44.0800000  0  4G 6G12G11G13
  22861807.217    22861808.675    12558168.732 9   8140749.904 8
  21036822.824    21036825.440   -41266862.535 9  41523730.688 8
  22033643.167    22033645.654   -45137768.628 9  59644999.690 9
  20646528.498    20646530.939   -47672727.956 9  60328061.511 8
 90  3  9  5 59 59.0800000  0  4G 6G12G11G13
  22872130.797    22872132.874    12612421.198 9   8183024.554 9
  21031735.857    21031736.662   -41293601.223 9  41502895.348 8
  22039595.612    22039597.100   -45106490.164 9  59669372.514 8
  20646190.256    20646193.323   -47674509.250 9  60326673.490 8
 90  3  9  6  0 14.0800000  0  4G 6G12G11G13
  22882469.144    22882471.661    12666754.044 9   8225361.803 9
  21026669.516    21026672.301   -41320215.730 9  41482156.758 8
  22045552.927    22045554.908   -45075183.714 9  59693767.145 9
  20645868.040    20645871.341   -47676200.412 9  60325355.718 7
 90  3  9  6  0 29.0800000  0  4G 6G12G11G13
  22892824.802    22892826.385    12721166.830 9   8267761.358 9
  21021628.695    21021631.974   -41346705.824 9  41461515.129 8
  22051515.157    22051517.193   -45043849.541 9  59718183.368 9
  20645562.737    20645565.035   -47677801.505 9  60324108.122 7
 90  3  9  6  0 44.0800000  0  4G 6G12G11G13
  22903193.449    22903195.593    12775659.318 8   8310223.020 8
  21016611.657    21016614.279   -41373071.169 9  41440970.714 8
  22057482.292    22057486.444   -45012487.806 9  59742621.082 8
  20645276.497    20645278.333   -47679312.613 9  60322930.635 8
 90  3  9  6  0 59.0800000  0  4G 6G12G11G13
  22913579.408    22913578.908    12830231.061 9   8352746.433 8
  21011619.306    21011621.252   -41399311.537 9  41420523.665 8
  22063455.561    22063459.301   -44981098.790 9  59767080.040 9
  20645006.065    20645008.120   -47680734.109 9  60321822.989 8
 90  3  9  6  1 14.0800000  0  4G 6G12G11G13
  22923977.454    22923980.026    12884881.744 9   8395331.366 7
  21006649.492    21006652.683   -41425426.608 9  41400174.268 8
  22069433.920    22069438.122   -44949682.737 9  59791560.076 9
  20644752.374    20644753.646   -47682066.214 9  60320784.989 8
 90  3  9  6  1 29.0800000  0  4G 6G12G11G13
  22934392.621    22934396.178    12939611.023 9   8437977.523 8
  21001704.708    21001706.065   -41451416.011 9  41379922.779 7
  22075417.960    22075420.465   -44918239.816 8  59816061.053 9
  20644514.715    20644518.113   -47683309.105 9  60319816.507 8
 90  3  9  6  1 44.0800000  0  4G 6G12G11G13
  22944822.201    22944824.697    12994418.505 8   8480684.647 9
  20996783.224    20996783.445   -41477279.559 9  41359769.379 8
  22081405.832    22081410.195   -44886770.337 9  59840582.715 8
  20644296.038    20644299.178   -47684462.875 9  60318917.477 9
 90  3  9  6  1 59.0800000  0  4G 6G12G11G13
  22955265.988    22955269.005    13049303.964 9   8523452.494 8
  20991884.890    20991886.834   -41503016.886 9  41339714.300 8
  22087398.910    22087402.332   -44855274.432 8  59865124.978 8
  20644092.862    20644095.134   -47685527.780 9  60318087.696 8
 90  3  9  6  2 14.0800000  0  4G 6G12G11G13
  22965726.780    22965728.444    13104266.897 9   8566280.734 9
  20987010.647    20987012.035   -41528627.646 9  41319757.866 9
  22093397.526    22093401.436   -44823752.428 9  59889687.569 8
  20643907.956    20643909.711   -47686504.053 9  60317326.974 7
 90  3  9  6  2 29.0800000  0  4G 6G12G11G13
  22976197.932    22976201.633    13159307.072 9   8609169.154 9
  20982162.018    20982163.200   -41554111.592 9  41299900.246 8
  22099400.722    22099404.536   -44792204.518 8  59914270.349 8
  20643739.552    20643742.091   -47687391.800 9  60316635.236 8
 90  3  9  6  2 44.0800000  0  4G 6G12G11G13
  22986689.623    22986690.284    13214424.007 9   8652117.405 9
  20977336.443    20977338.530   -41579468.371 9  41280141.711 8
  22105409.323    22105413.124   -44760630.792 9  59938873.242 9
  20643586.772    20643588.869   -47688191.156 9  60316012.355 8
 90  3  9  6  2 59.0800000  0  4G 6G12G11G13
  22997191.740    22997193.829    13269617.457 9   8695125.274 9
  20972534.971    20972537.870   -41604697.719 9  41260482.493 8
  22111422.785    22111425.900   -44729031.572 9  59963495.996 9
  20643450.921    20643452.358   -47688902.342 9  60315458.190 7
 90  3  9  6  3 14.0800000  0  4G 6G12G11G13
  23007708.723    23007711.387    13324886.981 9   8738192.410 9
  20967758.288    20967760.781   -41629799.293 9  41240922.826 8
  22117441.204    22117443.868   -44697407.193 9  59988138.364 9
  20643331.611    20643334.823   -47689525.743 9  60314972.446 7
 90  3  9  6  3 29.0800000  0  4G 6G12G11G13
  23018240.597    23018243.080    13380232.240 9   8781318.568 9
  20963006.657    20963008.515   -41654772.931 9  41221462.858 8
  22123462.906    22123466.055   -44665757.832 9  60012800.199 9
  20643230.640    20643232.194   -47690061.582 9  60314554.907 8
 90  3  9  6  3 44.0800000  0  4G 6G12G11G13
  23028786.923    23028788.804    13435652.981 9   8824503.525 8
  20958278.420    20958281.754   -41679618.258 9  41202102.853 8
  22129491.904    22129494.350   -44634083.637 9  60037481.382 9
  20643144.870    20643146.455   -47690509.855 9  60314205.614 8
 90  3  9  6  3 59.0800000  0  4G 6G12G11G13
  23039348.099    23039349.141    13491148.778 9   8867747.000 8
  20953574.539    20953577.401   -41704335.031 9  41182843.038 8
  22135522.949    22135526.663   -44602384.897 9  60062181.695 9
  20643076.688    20643078.541   -47690870.736 9  60313924.415 7
 90  3  9  6  4 14.0800000  0  4G 6G12G11G13
  23049920.923    23049924.137    13546719.245 8   8911048.632 8
  20948896.040    20948899.177   -41728923.017 9  41163683.563 8
  22141560.935    22141562.490   -44570661.826 9  60086900.970 9
  20643024.717    20643025.939   -47691144.569 9  60313711.046 8
 90  3  9  6  4 29.0800000  0  4G 6G12G11G13
  23060512.136    23060513.381    13602364.012 9   8954408.153 9
  20944241.655    20944243.802   -41753381.776 9  41144624.791 8
  22147600.310    22147603.965   -44538914.636 9  60111639.037 9
  20642989.214    20642990.280   -47691331.259 9  60313565.585 8
 90  3  9  6  4 44.0800000  0  4G 6G12G11G13
  23071113.684    23071115.793    13658082.749 8   8997825.325 9
  20939611.195    20939614.109   -41777711.107 9  41125666.876 8
  22153647.423    22153649.456   -44507143.600 9  60136395.668 9
  20642970.110    20642972.018   -47691431.169 9  60313487.723 7
 90  3  9  6  4 59.0800000  0  4G 6G12G11G13
  23081730.284    23081733.060    13713875.049 8   9041299.819 8
  20935006.277    20935008.312   -41801910.681 9  41106810.067 8
  22159697.446    22159700.833   -44475349.052 9  60161170.636 9
  20642967.847    20642968.442   -47691444.845 9  60313477.085 7
 90  3  9  6  5 14.0800000  0  4G 6G12G11G13
  23092362.119    23092363.554    13769740.545 9   9084831.374 8
  20930426.912    20930428.638   -41825980.296 9  41088054.524 8
  22165752.045    22165755.825   -44443531.101 9  60185963.836 9
  20642981.310    20642981.949   -47691372.386 9  60313533.535 8
 90  3  9  6  5 29.0800000  0  4G 6G12G11G13
  23103006.117    23103007.210    13825679.149 9   9128419.862 9
  20925871.303    20925874.171   -41849919.359 9  41069400.718 8
  22171811.741    22171813.933   -44411689.703 8  60210775.312 8
  20643011.659    20643011.996   -47691213.429 9  60313657.407 7
 90  3  9  6  5 44.0800000  0  4G 6G12G11G13
  23113666.309    23113666.650    13881690.270 9   9172064.875 8
  20921339.982    20921341.677   -41873727.744 9  41050848.727 7
  22177874.690    22177877.514   -44379825.209 9  60235604.789 8
  20643058.538    20643060.503   -47690968.283 9  60313848.445 6
 90  3  9  6  5 59.0800000  0  4G 6G12G11G13
  23124336.735    23124340.904    13937773.526 8   9215766.074 9
  20916833.595    20916836.726   -41897405.257 9  41032398.722 8
  22183942.714    22183945.441   -44347938.042 9  60260451.917 8
  20643121.840    20643122.578   -47690637.559 9  60314106.149 8
 90  3  9  6  6 14.0800000  0  4G 6G12G11G13
  23135024.900    23135027.357    13993928.668 8   9259523.310 9
  20912353.796    20912355.963   -41920951.544 9  41014050.957 8
  22190015.257    22190017.150   -44316028.277 9  60285316.667 9
  20643201.052    20643201.276   -47690221.454 9  60314430.405 8
 90  3  9  6  6 29.0800000  0  4G 6G12G11G13
  23145722.716    23145724.897    14050155.257 9   9303336.190 8
  20907897.581    20907899.754   -41944366.277 9  40995805.712 8
  22196091.388    22196093.744   -44284096.118 9  60310198.866 8
  20643296.036    20643298.632   -47689720.066 9  60314821.082 7
 90  3  9  6  6 44.0800000  0  4G 6G12G11G13
  23156434.231    23156437.322    14106452.976 7   9347204.516 8
  20903467.513    20903469.428   -41967649.112 9  40977663.250 7
  22202171.308    22202173.970   -44252141.804 9  60335098.320 8
  20643407.991    20643409.988   -47689133.657 9  60315278.031 8
 90  3  9  6  6 59.0800000  0  4G 6G12G11G13
  23167162.458    23167165.829    14162821.318 7   9391127.853 8
  20899062.469    20899064.790   -41990799.870 9  40959623.708 8
  22208256.626    22208259.293   -44220165.536 9  60360014.886 9
  20643534.584    20643537.651   -47688462.248 9  60315801.214 7
 90  3  9  6  7 14.0800000  0  4G 6G12G11G13
  23177902.350    23177905.164    14219260.040 9   9435106.072 9
  20894682.144    20894684.500   -42013818.259 9  40941687.307 8
  22214345.641    22214348.317   -44188167.560 8  60384948.360 8
  20643678.418    20643680.916   -47687706.096 9  60316390.430 7
 90  3  9  6  7 29.0800000  0  4G 6G12G11G13
  23188655.699    23188658.931    14275768.773 9   9479138.823 9
  20890327.070    20890328.553   -42036703.992 9  40923854.270 8
  22220437.832    22220442.373   -44156148.070 9  60409898.589 8
  20643838.382    20643841.094   -47686865.593 9  60317045.362 8
 90  3  9  6  7 44.0800000  0  4G 6G12G11G13
  23199420.011    23199426.494    14332347.120 8   9523225.786 9
  20885997.369    20885999.862   -42059456.847 9  40906124.783 9
  22226534.930    22226538.828   -44124107.373 9  60434865.379 9
  20644014.111    20644014.974   -47685940.787 9  60317766.001 7
 90  3  9  6  7 59.0800000  0  4G 6G12G11G13
  23210200.811    23210204.512    14388994.831 8   9567366.834 9
  20881692.887    20881695.532   -42082076.452 9  40888499.110 8
  22232637.652    22232640.165   -44092045.706 8  60459848.484 8
  20644206.537    20644208.063   -47684931.813 9  60318552.224 8
 90  3  9  6  8 14.0800000  0  4G 6G12G11G13
  23220996.287    23220997.492    14445711.395 9   9611561.531 8
  20877414.476    20877416.660   -42104562.576 9  40870977.459 8
  22238740.910    22238745.620   -44059963.239 8  60484847.800 9
  20644414.337    20644415.600   -47683838.898 9  60319403.835 8
 90  3  9  6  8 29.0800000  0  4G 6G12G11G13
  23231799.058    23231803.257    14502496.624 8   9655809.735 9
  20873160.015    20873163.768   -42126915.042 9  40853559.950 8
  22244849.713    22244854.484   -44027860.079 8  60509863.252 9
  20644638.133    20644640.512   -47682662.397 9  60320320.590 8
 90  3  9  6  8 44.0800000  0  4G 6G12G11G13
  23242617.873    23242622.357    14559350.004 9   9700111.043 8
  20868932.717    20868934.938   -42149133.588 9  40836246.806 9
  22250963.191    22250967.898   -43995736.455 8  60534894.627 8
  20644877.883    20644879.961   -47681402.289 9  60321302.498 7
 90  3  9  6  8 59.0800000  0  4G 6G12G11G13
  23253451.758    23253454.845    14616271.167 9   9744465.174 9
  20864730.021    20864732.694   -42171217.905 9  40819038.250 8
  22257080.650    22257083.356   -43963592.656 8  60559941.743 8
  20645133.770    20645135.523   -47680058.919 9  60322349.295 7
 90  3  9  6  9 14.0800000  0  4G 6G12G11G13
  23264295.155    23264299.066    14673259.849 8   9788871.885 9
  20860553.263    20860556.391   -42193167.654 9  40801934.548 7
  22263200.827    22263203.979   -43931428.860 9  60585004.436 9
  20645404.557    20645407.223   -47678632.542 9  60323460.750 8
 90  3  9  6  9 29.0800000  0  4G 6G12G11G13
  23275153.301    23275156.280    14730315.584 8   9833330.875 9
  20856401.288    20856403.291   -42214982.652 9  40784935.846 8
  22269326.104    22269327.912   -43899245.260 9  60610082.569 8
  20645692.157    20645694.696   -47677123.294 9  60324636.799 7
 90  3  9  6  9 44.0800000  0  4G 6G12G11G13
  23286023.743    23286026.422    14787438.083 9   9877841.885 8
  20852276.700    20852277.837   -42236662.587 9  40768042.379 8
  22275454.645    22275456.502   -43867042.014 8  60635175.992 8
  20645994.409    20645997.136   -47675531.412 9  60325877.229 8
 90  3  9  6  9 59.0800000  0  4G 6G12G11G13
  23296907.213    23296907.772    14844626.934 9   9922404.612 8
  20848177.235    20848178.305   -42258207.188 9  40751254.381 8
  22281586.353    22281588.658   -43834819.521 9  60660284.412 8
  20646313.146    20646315.632   -47673856.908 9  60327182.041 8
 90  3  9  6 10 14.0800000  0  4G 6G12G11G13
  23307801.129    23307803.337    14901881.782 9   9967018.765 8
  20844103.413    20844105.011   -42279616.133 9  40734572.078 8
  22287722.153    22287723.486   -43802577.929 9  60685407.734 9
  20646647.236    20646651.178   -47672100.012 9  60328551.045 8
 90  3  9  6 10 29.0800000  0  4G 6G12G11G13
  23318708.528    23318713.019    14959202.329 9  10011684.081 9
  20840055.223    20840055.103   -42300889.190 9  40717995.673 8
  22293860.064    22293862.571   -43770317.269 9  60710545.901 8
  20646997.324    20647000.345   -47670261.233 9  60329983.880 8
 90  3  9  6 10 44.0800000  0  4G 6G12G11G13
  23329630.114    23329632.095    15016588.130 9  10056400.259 9
  20836033.870    20836035.021   -42322025.957 9  40701525.467 8
  22300003.428    22300005.896   -43738037.821 9  60735698.706 8
  20647363.436    20647366.489   -47668340.605 9  60331480.483 8
 90  3  9  6 10 59.0800000  0  4G 6G12G11G13
  23340561.727    23340564.259    15074038.804 9  10101167.003 8
  20832036.269    20832038.012   -42343026.373 9  40685161.496 8
  22306148.960    22306152.286   -43705739.789 8  60760865.982 8
  20647744.762    20647745.776   -47666338.266 9  60333040.752 7
 90  3  9  6 11 14.0800000  0  4G 6G12G11G13
  23351504.162    23351508.803    15131554.128 8  10145984.107 8
  20828065.817    20828067.612   -42363890.149 9  40668904.010 9
  22312299.384    22312301.499   -43673423.504 9  60786047.499 8
  20648141.126    20648144.025   -47664254.322 9  60334664.602 9
 90  3  9  6 11 29.0800000  0  4G 6G12G11G13
  23362463.313    23362465.468    15189133.505 8  10190851.140 8
  20824121.145    20824124.594   -42384617.042 9  40652753.189 9
  22318452.012    22318453.829   -43641089.113 9  60811243.123 8
  20648553.173    20648555.128   -47662089.232 9  60336351.693 8
 90  3  9  6 11 44.0800000  0  4G 6G12G11G13
  23373431.436    23373436.391    15246776.712 8  10235767.871 9
  20820203.975    20820205.897   -42405206.871 9  40636709.165 9
  22324608.793    22324610.739   -43608736.792 9  60836452.720 7
  20648980.300    20648982.798   -47659843.175 9  60338101.878 7
 90  3  9  6 11 59.0800000  0  4G 6G12G11G13
  23384414.485    23384416.347    15304483.385 8  10280734.091 8
  20816310.811    20816313.046   -42425659.139 9  40620772.326 8
  22330769.326    22330770.263   -43576366.692 9  60861676.180 8
  20649423.257    20649425.268   -47657516.282 9  60339915.044 8
 90  3  9  6 12 14.0800000  0  4G 6G12G11G13
  23395406.591    23395408.608    15362253.068 9  10325749.409 9
  20812445.984    20812447.200   -42445973.700 9  40604942.804 8
  22336932.356    22336932.201   -43543979.152 9  60886913.209 8
  20649881.418    20649884.160   -47655108.797 9  60341791.001 8
 90  3  9  6 12 29.0800000  0  4G 6G12G11G13
  23406413.534    23406415.494    15420085.484 9  10370813.590 8
  20808606.209    20808607.512   -42466150.324 9  40589220.764 8
  22343098.157    22343099.450   -43511574.351 9  60912163.694 9
  20650354.624    20650359.029   -47652620.780 9  60343729.729 7
 90  3  9  6 12 44.0800000  0  4G 6G12G11G13
  23417430.062    23417432.118    15477980.215 8  10415926.336 8
  20804792.976    20804793.953   -42486188.762 9  40573606.391 7
  22349268.341    22349269.738   -43479152.488 9  60937427.472 8
  20650843.298    20650846.193   -47650052.776 9  60345730.772 7
 90  3  9  6 12 59.0800000  0  4G 6G12G11G13
  23428458.736    23428461.591    15535936.810 9  10461087.305 9
  20801005.467    20801008.152   -42506088.691 9  40558099.951 8
  22355441.114    22355442.241   -43446713.630 9  60962704.502 9
  20651348.624    20651350.451   -47647404.847 9  60347794.109 8
 90  3  9  6 13 14.0800000  0  4G 6G12G11G13
  23439498.275    23439501.260    15593955.105 9  10506296.334 8
  20797246.114    20797248.499   -42525849.848 9  40542701.641 8
  22361617.190    22361617.151   -43414258.091 9  60987994.526 7
  20651867.875    20651868.528   -47644676.915 9  60349919.784 8
 90  3  9  6 13 29.0800000  0  4G 6G12G11G13
  23450551.044    23450553.641    15652034.600 9  10551553.048 9
  20793511.615    20793513.742   -42545472.043 9  40527411.627 8
  22367795.395    22367796.613   -43381786.005 9  61013297.431 9
  20652401.350    20652401.918   -47641869.411 9  60352107.449 7
 90  3  9  6 13 44.0800000  0  4G 6G12G11G13
  23461614.601    23461617.457    15710174.992 9  10596857.224 9
  20789803.491    20789806.539   -42564954.997 9  40512230.099 9
  22373978.233    22373980.449   -43349297.596 9  61038613.072 8
  20652950.680    20652951.935   -47638982.498 9  60354357.011 8
 90  3  9  6 13 59.0800000  0  4G 6G12G11G13
  23472689.511    23472693.614    15768375.869 9  10642208.536 8
  20786122.703    20786125.402   -42584298.537 9  40497157.220 8
  22380163.048    22380164.603   -43316793.161 9  61063941.208 8
  20653514.577    20653517.484   -47636016.349 9  60356668.294 8
 90  3  9  6 14 14.0800000  0  4G 6G12G11G13
  23483777.209    23483780.936    15826636.780 9  10687606.611 8
  20782468.525    20782470.824   -42603502.402 9  40482193.164 8
  22386351.325    22386353.469   -43284272.819 9  61089281.718 9
  20654094.885    20654095.578   -47632971.485 9  60359040.915 7
 90  3  9  6 14 29.0800000  0  4G 6G12G11G13
  23494874.958    23494878.357    15884957.453 9  10733051.247 9
  20778840.653    20778843.930   -42622566.335 9  40467338.156 7
  22392543.478    22392544.046   -43251736.731 9  61114634.514 8
  20654688.284    20654690.611   -47629847.900 9  60361474.862 8
 90  3  9  6 14 44.0800000  0  4G 6G12G11G13
  23505983.018    23505985.534    15943337.431 9  10778542.113 8
  20775239.639    20775241.631   -42641490.039 9  40452592.411 9
  22398736.259    22398738.859   -43219185.197 8  61139999.330 8
  20655297.852    20655299.812   -47626645.998 9  60363969.867 8
 90  3  9  6 14 59.0800000  0  4G 6G12G11G13
  23517104.446    23517107.123    16001776.386 8  10824078.966 9
  20771665.103    20771666.778   -42660273.290 9  40437956.098 8
  22404935.450    22404935.476   -43186618.377 9  61165376.065 9
  20655921.506    20655924.200   -47623365.647 9  60366525.994 8
 90  3  9  6 15 14.0800000  0  4G 6G12G11G13
  23528235.609    23528240.746    16060274.001 8  10869661.466 9
  20768117.565    20768120.376   -42678915.852 9  40423429.439 8
  22411134.993    22411136.299   -43154036.462 9  61190764.575 8
  20656559.968    20656563.054   -47620007.199 9  60369142.979 7
 90  3  9  6 15 29.0800000  0  4G 6G12G11G13
  23539378.813    23539383.480    16118829.850 9  10915289.357 9
  20764598.460    20764600.046   -42697417.408 9  40409012.635 8
  22417338.504    22417339.836   -43121439.718 9  61216164.619 9
  20657215.429    20657216.433   -47616570.885 9  60371820.638 8
 90  3  9  6 15 44.0800000  0  4G 6G12G11G13
  23550534.228    23550536.198    16177443.583 8  10960962.372 8
  20761104.244    20761106.308   -42715777.656 9  40394705.947 9
  22423543.120    22423545.908   -43088828.225 9  61241576.159 8
  20657882.622    20657886.019   -47613056.677 9  60374558.983 8
 90  3  9  6 15 59.0800000  0  4G 6G12G11G13
  23561696.917    23561701.249    16236114.792 9  11006680.177 9
  20757637.193    20757639.282   -42733996.530 9  40380509.411 8
  22429751.535    22429755.194   -43056202.155 9  61266999.041 9
  20658567.515    20658569.709   -47609464.942 9  60377357.724 8
 90  3  9  6 16 14.0800000  0  4G 6G12G11G13
  23572872.574    23572877.306    16294843.186 8  11052442.500 8
  20754196.390    20754198.792   -42752073.776 9  40366423.241 8
  22435963.196    22435965.796   -43023561.758 8  61292433.105 8
  20659264.615    20659267.484   -47605796.054 9  60380216.602 7
 90  3  9  6 16 29.0800000  0  4G 6G12G11G13
  23584061.041    23584063.056    16353628.283 9  11098249.056 8
  20750784.029    20750786.342   -42770009.127 9  40352447.654 8
  22442177.592    22442179.919   -42990907.144 9  61317878.245 9
  20659977.483    20659980.566   -47602050.261 9  60383135.413 8
 90  3  9  6 16 44.0800000  0  4G 6G12G11G13
  23595257.376    23595260.452    16412469.775 9  11144099.531 8
  20747398.471    20747400.312   -42787802.328 9  40338582.812 8
  22448394.192    22448396.916   -42958238.679 8  61343334.197 8
  20660705.277    20660707.105   -47598227.668 9  60386114.050 8
 90  3  9  6 16 59.0800000  0  4G 6G12G11G13
  23606466.037    23606467.945    16471367.283 9  11189993.673 9
  20744038.773    20744040.926   -42805453.202 9  40324828.882 8
  22454612.461    22454616.295   -42925556.398 9  61368800.889 9
  20661447.493    20661448.319   -47594328.525 9  60389152.347 8
 90  3  9  6 17 14.0800000  0  4G 6G12G11G13
  23617683.455    23617687.233    16530320.471 9  11235931.172 8
  20740707.072    20740709.483   -42822961.564 9  40311186.012 8
  22460834.899    22460836.938   -42892860.517 9  61394278.199 9
  20662203.776    20662206.106   -47590353.083 9  60392250.100 7
 90  3  9  6 17 29.0800000  0  4G 6G12G11G13
  23628910.924    23628915.818    16589328.945 8  11281911.763 9
  20737402.144    20737404.792   -42840327.065 9  40297654.448 8
  22467059.379    22467061.008   -42860151.181 9  61419765.982 8
  20662975.086    20662976.738   -47586301.253 9  60395407.368 9
 90  3  9  6 17 44.0800000  0  4G 6G12G11G13
  23640152.474    23640154.465    16648392.255 9  11327935.091 8
  20734124.862    20734127.329   -42857549.651 9  40284234.250 8
  22473286.919    22473287.943   -42827428.623 8  61445264.081 9
  20663760.673    20663762.027   -47582173.422 9  60398623.858 7
 90  3  9  6 17 59.0800000  0  4G 6G12G11G13
  23651402.367    23651405.346    16707510.078 9  11374000.923 9
  20730874.643    20730876.830   -42874628.962 9  40270925.683 8
  22479515.578    22479517.610   -42794693.059 9  61470772.305 8
  20664560.358    20664561.336   -47577969.962 9  60401899.294 8
 90  3  9  6 18 14.0800000  0  4G 6G12G11G13
  23662660.890    23662664.505    16766682.084 9  11420108.938 9
  20727652.439    20727655.082   -42891564.761 9  40257728.952 9
  22485747.775    22485749.834   -42761944.714 9  61496290.488 9
  20665374.204    20665376.303   -47573690.853 9  60405233.666 7
 90  3  9  6 18 29.0800000  0  4G 6G12G11G13
  23673932.311    23673936.028    16825907.854 9  11466258.833 8
  20724456.166    20724459.758   -42908356.802 9  40244644.250 9
  22491982.139    22491984.542   -42729183.678 9  61521818.535 8
  20666202.435    20666204.571   -47569336.400 9  60408626.758 7
 90  3  9  6 18 44.0800000  0  4G 6G12G11G13
  23685214.352    23685216.255    16885186.924 8  11512450.304 8
  20721288.363    20721292.104   -42925004.759 9  40231671.828 9
  22498218.426    22498221.114   -42696410.234 9  61547356.273 8
  20667045.549    20667046.584   -47564906.778 9  60412078.404 7
 90  3  9  6 18 59.0800000  0  4G 6G12G11G13
  23696503.071    23696505.997    16944518.974 9  11558683.056 8
  20718147.218    20718150.865   -42941508.570 9  40218811.713 8
  22504457.216    22504460.518   -42663624.545 9  61572903.553 9
  20667903.110    20667904.563   -47560402.197 9  60415588.471 8
 90  3  9  6 19 14.0800000  0  4G 6G12G11G13
  23707803.295    23707806.601    17003903.791 9  11604956.891 8
  20715035.161    20715037.059   -42957867.970 9  40206064.135 9
  22510698.198    22510700.528   -42630826.847 9  61598460.198 9
  20668775.079    20668776.562   -47555823.059 9  60419156.648 7
 90  3  9  6 19 29.0800000  0  4G 6G12G11G13
  23719114.998    23719117.749    17063340.798 9  11651271.417 9
  20711948.642    20711953.297   -42974082.721 9  40193429.247 9
  22516941.243    22516945.522   -42598017.302 9  61624026.064 9
  20669660.479    20669662.785   -47551169.504 9  60422782.797 8
 90  3  9  6 19 44.0800000  0  4G 6G12G11G13
  23730433.534    23730436.771    17122829.750 8  11697626.409 9
  20708892.322    20708894.942   -42990152.572 9  40180907.295 8
  22523186.863    22523190.866   -42565196.079 8  61649601.027 9
  20670559.908    20670561.890   -47546441.821 9  60426466.709 8
 90  3  9  6 19 59.0800000  0  4G 6G12G11G13
  23741763.565    23741766.557    17182370.240 9  11744021.553 9
  20705861.387    20705864.541   -43006077.362 9  40168498.366 8
  22529435.420    22529438.382   -42532363.313 9  61675184.992 9
  20671472.904    20671475.586   -47541639.974 9  60430208.401 7
 90  3  9  6 20 14.0800000  0  4G 6G12G11G13
  23753104.124    23753108.159    17241961.844 9  11790456.548 8
  20702859.536    20702861.311   -43021856.933 9  40156202.595 9
  22535685.377    22535688.891   -42499519.197 9  61700777.803 9
  20672402.112    20672403.568   -47536764.355 9  60434007.589 8
 90  3  9  6 20 29.0800000  0  4G 6G12G11G13
  23764453.378    23764456.709    17301604.159 9  11836931.047 9
  20699883.348    20699886.132   -43037491.010 9  40144020.200 9
  22541937.467    22541940.057   -42466663.892 8  61726379.345 9
  20673343.387    20673344.539   -47531815.082 9  60437864.193 8
 90  3  9  6 20 44.0800000  0  4G 6G12G11G13
  23775812.390    23775816.469    17361296.919 9  11883444.849 8
  20696935.923    20696938.112   -43052979.331 9  40131951.368 8
  22548191.498    22548195.706   -42433797.550 9  61751989.464 9
  20674299.383    20674300.165   -47526792.574 9  60441777.841 8
 90  3  9  6 20 59.0800000  0  4G 6G12G11G13
  23787181.705    23787185.141    17421039.685 8  11929997.622 9
  20694016.318    20694019.141   -43068321.677 9  40119996.290 9
  22554448.327    22554450.666   -42400920.490 9  61777607.939 9
  20675270.262    20675270.782   -47521696.924 9  60445748.485 8
 90  3  9  6 21 14.0800000  0  4G 6G12G11G13
  23798559.910    23798563.618    17480832.091 8  11976589.065 9
  20691124.651    20691126.961   -43083517.902 8  40108155.081 8
  22560706.087    22560708.751   -42368032.902 9  61803234.625 9
  20676253.558    20676255.197   -47516528.366 9  60449775.937 8
 90  3  9  6 21 29.0800000  0  4G 6G12G11G13
  23809946.669    23809951.102    17540673.697 9  12023218.859 9
  20688261.193    20688262.851   -43098567.781 9  40096427.920 8
  22566966.389    22566969.455   -42335134.922 9  61828869.402 9
  20677251.095    20677251.231   -47511287.017 9  60453860.109 7
 90  3  9  6 21 44.0800000  0  4G 6G12G11G13
  23821343.598    23821346.833    17600564.191 8  12069886.749 8
  20685425.967    20685427.456   -43113471.070 9  40084814.950 8
  22573228.046    22573231.509   -42302226.641 9  61854512.206 9
  20678261.839    20678262.944   -47505973.088 9  60458000.846 8
 90  3  9  6 21 59.0800000  0  4G 6G12G11G13
  23832750.549    23832754.043    17660503.215 9  12116592.446 9
  20682617.631    20682618.481   -43128227.636 9  40073316.334 9
  22579493.383    22579496.241   -42269308.401 9  61880162.778 9
  20679285.647    20679287.715   -47500586.878 9  60462197.887 7
 90  3  9  6 22 14.0800000  0  4G 6G12G11G13
  23844166.779    23844169.795    17720490.332 9  12163335.624 9
  20679837.192    20679838.692   -43142837.285 9  40061932.194 8
  22585760.065    22585762.044   -42236380.211 9  61905821.100 9
  20680324.004    20680327.048   -47495128.623 8  60466451.082 8
 90  3  9  6 22 29.0800000  0  4G 6G12G11G13
  23855589.750    23855594.506    17780525.239 8  12210116.050 9
  20677085.915    20677088.128   -43157299.707 9  40050662.781 9
  22592026.870    22592030.292   -42203442.249 9  61931487.042 9
  20681375.773    20681379.344   -47489598.568 9  60470760.221 8
 90  3  9  6 22 44.0800000  0  4G 6G12G11G13
  23867022.070    23867027.197    17840607.516 8  12256933.360 9
  20674360.475    20674362.919   -43171614.716 9  40039508.228 9
  22598296.345    22598300.580   -42170494.777 8  61957160.386 9
  20682441.735    20682445.375   -47483996.722 9  60475125.296 8
 90  3  9  6 22 59.0800000  0  4G 6G12G11G13
  23878465.045    23878469.558    17900736.825 8  12303787.325 9
  20671664.927    20671666.747   -43185782.263 9  40028468.579 8
  22604567.187    22604571.432   -42137537.924 8  61982841.045 8
  20683521.178    20683525.434   -47478323.380 9  60479546.088 8
 90  3  9  6 23 14.0800000  0  4G 6G12G11G13
  23889916.504    23889919.937    17960912.687 8  12350677.574 7
  20668996.666    20668998.982   -43199802.089 9  40017544.034 9
  22610840.588    22610843.793   -42104571.928 9  62008528.831 9
  20684614.699    20684618.059   -47472578.917 9  60484022.308 8
 90  3  9  6 23 29.0800000  0  4G 6G12G11G13
  23901378.583    23901380.775    18021134.744 9  12397603.821 9
  20666356.051    20666359.686   -43213673.988 9  40006734.765 8
  22617116.056    22617119.200   -42071596.900 9  62034223.663 9
  20685722.129    20685725.843   -47466763.444 9  60488553.849 8
 90  3  9  6 23 44.0800000  0  4G 6G12G11G13
  23912845.534    23912849.970    18081402.668 8  12444565.794 8
  20663744.826    20663746.822   -43227397.635 9  39996041.015 8
  22623392.771    22623395.661   -42038612.965 8  62059925.412 8
  20686842.910    20686843.680   -47460877.150 9  60493140.579 8
 90  3  9  6 23 59.0800000  0  4G 6G12G11G13
  23924321.889    23924326.502    18141716.040 9  12491563.199 8
  20661161.087    20661164.230   -43240972.912 9  39985462.881 8
  22629670.546    22629673.603   -42005620.395 8  62085633.895 8
  20687976.700    20687978.166   -47454920.303 9  60497782.286 8
 90  3  9  6 24 14.0800000  0  4G 6G12G11G13
  23935806.843    23935812.883    18202074.597 8  12538595.796 8
  20658607.071    20658609.284   -43254399.632 9  39975000.504 9
  22635951.005    22635953.347   -41972619.350 8  62111348.989 9
  20689123.367    20689124.360   -47448893.162 9  60502478.772 8
 90  3  9  6 24 29.0800000  0  4G 6G12G11G13
  23947302.874    23947308.894    18262477.835 9  12585663.199 8
  20656080.099    20656082.006   -43267677.559 9  39964654.065 8
  22642233.381    22642235.058   -41939610.014 8  62137070.553 8
  20690283.167    20690284.635   -47442795.754 9  60507230.010 8
 90  3  9  6 24 44.0800000  0  4G 6G12G11G13
  23958805.455    23958810.193    18322925.456 9  12632765.213 8
  20653581.720    20653584.492   -43280806.701 9  39954423.560 8
  22648516.691    22648517.321   -41906592.486 8  62162798.508 9
  20691457.379    20691459.501   -47436628.212 9  60512035.886 8
 90  3  9  6 24 59.0800000  0  4G 6G12G11G13
  23970315.896    23970321.745    18383417.045 8  12679901.493 8
  20651112.086    20651114.794   -43293786.800 9  39944309.197 8
  22654801.050    22654802.654   -41873566.920 9  62188532.715 9
  20692644.212    20692646.279   -47430390.945 9  60516896.094 8
 90  3  9  6 25 14.0800000  0  4G 6G12G11G13
  23981834.800    23981840.898    18443952.235 8  12727071.708 8
  20648668.935    20648672.541   -43306617.675 9  39934311.122 8
  22661086.803    22661088.375   -41840533.612 8  62214272.935 9
  20693843.505    20693845.990   -47424084.424 9  60521810.270 7
 90  3  9  6 25 29.0800000  0  4G 6G12G11G13
  23993364.174    23993368.029    18504530.596 8  12774275.602 8
  20646255.875    20646259.886   -43319299.108 9  39924429.471 8
  22667374.097    22667375.732   -41807492.686 9  62240019.109 9
  20695057.399    20695059.122   -47417708.703 9  60526778.395 9
 90  3  9  6 25 44.0800000  0  4G 6G12G11G13
  24004897.740    24004903.283    18565151.792 8  12821512.870 8
  20643872.116    20643874.515   -43331830.899 9  39914664.448 8
  22673662.864    22673665.141   -41774444.219 9  62265771.155 8
  20696284.179    20696286.674   -47411263.859 9  60531800.345 7
 90  3  9  6 25 59.0800000  0  4G 6G12G11G13
  24016442.590    24016447.960    18625815.443 9  12868783.187 9
  20641515.140    20641518.123   -43344212.843 9  39905016.176 8
  22679953.482    22679954.125   -41741388.514 9  62291528.834 8
  20697523.241    20697526.337   -47404750.140 9  60536875.976 7
 90  3  9  6 26 14.0800000  0  4G 6G12G11G13
  24027994.511    24028000.197    18686521.167 9  12916086.319 8
  20639187.318    20639191.071   -43356444.837 9  39895484.748 8
  22686243.248    22686246.282   -41708325.685 8  62317292.058 9
  20698776.427    20698778.850   -47398167.978 9  60542004.930 8
 90  3  9  6 26 29.0800000  0  4G 6G12G11G13
  24039555.671    24039559.288    18747268.611 9  12963421.945 8
  20636889.171    20636892.550   -43368526.684 9  39886070.332 9
  22692537.271    22692540.220   -41675255.793 9  62343060.794 9
  20700041.787    20700042.607   -47391517.381 9  60547187.238 8
 90  3  9  6 26 44.0800000  0  4G 6G12G11G13
  24051122.987    24051125.819    18808057.406 8  13010789.821 8
  20634619.641    20634621.098   -43380458.178 9  39876773.065 8
  22698832.591    22698835.546   -41642178.948 9  62368834.942 8
  20701320.884    20701321.079   -47384798.539 9  60552422.685 8
 90  3  9  6 26 59.0800000  0  4G 6G12G11G13
  24062697.578    24062702.616    18868887.117 8  13058189.563 8
  20632377.860    20632379.163   -43392239.070 9  39867593.149 8
  22705127.737    22705130.291   -41609095.506 9  62394614.239 9
  20702610.771    20702613.598   -47378011.736 9  60557711.095 8
 90  3  9  6 27 14.0800000  0  4G 6G12G11G13
  24074281.645    24074285.496    18929757.341 8  13105620.861 8
  20630163.734    20630166.493   -43403869.180 9  39858530.731 9
  22711424.182    22711427.443   -41576005.709 9  62420398.497 9
  20703915.798    20703917.163   -47371157.025 9  60563052.454 7
 90  3  9  6 27 29.0800000  0  4G 6G12G11G13
  24085873.172    24085877.508    18990667.755 8  13153083.499 9
  20627980.471    20627982.401   -43415348.384 9  39849585.889 8
  22717722.688    22717725.368   -41542909.567 9  62446187.696 9
  20705233.058    20705234.642   -47364234.798 9  60568446.401 8
 90  3  9  6 27 44.0800000  0  4G 6G12G11G13
  24097471.138    24097476.118    19051618.030 8  13200577.170 8
  20625824.738    20625826.824   -43426676.466 9  39840758.817 8
  22724021.956    22724024.062   -41509807.277 9  62471981.699 8
  20706562.196    20706563.791   -47357244.999 9  60573893.002 7
 90  3  9  6 27 59.0800000  0  4G 6G12G11G13
  24109077.524    24109080.797    19112607.722 8  13248101.579 9
  20623697.095    20623700.175   -43437853.204 9  39832049.673 8
  22730321.609    22730324.632   -41476698.928 9  62497780.406 9
  20707905.101    20707906.850   -47350188.373 9  60579391.683 8
 90  3  9  6 28 14.0800000  0  4G 6G12G11G13
  24120690.626    24120694.148    19173636.457 8  13295656.414 9
  20621599.242    20621601.841   -43448878.610 9  39823458.441 8
  22736623.129    22736626.952   -41443584.795 8  62523583.615 9
  20709259.939    20709263.593   -47343064.938 9  60584942.425 8
 90  3  9  6 28 29.0800000  0  4G 6G12G11G13
  24132312.098    24132314.279    19234703.922 8  13343241.411 9
  20619530.061    20619531.570   -43459752.439 9  39814985.332 7
  22742926.795    22742928.548   -41410464.943 8  62549391.291 9
  20710628.649    20710632.093   -47335874.751 9  60590545.169 8
 90  3  9  6 28 44.0800000  0  4G 6G12G11G13
  24143939.528    24143943.266    19295809.546 8  13390856.142 8
  20617489.557    20617491.749   -43470474.463 9  39806630.496 8
  22749228.554    22749232.639   -41377339.680 9  62575203.181 9
  20712009.460    20712013.159   -47328618.211 9  60596199.631 8
 90  3  9  6 28 59.0800000  0  4G 6G12G11G13
  24155574.669    24155578.577    19356953.116 9  13438500.470 9
  20615477.885    20615481.091   -43481044.649 9  39798393.989 8
  22755534.587    22755536.648   -41344209.085 9  62601019.229 9
  20713403.489    20713406.817   -47321295.421 9  60601905.704 8
 90  3  9  6 29 14.0800000  0  4G 6G12G11G13
  24167217.315    24167221.472    19418134.182 8  13486173.977 8
  20613493.866    20613498.329   -43491462.825 9  39790275.927 7
  22761839.751    22761841.989   -41311073.222 9  62626839.381 9
  20714809.894    20714813.152   -47313906.517 9  60607663.290 8
 90  3  9  6 29 29.0800000  0  4G 6G12G11G13
  24178867.220    24178870.094    19479352.391 9  13533876.440 8
  20611540.613    20611545.971   -43501728.715 9  39782276.535 8
  22768145.677    22768148.308   -41277932.305 8  62652663.474 9
  20716228.464    20716230.902   -47306451.847 9  60613472.145 7
 90  3  9  6 29 44.0800000  0  4G 6G12G11G13
  24190522.207    24190527.070    19540607.425 9  13581607.590 7
  20609616.107    20609619.971   -43511842.184 8  39774395.919 8
  22774451.817    22774456.548   -41244786.476 9  62678491.394 8
  20717659.612    20717661.193   -47298931.638 9  60619332.053 8
 90  3  9  6 29 59.0800000  0  4G 6G12G11G13
  24202186.688    24202189.207    19601898.848 9  13629367.107 8
  20607721.193    20607725.910   -43521803.052 9  39766634.200 8
  22780761.864    22780764.249   -41211635.882 9  62704323.015 9
  20719102.419    20719105.303   -47291345.962 9  60625242.983 8
 90  3  9  6 30 14.0800000  0  4G 6G12G11G13
  24213857.338    24213861.262    19663226.237 9  13677154.662 8
  20605854.891    20605859.127   -43531611.275 9  39758991.447 8
  22787071.321    22787072.861   -41178480.752 8  62730158.183 9
  20720558.709    20720560.577   -47283695.106 9  60631204.694 6
 90  3  9  6 30 29.0800000  0  4G 6G12G11G13
  24225534.107    24225538.642    19724589.303 8  13724970.002 9
  20604017.791    20604022.079   -43541266.601 9  39751467.818 9
  22793380.397    22793384.268   -41145321.200 8  62755996.794 9
  20722026.749    20722028.354   -47275979.313 9  60637217.012 8
 90  3  9  6 30 44.0800000  0  4G 6G12G11G13
  24237217.926    24237220.745    19785987.649 9  13772812.829 8
  20602210.094    20602211.559   -43550769.011 8  39744063.352 9
  22799691.217    22799693.175   -41112157.472 9  62781838.663 8
  20723507.818    20723508.642   -47268198.740 9  60643279.789 7
 90  3  9  6 30 59.0800000  0  4G 6G12G11G13
  24248907.095    24248909.770    19847420.824 9  13820682.808 8
  20600430.960    20600433.431   -43560118.242 9  39736778.237 9
  22806003.406    22806006.089   -41078989.624 9  62807683.731 8
  20724999.853    20725002.665   -47260353.792 9  60649392.747 8
 90  3  9  6 31 14.0800000  0  4G 6G12G11G13
  24260605.266    24260609.125    19908888.526 8  13868579.686 8
  20598680.864    20598682.798   -43569314.154 9  39729612.604 8
  22812315.512    22812318.229   -41045817.717 9  62833531.958 9
  20726505.423    20726508.188   -47252444.369 9  60655555.954 8
 90  3  9  6 31 29.0800000  0  4G 6G12G11G13
  24272308.926    24272311.419    19970390.317 8  13916503.108 8
  20596960.701    20596962.863   -43578356.674 9  39722566.485 8
  22818627.583    22818631.523   -41012642.047 9  62859383.127 9
  20728022.697    20728025.651   -47244471.013 9  60661768.960 8
 90  3  9  6 31 44.0800000  0  4G 6G12G11G13
  24284017.121    24284021.422    20031925.899 8  13964452.885 7
  20595268.579    20595270.818   -43587245.649 9  39715640.018 9
  22824942.632    22824945.743   -40979462.776 8  62885237.110 9
  20729552.720    20729554.073   -47236433.928 9  60668031.636 8
 90  3  9  6 31 59.0800000  0  4G 6G12G11G13
  24295733.065    24295738.371    20093494.798 8  14012428.616 8
  20593605.310    20593609.441   -43595980.836 9  39708833.393 8
  22831255.977    22831259.896   -40946279.970 9  62911093.825 8
  20731093.933    20731096.719   -47228333.075 9  60674343.990 9
 90  3  9  6 32 14.0800000  0  4G 6G12G11G13
  24307457.260    24307460.144    20155096.680 9  14060430.052 8
  20591971.848    20591976.322   -43604562.124 9  39702146.670 8
  22837571.869    22837576.062   -40913093.777 9  62936953.188 9
  20732647.482    20732650.463   -47220168.848 9  60680705.725 8
 90  3  9  6 32 29.0800000  0  4G 6G12G11G13
  24319185.023    24319189.576    20216731.195 9  14108456.921 8
  20590368.941    20590372.404   -43612989.466 9  39695579.918 8
  22843887.620    22843890.415   -40879904.346 9  62962815.083 9
  20734213.406    20734216.866   -47211941.497 9  60687116.659 8
 90  3  9  6 32 44.0800000  0  4G 6G12G11G13
  24330921.407    24330924.516    20278397.914 9  14156508.882 8
  20588796.115    20588797.884   -43621262.691 9  39689133.254 9
  22850203.629    22850207.408   -40846711.872 8  62988679.333 8
  20735791.267    20735792.992   -47203651.208 9  60693576.634 8
 90  3  9  6 32 59.0800000  0  4G 6G12G11G13
  24342661.998    24342664.079    20340096.454 8  14204585.632 8
  20587250.238    20587253.630   -43629381.647 9  39682806.799 8
  22856521.817    22856523.906   -40813516.457 8  63014545.892 9
  20737380.631    20737381.941   -47195298.258 9  60700085.435 8
 90  3  9  6 33 14.0800000  0  4G 6G12G11G13
  24354407.628    24354411.819    20401826.491 9  14252686.927 8
  20585735.997    20585737.623   -43637346.158 8  39676600.700 8
  22862837.243    22862841.906   -40780318.260 9  63040414.600 9
  20738980.898    20738983.366   -47186882.980 9  60706642.797 8
 90  3  9  6 33 29.0800000  0  4G 6G12G11G13
  24366161.647    24366163.166    20463587.608 8  14300812.437 9
  20584248.737    20584251.270   -43645156.149 9  39670514.996 8
  22869157.386    22869159.111   -40747117.498 9  63066285.299 9
  20740594.787    20740595.841   -47178405.373 9  60713248.734 8
 90  3  9  6 33 44.0800000  0  4G 6G12G11G13
  24377920.483    24377923.125    20525379.380 8  14348961.843 8
  20582792.342    20582794.016   -43652811.457 9  39664549.829 9
  22875474.635    22875478.189   -40713914.341 8  63092157.906 9
  20742219.125    20742221.452   -47169865.458 9  60719903.212 8
 90  3  9  6 33 59.0800000  0  4G 6G12G11G13
  24389684.471    24389687.920    20587201.538 9  14397134.907 9
  20581365.684    20581367.081   -43660311.984 9  39658705.268 8
  22881794.301    22881797.026   -40680708.891 8  63118032.268 9
  20743857.468    20743857.567   -47161263.622 9  60726605.960 7
 90  3  9  6 34 14.0800000  0  4G 6G12G11G13
  24401453.636    24401458.292    20649053.638 9  14445331.292 8
  20579966.969    20579969.754   -43667657.483 9  39652981.507 9
  22888112.402    22888116.502   -40647501.235 9  63143908.352 9
  20745506.018    20745507.412   -47152599.931 9  60733356.884 8
 90  3  9  6 34 29.0800000  0  4G 6G12G11G13
  24413229.694    24413233.508    20710935.238 9  14493550.678 8
  20578599.045    20578601.481   -43674848.048 9  39647378.464 8
  22894431.645    22894435.559   -40614291.618 9  63169785.986 9
  20747165.696    20747167.908   -47143874.904 9  60740155.620 8
 90  3  9  6 34 44.0800000  0  4G 6G12G11G13
  24425010.677    24425015.541    20772846.034 9  14541792.814 8
  20577259.482    20577263.108   -43681883.498 8  39641896.298 8
  22900751.387    22900755.905   -40581080.182 9  63195665.028 9
  20748836.925    20748838.907   -47135088.740 9  60747001.997 8
 90  3  9  6 34 59.0800000  0  4G 6G12G11G13
  24436798.762    24436801.903    20834785.610 9  14590057.407 8
  20575949.481    20575952.902   -43688763.684 9  39636535.127 8
  22907071.116    22907076.112   -40547866.992 8  63221545.415 9
  20750520.529    20750523.301   -47126241.527 9  60753895.940 7
 90  3  9  6 35 14.0800000  0  4G 6G12G11G13
  24448590.270    24448593.762    20896753.715 9  14638344.192 7
  20574670.480    20574672.641   -43695488.375 8  39631295.100 8
  22913392.410    22913396.379   -40514652.160 9  63247427.104 8
  20752215.924    20752217.845   -47117333.670 9  60760837.132 8
 90  3  9  6 35 29.0800000  0  4G 6G12G11G13
  24460386.854    24460391.696    20958749.843 9  14686652.809 8
  20573420.077    20573422.871   -43702057.497 9  39626176.313 8
  22919713.839    22919717.273   -40481435.773 8  63273309.993 8
  20753922.637    20753923.847   -47108365.133 9  60767825.599 8
 90  3  9  6 35 44.0800000  0  4G 6G12G11G13
  24472190.568    24472194.506    21020773.581 8  14734982.969 9
  20572199.520    20572203.063   -43708470.699 8  39621179.020 8
  22926035.984    22926038.317   -40448218.112 9  63299193.875 8
  20755641.272    20755643.411   -47099336.187 9  60774861.156 7
 90  3  9  6 35 59.0800000  0  4G 6G12G11G13
  24483998.265    24484001.580    21082824.678 8  14783334.439 8
  20571009.731    20571012.350   -43714728.018 9  39616303.199 8
  22932356.633    22932359.640   -40414999.244 8  63325078.699 9
  20757370.550    20757372.475   -47090246.981 9  60781943.656 7
 90  3  9  6 36 14.0800000  0  4G 6G12G11G13
  24495811.544    24495815.936    21144902.642 8  14831706.836 8
  20569848.741    20569850.530   -43720829.544 8  39611548.768 8
  22938678.003    22938680.419   -40381779.315 9  63350964.356 9
  20759111.819    20759112.641   -47081097.717 9  60789072.965 8
 90  3  9  6 36 29.0800000  0  4G 6G12G11G13
  24507629.753    24507633.002    21207007.183 8  14880099.968 8
  20568718.552    20568720.888   -43726775.073 9  39606915.908 9
  22945000.141    22945002.515   -40348558.558 8  63376850.648 8
  20760864.025    20760866.065   -47071888.902 9  60796248.660 8
 90  3  9  6 36 44.0800000  0  4G 6G12G11G13
  24519452.176    24519456.672    21269137.844 8  14928513.441 8
  20567616.376    20567618.136   -43732564.517 9  39602404.648 8
  22951322.552    22951324.132   -40315337.065 9  63402737.525 9
  20762628.174    20762629.526   -47062620.605 9  60803470.715 8
 90  3  9  6 36 59.0800000  0  4G 6G12G11G13
  24531280.001    24531284.305    21331294.285 9  14976947.006 8
  20566543.395    20566545.989   -43738197.739 9  39598015.126 8
  22957643.171    22957645.929   -40282114.897 8  63428624.928 9
  20764403.330    20764404.727   -47053292.904 9  60810739.046 8
 90  3  9  6 37 14.0800000  0  4G 6G12G11G13
  24543112.998    24543118.675    21393476.167 8  15025400.382 8
  20565501.392    20565503.524   -43743674.711 9  39593747.362 8
  22963965.762    22963968.115   -40248892.116 9  63454512.790 9
  20766189.100    20766190.457   -47043905.977 9  60818053.540 8
 90  3  9  6 37 29.0800000  0  4G 6G12G11G13
  24554949.578    24554956.126    21455683.037 8  15073873.211 8
  20564489.328    20564491.658   -43748995.155 9  39589601.556 8
  22970287.393    22970290.733   -40215669.017 9  63480400.915 8
  20767985.593    20767987.516   -47034460.281 9  60825413.834 8
 90  3  9  6 37 44.0800000  0  4G 6G12G11G13
  24566792.527    24566797.511    21517914.578 8  15122365.258 8
  20563506.178    20563509.275   -43754159.128 9  39585577.677 7
  22976609.755    22976612.072   -40182445.645 9  63506289.250 8
  20769793.314    20769796.910   -47024955.949 9  60832819.807 8
 90  3  9  6 37 59.0800000  0  4G 6G12G11G13
  24578638.976    24578643.797    21580170.362 8  15170876.256 8
  20562551.795    20562555.653   -43759166.427 9  39581675.871 8
  22982932.576    22982934.978   -40149222.175 9  63532177.660 8
  20771613.530    20771616.323   -47015393.173 9  60840271.333 8
 90  3  9  6 38 14.0800000  0  4G 6G12G11G13
  24590491.242    24590496.965    21642450.033 8  15219405.849 8
  20561630.836    20561631.629   -43764016.924 9  39577896.276 8
  22989254.227    22989257.539   -40115998.739 9  63558066.054 9
  20773445.149    20773446.812   -47005772.147 9  60847768.247 7
 90  3  9  6 38 29.0800000  0  4G 6G12G11G13
  24602347.519    24602351.954    21704753.221 9  15267953.743 8
  20560737.332    20560739.663   -43768710.439 9  39574238.977 8
  22995577.257    22995579.872   -40082775.471 9  63583954.312 8
  20775287.355    20775288.461   -46996092.976 9  60855310.458 8
 90  3  9  6 38 44.0800000  0  4G 6G12G11G13
  24614207.574    24614212.835    21767079.548 9  15316519.667 8
  20559874.037    20559875.101   -43773247.026 9  39570703.984 8
  23001898.772    23001902.883   -40049552.611 9  63609842.237 9
  20777141.568    20777141.561   -46986355.965 9  60862897.754 8
 90  3  9  6 38 59.0800000  0  4G 6G12G11G13
  24626072.283    24626077.195    21829428.599 9  15365103.314 8
  20559040.335    20559042.793   -43777626.648 9  39567291.305 7
  23008221.097    23008224.569   -40016330.177 9  63635729.834 9
  20779004.009    20779006.936   -46976561.395 9  60870529.880 8
 90  3  9  6 39 14.0800000  0  4G 6G12G11G13
  24637940.743    24637944.862    21891800.026 8  15413704.393 7
  20558237.274    20558238.680   -43781849.125 8  39564001.055 9
  23014542.938    23014545.312   -39983108.246 9  63661617.050 9
  20780879.170    20780882.066   -46966709.558 9  60878206.649 8
 90  3  9  6 39 29.0800000  0  4G 6G12G11G13
  24649813.983    24649818.005    21954193.479 9  15462322.636 8
  20557464.203    20557466.035   -43785914.404 9  39560833.304 8
  23020864.433    23020867.028   -39949887.000 9  63687503.735 8
  20782764.705    20782766.789   -46956800.624 9  60885927.901 8
 90  3  9  6 39 44.0800000  0  4G 6G12G11G13
  24661691.103    24661695.509    22016608.536 8  15510957.710 8
  20556720.028    20556722.060   -43789822.237 8  39557788.241 8
  23027186.332    23027188.999   -39916666.484 7  63713389.842 9
  20784660.859    20784663.071   -46946834.932 9  60893693.382 8
 90  3  9  6 39 59.0800000  0  4G 6G12G11G13
  24673571.732    24673577.136    22079044.863 8  15559609.347 8
  20556006.020    20556008.003   -43793572.621 9  39554865.849 7
  23033508.436    23033510.769   -39883447.000 9  63739275.137 9
  20786569.334    20786569.396   -46936812.429 9  60901503.125 7
 90  3  9  6 40 14.0800000  0  4G 6G12G11G13
  24685458.255    24685461.779    22141502.088 9  15608277.283 8
  20555321.791    20555325.598   -43797165.473 9  39552066.225 8
  23039830.000    23039831.927   -39850228.533 9  63765159.649 9
  20788487.264    20788488.287   -46926733.434 9  60909356.889 7
 90  3  9  6 40 29.0800000  0  4G 6G12G11G13
  24697348.223    24697350.613    22203979.814 9  15656961.197 9
  20554668.551    20554671.296   -43800600.728 9  39549389.417 8
  23046150.780    23046152.383   -39817011.301 9  63791043.198 8
  20790415.402    20790417.165   -46916598.131 9  60917254.524 8
 90  3  9  6 40 44.0800000  0  4G 6G12G11G13
  24709240.046    24709244.164    22266477.623 8  15705660.758 8
  20554044.470    20554046.792   -43803878.338 9  39546835.424 8
  23052471.425    23052473.674   -39783795.349 9  63816925.753 8
  20792354.125    20792356.492   -46906406.616 9  60925195.966 8
 90  3  9  6 40 59.0800000  0  4G 6G12G11G13
  24721136.966    24721142.012    22328995.095 9  15754375.622 8
  20553451.638    20553453.911   -43806998.224 9  39544404.351 7
  23058790.585    23058793.046   -39750580.854 9  63842807.173 8
  20794304.334    20794307.061   -46896159.414 9  60933180.804 8
 90  3  9  6 41 14.0800000  0  4G 6G12G11G13
  24733037.457    24733041.144    22391532.010 8  15803105.652 8
  20552887.467    20552889.693   -43809960.243 8  39542096.286 8
  23065111.364    23065113.956   -39717367.963 9  63868687.342 9
  20796264.925    20796267.511   -46885856.481 9  60941209.058 8
 90  3  9  6 41 29.0800000  0  4G 6G12G11G13
  24744940.781    24744945.718    22454087.920 8  15851850.467 8
  20552352.504    20552356.258   -43812764.333 8  39539911.292 8
  23071431.226    23071434.587   -39684156.814 9  63894566.143 9
  20798235.914    20798239.740   -46875498.079 9  60949280.549 8
 90  3  9  6 41 44.0800000  0  4G 6G12G11G13
  24756846.509    24756854.366    22516662.422 7  15900609.755 8
  20551850.302    20551853.519   -43815410.435 8  39537849.384 8
  23077751.673    23077753.662   -39650947.432 9  63920443.566 9
  20800218.425    20800220.621   -46865084.411 9  60957395.105 8
 90  3  9  6 41 59.0800000  0  4G 6G12G11G13
  24768760.661    24768763.740    22579255.161 8  15949383.269 8
  20551376.877    20551378.540   -43817898.585 8  39535910.565 8
  23084071.349    23084071.972   -39617740.069 9  63946319.434 8
  20802210.378    20802211.348   -46854615.635 9  60965552.590 7
 90  3  9  6 42 14.0800000  0  4G 6G12G11G13
  24780674.682    24780678.516    22641865.723 9  15998170.681 7
  20550933.638    20550935.230   -43820228.452 8  39534095.086 8
  23090388.495    23090391.038   -39584534.751 9  63972193.709 9
  20804212.834    20804214.908   -46844092.011 9  60973752.824 8
 90  3  9  6 42 29.0800000  0  4G 6G12G11G13
  24792590.776    24792595.661    22704493.786 8  16046971.742 8
  20550519.946    20550521.838   -43822400.165 9  39532402.855 7
  23096707.055    23096709.234   -39551331.668 9  63998066.221 9
  20806226.051    20806227.503   -46833513.719 9  60981995.641 8
 90  3  9  6 42 44.0800000  0  4G 6G12G11G13
  24804512.534    24804516.459    22767139.013 8  16095786.156 7
  20550137.327    20550139.474   -43824413.660 9  39530833.892 8
  23103025.726    23103027.719   -39518130.964 8  64023936.891 9
  20808249.327    20808250.365   -46822881.012 9  60990280.874 8
 90  3  9  6 42 59.0800000  0  4G 6G12G11G13
  24816436.415    24816441.368    22829800.945 8  16144613.590 8
  20549784.682    20549786.575   -43826268.831 9  39529388.303 8
  23109343.072    23109344.904   -39484932.672 9  64049805.678 9
  20810281.632    20810283.958   -46812194.263 9  60998608.206 7
 90  3  9  6 43 14.0800000  0  4G 6G12G11G13
  24828364.157    24828368.896    22892479.184 8  16193453.730 9
  20549461.888    20549463.078   -43827965.546 8  39528066.186 8
  23115660.532    23115663.078   -39451736.864 9  64075672.521 9
  20812325.586    20812328.392   -46801453.587 9  61006977.577 8
 90  3  9  6 43 29.0800000  0  4G 6G12G11G13
  24840293.445    24840299.394    22955173.412 9  16242306.343 7
  20549169.585    20549170.576   -43829503.778 9  39526867.567 7
  23121977.220    23121978.719   -39418543.839 9  64101537.223 9
  20814379.225    20814382.564   -46790659.173 9  61015388.811 8
 90  3  9  6 43 44.0800000  0  4G 6G12G11G13
  24852228.029    24852233.772    23017883.205 8  16291171.076 8
  20548905.818    20548908.014   -43830883.590 9  39525792.393 8
  23128292.039    23128294.764   -39385353.647 9  64127399.698 9
  20816443.928    20816446.838   -46779811.251 9  61023841.735 8
 90  3  9  6 43 59.0800000  0  4G 6G12G11G13
  24864165.533    24864168.627    23080608.273 9  16340047.703 8
  20548673.105    20548674.683   -43832104.896 9  39524840.739 8
  23134607.591    23134610.334   -39352166.314 9  64153259.951 9
  20818519.188    20818520.183   -46768909.867 9  61032336.323 7
 90  3  9  6 44 14.0800000  0  4G 6G12G11G13
  24876103.604    24876106.300    23143348.158 9  16388935.921 8
  20548469.975    20548472.832   -43833167.586 9  39524012.681 8
  23140921.352    23140925.892   -39318981.922 8  64179117.898 9
  20820602.306    20820605.321   -46757955.312 9  61040872.337 8
 90  3  9  6 44 29.0800000  0  4G 6G12G11G13
  24888045.607    24888049.079    23206102.555 9  16437835.396 8
  20548298.626    20548300.973   -43834071.545 9  39523308.282 8
  23147235.921    23147238.581   -39285800.738 8  64204973.349 8
  20822697.026    20822699.556   -46746947.913 9  61049449.537 8
 90  3  9  6 44 44.0800000  0  4G 6G12G11G13
  24899989.322    24899994.021    23268871.080 8  16486745.874 7
  20548157.148    20548159.907   -43834816.729 8  39522727.622 8
  23153550.461    23153552.029   -39252622.802 8  64230826.284 9
  20824801.553    20824804.005   -46735887.868 9  61058067.763 8
 90  3  9  6 44 59.0800000  0  4G 6G12G11G13
  24911936.981    24911941.044    23331653.336 8  16535667.083 8
  20548045.356    20548048.147   -43835403.059 9  39522270.733 9
  23159863.419    23159865.420   -39219448.234 9  64256676.592 9
  20826916.652    20826918.473   -46724775.171 9  61066726.998 8
 90  3  9  6 45 14.0800000  0  4G 6G12G11G13
  24923885.641    24923890.565    23394448.899 9  16584598.645 7
  20547964.092    20547967.117   -43835830.489 9  39521937.677 8
  23166175.349    23166177.304   -39186277.117 9  64282524.204 9
  20829041.351    20829044.560   -46713610.288 9  61075426.911 8
 90  3  9  6 45 29.0800000  0  3G12G11G13
  20547913.287    20547916.159   -43836098.984 9  39521728.454 8
  23172486.085    23172489.741   -39153109.494 9  64308369.092 9
  20831174.650    20831178.834   -46702393.216 9  61084167.490 8
 90  3  9  6 45 44.0800000  0  3G12G11G13
  20547892.209    20547895.398   -43836208.620 9  39521643.028 8
  23178798.201    23178801.056   -39119945.560 9  64334211.098 8
  20833320.340    20833322.552   -46691124.268 9  61092948.484 8
 90  3  9  6 45 59.0800000  0  3G12G11G13
  20547901.508    20547905.459   -43836159.036 9  39521681.681 8
  23185108.847    23185111.490   -39086785.326 9  64360050.236 9
  20835474.805    20835476.569   -46679803.437 9  61101769.925 8
 90  3  9  6 46 14.0800000  0  3G12G11G13
  20547941.937    20547944.735   -43835950.645 9  39521844.061 9
  23191417.843    23191419.858   -39053629.235 9  64385886.144 9
  20837639.098    20837640.264   -46668431.149 9  61110631.439 7
 90  3  9  6 46 29.0800000  0  3G12G11G13
  20548010.508    20548014.597   -43835583.130 8  39522130.448 9
  23197725.920    23197729.278   -39020477.252 9  64411718.845 9
  20839812.993    20839814.457   -46657007.436 9  61119533.035 8
 90  3  9  6 46 44.0800000  0  3G12G11G13
  20548112.461    20548114.712   -43835056.551 9  39522540.775 9
  23204033.469    23204037.572   -38987329.373 8  64437548.345 9
  20841997.863    20841997.728   -46645532.598 9  61128474.476 7
 90  3  9  6 46 59.0800000  0  3G12G11G13
  20548242.274    20548245.100   -43834370.791 9  39523075.128 9
  23210341.419    23210344.159   -38954185.729 9  64463374.561 9
  20844191.059    20844192.410   -46634007.019 9  61137455.447 8
 90  3  9  6 47 14.0800000  0  3G12G11G13
  20548403.425    20548405.130   -43833525.781 8  39523733.568 8
  23216647.199    23216650.953   -38921046.357 8  64489197.442 9
  20846394.402    20846396.541   -46622430.715 9  61146475.933 8
 90  3  9  6 47 29.0800000  0  3G12G11G13
  20548593.807    20548595.741   -43832521.595 8  39524516.041 8
  23222952.204    23222955.600   -38887911.460 8  64515016.823 8
  20848606.847    20848607.652   -46610804.086 9  61155535.648 7
 90  3  9  6 47 44.0800000  0  3G12G11G13
  20548814.779    20548818.020   -43831358.233 9  39525422.561 8
  23229255.695    23229259.171   -38854781.206 9  64540832.589 8
  20850828.348    20850829.986   -46599127.507 9  61164634.277 7
 90  3  9  6 47 59.0800000  0  4G 3G12G11G13
                  22670767.853   -67037412.628 9
  20549066.900    20549069.875   -43830035.640 8  39526453.150 8
  23235560.379    23235562.415   -38821655.609 8  64566644.721 8
  20853059.364    20853060.397   -46587400.770 9  61173772.007 8
 90  3  9  6 48 14.0800000  0  4G 3G12G11G13
                  22666195.688   -67061651.619 9
  20549347.838    20549351.018   -43828553.774 8  39527607.828 9
  23241863.180    23241865.379   -38788534.851 9  64592453.103 9
  20855299.795    20855301.702   -46575624.057 9  61182948.661 7
 90  3  9  6 48 29.0800000  0  4G 3G12G11G13
  22661595.476    22661597.629   -67085833.796 9  85144900.774 9
  20549659.455    20549664.511   -43826912.623 8  39528886.658 8
  23248163.749    23248166.627   -38755419.017 9  64618257.650 9
  20857550.104    20857552.452   -46563797.832 9  61192163.895 7
 90  3  9  6 48 44.0800000  0  4G 3G12G11G13
  22657003.443    22657006.179   -67109959.135 9  85126101.822 9
  20550002.611    20550007.015   -43825112.042 8  39530289.709 8
  23254465.826    23254468.738   -38722308.119 9  64644058.321 9
  20859809.250    20859811.442   -46551922.238 9  61201417.600 7
 90  3  9  6 48 59.0800000  0  4G 3G12G11G13
  22652423.205    22652425.692   -67134027.698 9  85107347.115 9
  20550376.132    20550379.299   -43823152.085 9  39531816.938 8
  23260765.534    23260767.439   -38689202.317 8  64669855.050 9
  20862078.702    20862079.795   -46539997.520 9  61210709.576 7
 90  3  9  6 49 14.0800000  0  4G 3G12G11G13
  22647853.672    22647855.429   -67158039.515 9  85088636.628 8
  20550780.006    20550783.235   -43821032.746 8  39533468.376 8
  23267062.975    23267066.265   -38656101.667 8  64695647.742 9
  20864356.956    20864359.476   -46528023.985 9  61220039.608 8
 90  3  9  6 49 29.0800000  0  4G 3G12G11G13
  22643295.734    22643297.910   -67181994.716 9  85069970.253 8
  20551213.213    20551216.034   -43818754.044 8  39535243.985 8
  23273363.089    23273364.771   -38623006.452 8  64721436.232 9
  20866644.349    20866648.456   -46516001.760 9  61229407.585 7
 90  3  9  6 49 44.0800000  0  4G 3G12G11G13
  22638748.785    22638749.666   -67205893.240 8  85051348.047 8
  20551679.196    20551680.522   -43816315.972 8  39537143.787 8
  23279659.105    23279663.048   -38589916.624 8  64747220.500 9
  20868942.392    20868944.827   -46503930.847 9  61238813.484 7
 90  3  9  6 49 59.0800000  0  4G 3G12G11G13
  22634211.003    22634213.072   -67229735.161 9  85032769.934 8
  20552172.782    20552175.036   -43813718.384 8  39539167.885 8
  23285953.753    23285957.032   -38556832.295 9  64773000.473 9
  20871248.502    20871251.379   -46491811.409 9  61248257.199 8
 90  3  9  6 50 14.0800000  0  4G 3G12G11G13
  22629684.780    22629686.796   -67253520.661 9  85014235.789 9
  20552698.359    20552700.137   -43810961.242 9  39541316.307 8
  23292249.077    23292253.093   -38523753.534 9  64798776.121 8
  20873565.218    20873567.637   -46479643.703 9  61257738.529 8
 90  3  9  6 50 29.0800000  0  4G 3G12G11G13
  22625168.376    22625171.085   -67277249.769 9  84995745.587 9
  20553252.287    20553254.574   -43808044.549 9  39543589.052 8
  23298541.460    23298545.629   -38490680.496 8  64824547.301 9
  20875889.534    20875891.537   -46467427.882 9  61267257.341 8
 90  3  9  6 50 44.0800000  0  4G 3G12G11G13
  22620664.081    22620666.892   -67300922.602 9  84977299.239 8
  20553836.720    20553838.976   -43804968.347 9  39545986.101 7
  23304834.753    23304838.640   -38457613.243 8  64850313.977 9
  20878222.928    20878225.538   -46455164.107 9  61276813.534 8
 90  3  9  6 50 59.0800000  0  4G 3G12G11G13
  22616169.377    22616173.471   -67324539.260 9  84958896.662 8
  20554452.440    20554454.934   -43801732.543 9  39548507.492 9
  23311126.482    23311129.127   -38424551.932 8  64876076.021 9
  20880565.745    20880568.122   -46442852.890 9  61286406.688 9
 90  3  9  6 51 14.0800000  0  4G 3G12G11G13
  22611686.952    22611690.286   -67348099.729 8  84940537.877 9
  20555099.353    20555101.794   -43798337.112 9  39551153.280 7
  23317417.620    23317420.032   -38391496.686 8  64901833.346 9
  20882916.488    20882919.984   -46430494.296 9  61296036.755 8
 90  3  9  6 51 29.0800000  0  4G 3G12G11G13
  22607213.641    22607216.720   -67371604.314 9  84922222.631 8
  20555775.082    20555777.368   -43794782.161 9  39553923.368 8
  23323705.721    23323709.580   -38358447.560 8  64927585.883 9
  20885277.732    20885279.259   -46418088.456 9  61305703.646 7
 90  3  9  6 51 44.0800000  0  4G 3G12G11G13
  22602751.361    22602754.323   -67395052.876 9  84903951.041 9
  20556481.758    20556483.706   -43791067.807 8  39556817.650 9
  23329993.632    23329996.758   -38325404.618 8  64953333.611 9
  20887648.005    20887650.683   -46405635.631 9  61315407.144 8
 90  3  9  6 51 59.0800000  0  4G 3G12G11G13
  22598300.271    22598302.975   -67418445.624 9  84885722.940 9
  20557219.205    20557220.548   -43787194.077 8  39559836.140 8
  23336280.333    23336283.508   -38292367.871 8  64979076.522 9
  20890025.978    20890027.841   -46393136.194 9  61325146.950 7
 90  3  9  6 52 14.0800000  0  4G 3G12G11G13
  22593858.662    22593862.404   -67441782.553 9  84867538.324 9
  20557986.448    20557988.931   -43783160.888 8  39562978.877 8
  23342566.410    23342569.587   -38259337.520 9  65004814.432 9
  20892413.211    20892415.214   -46380590.219 9  61334923.036 8
 90  3  9  6 52 29.0800000  0  4G 3G12G11G13
  22589429.281    22589431.513   -67465063.873 9  84849397.060 8
  20558784.042    20558786.448   -43778968.133 8  39566245.960 7
  23348850.804    23348852.525   -38226313.588 9  65030547.359 9
  20894809.786    20894811.689   -46367997.955 9  61344735.184 8
 90  3  9  6 52 44.0800000  0  4G 3G12G11G13
  22585009.999    22585012.051   -67488289.492 8  84831299.198 9
  20559612.451    20559615.958   -43774615.880 8  39569637.297 8
  23355132.794    23355136.303   -38193296.221 9  65056275.163 9
  20897215.788    20897216.864   -46355359.513 9  61354583.317 7
 90  3  9  6 52 59.0800000  0  4G 3G12G11G13
  22580600.249    22580603.173   -67511459.506 9  84813244.661 9
  20560471.588    20560473.589   -43770104.067 8  39573153.013 8
  23361414.812    23361418.851   -38160285.437 9  65081997.826 9
  20899629.062    20899631.826   -46342675.111 9  61364467.277 8
 90  3  9  6 53 14.0800000  0  4G 3G12G11G13
  22576201.082    22576204.281   -67534574.091 9  84795233.307 9
  20561360.064    20561363.241   -43765432.733 8  39576792.997 9
  23367694.785    23367698.693   -38127281.360 9  65107715.273 9
  20902051.865    20902053.797   -46329944.872 9  61374386.948 8
 90  3  9  6 53 29.0800000  0  4G 3G12G11G13
  22571813.375    22571815.526   -67557633.359 9  84777265.060 8
  20562279.308    20562281.331   -43760601.997 9  39580557.202 8
  23373974.903    23373977.835   -38094284.161 8  65133427.374 9
  20904482.753    20904483.472   -46317169.144 9  61384342.073 8
 90  3  9  6 53 44.0800000  0  4G 3G12G11G13
  22567436.219    22567437.707   -67580637.274 9  84759339.938 8
  20563229.526    20563232.535   -43755611.876 8  39584445.605 8
  23380253.184    23380254.659   -38061293.908 9  65159134.057 9
  20906922.971    20906924.417   -46304348.064 9  61394332.516 8
 90  3  9  6 53 59.0800000  0  4G 3G12G11G13
  22563069.520    22563071.171   -67603586.178 9  84741457.694 9
  20564208.696    20564212.240   -43750462.331 9  39588458.225 8
  23386528.065    23386532.067   -38028310.671 8  65184835.265 9
  20909371.245    20909373.809   -46291481.714 9  61404358.247 7
 90  3  9  6 54 14.0800000  0  4G 3G12G11G13
  22558713.533    22558715.268   -67626479.949 9  84723618.402 9
  20565219.128    20565222.052   -43745153.387 9  39592595.053 9
  23392804.661    23392807.135   -37995334.453 9  65210531.008 9
  20911828.045    20911829.093   -46278570.338 9  61414419.061 8
 90  3  9  6 54 29.0800000  0  4G 3G12G11G13
  22554365.675    22554369.543   -67649318.588 9  84705822.069 9
  20566259.408    20566262.775   -43739685.077 8  39596856.062 8
  23399078.120    23399081.739   -37962365.385 8  65236221.189 9
  20914293.332    20914295.482   -46265613.875 9  61424514.994 7
 90  3  9  6 54 44.0800000  0  4G 3G12G11G13
  22550030.693    22550033.548   -67672102.420 9  84688068.448 9
  20567330.458    20567334.133   -43734057.431 9  39601241.229 7
  23405351.152    23405353.521   -37929403.664 9  65261905.630 9
  20916767.752    20916768.079   -46252612.842 9  61434645.667 7
 90  3  9  6 54 59.0800000  0  4G 3G12G11G13
  22545705.117    22545708.075   -67694831.316 9  84670357.632 8
  20568431.210    20568434.620   -43728270.272 8  39605750.691 7
  23411620.934    23411624.913   -37896449.351 9  65287584.307 9
  20919249.248    20919250.727   -46239567.386 9  61444810.960 8
 90  3  9  6 55 14.0800000  0  4G 3G12G11G13
  22541390.354    22541393.588   -67717505.329 9  84652689.579 8
  20569563.451    20569566.481   -43722323.696 9  39610384.375 8
  23417891.208    23417894.343   -37863502.520 8  65313257.156 9
  20921741.081    20921742.670   -46226477.700 9  61455010.712 8
 90  3  9  6 55 29.0800000  0  4G 3G12G11G13
  22537086.353    22537087.713   -67740124.811 9  84635064.025 9
  20570725.578    20570728.310   -43716217.777 9  39615142.222 8
  23424158.259    23424161.986   -37830563.374 8  65338923.999 9
  20924239.640    20924241.482   -46213344.048 9  61465244.730 8
 90  3  9  6 55 44.0800000  0  4G 3G12G11G13
  22532792.429    22532794.354   -67762689.746 9  84617480.971 8
  20571917.678    20571920.674   -43709952.544 9  39620024.224 8
  23430426.272    23430429.018   -37797631.791 8  65364584.956 9
  20926746.609    20926749.917   -46200166.857 9  61475512.661 7
 90  3  9  6 55 59.0800000  0  4G 3G12G11G13
  22528509.071    22528510.515   -67785200.107 9  84599940.454 9
  20573141.230    20573143.814   -43703528.059 9  39625030.308 8
  23436692.822    23436694.629   -37764707.826 9  65390239.988 9
  20929264.008    20929264.841   -46186945.963 9  61485814.657 8
 90  3  9  6 56 14.0800000  0  4G 3G12G11G13
  22524234.861    22524237.298   -67807655.986 9  84582442.390 9
  20574394.096    20574395.685   -43696944.389 9  39630160.431 7
  23442956.359    23442957.751   -37731791.623 8  65415888.977 9
  20931787.175    20931787.465   -46173681.571 9  61496150.549 7
 90  3  9  6 56 29.0800000  0  4G 3G12G11G13
  22519972.878    22519974.361   -67830057.648 9  84564986.569 9
  20575678.233    20575678.696   -43690201.622 9  39635414.532 8
  23449216.699    23449220.627   -37698883.241 8  65441531.851 9
  20934319.446    20934321.136   -46160374.002 9  61506520.070 8
 90  3  9  6 56 44.0800000  0  4G 3G12G11G13
  22515719.922    22515721.817   -67852405.037 9  84547573.024 9
  20576990.625    20576992.864   -43683299.607 9  39640792.709 8
  23455478.287    23455482.135   -37665982.774 8  65467168.556 9
  20936859.511    20936860.700   -46147023.401 9  61516923.153 8
 90  3  9  6 56 59.0800000  0  4G 3G12G11G13
  22511478.633    22511480.237   -67874698.297 9  84530201.671 9
  20578335.103    20578336.279   -43676238.365 9  39646294.994 8
  23461736.161    23461740.810   -37633090.342 8  65492798.998 9
  20939408.077    20939411.571   -46133629.974 9  61527359.567 7
 90  3  9  6 57 14.0800000  0  4G 3G12G11G13
  22507246.562    22507248.354   -67896937.600 9  84512872.348 9
  20579708.954    20579709.524   -43669018.079 9  39651921.184 8
  23467994.810    23467997.424   -37600206.036 9  65518423.124 8
  20941964.446    20941966.393   -46120194.009 9  61537829.160 7
 90  3  9  6 57 29.0800000  0  4G 3G12G11G13
  22503024.668    22503026.273   -67919122.687 9  84495585.275 8
  20581113.454    20581115.001   -43661638.742 9  39657671.302 8
  23474250.422    23474254.135   -37567329.966 8  65544040.851 9
  20944529.180    20944532.630   -46106715.722 9  61548331.718 8
 90  3  9  6 57 44.0800000  0  4G 3G12G11G13
  22498812.737    22498815.171   -67941254.134 9  84478340.008 9
  20582547.093    20582549.162   -43654100.343 9  39663545.368 8
  23480505.167    23480508.380   -37534462.129 8  65569652.136 9
  20947102.943    20947105.453   -46093195.078 9  61558867.276 8
 90  3  9  6 57 59.0800000  0  4G 3G12G11G13
  22494611.464    22494613.901   -67963331.800 9  84461136.641 9
  20584011.696    20584013.626   -43646403.003 8  39669543.272 8
  23486757.855    23486761.605   -37501602.467 8  65595257.047 9
  20949683.922    20949686.946   -46079631.998 9  61569435.907 8
 90  3  9  6 58 14.0800000  0  4G 3G12G11G13
  22490419.214    22490422.768   -67985355.885 9  84443975.038 9
  20585506.820    20585507.930   -43638546.781 8  39675665.015 8
  23493009.419    23493012.559   -37468751.259 9  65620855.388 9
  20952273.713    20952275.647   -46066027.107 9  61580037.114 8
 90  3  9  6 58 29.0800000  0  4G 3G12G11G13
  22486239.985    22486241.195   -68007326.207 9  84426855.323 8
  20587031.350    20587034.246   -43630531.699 9  39681910.519 9
  23499258.139    23499261.652   -37435908.650 9  65646447.011 9
  20954869.558    20954872.538   -46052380.646 9  61590670.724 8
 90  3  9  6 58 44.0800000  0  4G 3G12G11G13
  22482068.627    22482071.007   -68029242.907 9  84409777.406 9
  20588587.037    20588588.290   -43622357.962 8  39688279.637 8
  23505507.118    23505510.259   -37403074.715 7  65672031.881 9
  20957475.233    20957476.267   -46038692.787 9  61601336.593 8
 90  3  9  6 58 59.0800000  0  4G 3G12G11G13
  22477907.778    22477910.352   -68051106.196 9  84392741.099 9
  20590172.308    20590174.463   -43614025.573 9  39694772.395 8
  23511753.850    23511757.727   -37370249.442 8  65697609.992 9
  20960088.106    20960089.810   -46024963.547 9  61612034.707 8
 90  3  9  6 59 14.0800000  0  4G 3G12G11G13
  22473758.310    22473760.236   -68072916.319 9  84375746.209 8
  20591787.799    20591791.340   -43605534.477 8  39701388.818 8
  23517997.895    23518002.538   -37337432.967 8  65723181.242 9
  20962708.090    20962709.851   -46011193.166 9  61622764.881 8
 90  3  9  6 59 29.0800000  0  4G 3G12G11G13
  22469617.738    22469620.777   -68094673.010 9  84358792.961 9
  20593433.727    20593436.877   -43596884.833 9  39708128.784 8
  23524243.063    23524244.471   -37304625.282 9  65748745.665 9
  20965336.546    20965338.421   -45997381.818 9  61633526.954 8
 90  3  9  6 59 44.0800000  0  4G 3G12G11G13
  22465488.449    22465490.421   -68116376.778 9  84341880.963 8
  20595109.565    20595113.725   -43588076.621 9  39714992.317 8
  23530485.665    23530486.530   -37271826.496 8  65774303.168 9
  20967972.682    20967972.860   -45983529.634 9  61644320.868 7
 90  3  9  6 59 59.0800000  0  4G 3G12G11G13
  22461369.310    22461370.997   -68138027.381 9  84325010.371 8
  20596818.332    20596820.261   -43579109.959 9  39721979.313 9
  23536722.152    23536726.391   -37239036.526 8  65799853.747 9
  20970615.675    20970617.309   -45969636.973 9  61655146.315 8
 90  3  9  7  0 14.0800000  0  4G 3G12G11G13
  22457259.331    22457260.661   -68159625.128 9  84308180.982 9
  20598553.751    20598556.627   -43569984.824 9  39729089.798 8
  23542962.130    23542963.184   -37206255.587 8  65825397.317 9
  20973266.383    20973268.435   -45955703.872 9  61666003.269 7
 90  3  9  7  0 29.0800000  0  4G 3G12G11G13
  22453158.063    22453160.356   -68181170.024 9  84291392.759 9
  20600321.979    20600322.286   -43560701.331 9  39736323.679 8
  23549198.293    23549200.046   -37173483.730 8  65850933.834 9
  20975926.075    20975926.080   -45941730.630 9  61676891.529 8
 90  3  9  7  0 44.0800000  0  4G 3G12G11G13
  22449067.946    22449070.693   -68202662.040 9  84274645.755 9
  20602118.670    20602120.403   -43551259.437 9  39743680.992 8
  23555432.731    23555434.624   -37140721.102 9  65876463.145 8
  20978591.276    20978594.143   -45927717.384 9  61687810.919 8
 90  3  9  7  0 59.0800000  0  4G 3G12G11G13
  22444989.298    22444991.522   -68224101.320 9  84257939.841 8
  20603944.355    20603948.194   -43541659.188 9  39751161.684 8
  23561665.563    23561667.456   -37107967.742 8  65901985.230 8
  20981266.452    20981269.126   -45913664.366 9  61698761.323 8
 90  3  9  7  1 14.0800000  0  4G 3G12G11G13
  22440918.931    22440920.963   -68245488.054 8  84241274.877 8
  20605801.594    20605804.346   -43531900.711 9  39758765.665 8
  23567894.495    23567898.926   -37075223.750 8  65927500.003 8
  20983949.050    20983950.928   -45899571.824 9  61709742.530 8
 90  3  9  7  1 29.0800000  0  4G 3G12G11G13
  22436858.669    22436860.904   -68266822.377 9  84224650.745 8
  20607688.559    20607690.755   -43521984.149 9  39766492.857 8
  23574124.591    23574127.500   -37042489.080 9  65953007.526 8
  20986638.134    20986640.596   -45885439.894 9  61720754.425 8
 90  3  9  7  1 44.0800000  0  4G 3G12G11G13
  22432809.368    22432811.090   -68288104.343 9  84208067.420 9
  20609604.770    20609607.650   -43511909.603 9  39774343.139 9
  23580351.843    23580355.261   -37009763.752 7  65978507.759 9
  20989335.330    20989337.794   -45871268.679 9  61731796.942 8
 90  3  9  7  1 59.0800000  0  4G 3G12G11G13
  22428769.590    22428771.683   -68309333.890 9  84191524.935 9
  20611551.784    20611553.974   -43501677.178 9  39782316.450 8
  23586578.594    23586580.384   -36977047.971 8  66004000.576 9
  20992038.664    20992040.429   -45857058.236 9  61742870.001 8
 90  3  9  7  2 14.0800000  0  4G 3G12G11G13
  22424740.548    22424742.236   -68330511.185 9  84175023.167 9
  20613528.603    20613531.851   -43491286.933 8  39790412.736 8
  23592803.347    23592804.436   -36944341.800 8  66029485.911 9
  20994750.716    20994752.306   -45842808.970 9  61753973.325 8
 90  3  9  7  2 29.0800000  0  4G 3G12G11G13
  22420720.136    22420721.732   -68351636.341 9  84158562.026 8
  20615536.603    20615538.641   -43480738.837 9  39798632.015 7
  23599022.111    23599027.527   -36911645.103 8  66054963.840 9
  20997468.372    20997471.626   -45828520.897 9  61765106.871 7
 90  3  9  7  2 44.0800000  0  4G 3G12G11G13
  22416708.955    22416712.190   -68372709.496 9  84142141.387 9
  20617573.404    20617575.669   -43470032.906 8  39806974.288 7
  23605243.865    23605248.282   -36878958.175 8  66080434.150 9
  21000194.906    21000197.040   -45814194.344 9  61776270.434 8
 90  3  9  7  2 59.0800000  0  4G 3G12G11G13
  22412708.347    22412712.641   -68393730.716 9  84125761.235 8
  20619641.473    20619642.771   -43459169.272 9  39815439.472 8
  23611460.705    23611466.645   -36846281.070 7  66105896.799 9
  21002928.390    21002930.324   -45799829.415 9  61787463.869 7
 90  3  9  7  3 14.0800000  0  4G 3G12G11G13
  22408718.699    22408722.421   -68414700.121 9  84109421.460 9
  20621739.012    20621740.089   -43448148.135 9  39824027.356 9
  23617678.464    23617682.094   -36813613.847 8  66131351.768 9
  21005669.072    21005671.533   -45785426.513 9  61798686.923 8
 90  3  9  7  3 29.0800000  0  4G 3G12G11G13
  22404738.369    22404740.787   -68435617.939 9  84093121.881 9
  20623866.724    20623866.398   -43436969.529 9  39832737.940 9
  23623893.373    23623896.462   -36780956.598 8  66156798.981 9
  21008417.837    21008418.699   -45770985.596 9  61809939.583 7
 90  3  9  7  3 44.0800000  0  4G 3G12G11G13
  22400767.005    22400770.374   -68456483.888 9  84076862.712 9
  20626023.751    20626025.189   -43425633.591 9  39841571.128 8
  23630105.729    23630109.216   -36748309.242 7  66182238.470 8
  21011172.729    21011175.167   -45756507.063 9  61821221.544 8
 90  3  9  7  3 59.0800000  0  4G 3G12G11G13
  22396805.846    22396810.006   -68477298.425 9  84060643.602 8
  20628210.234    20628212.540   -43414140.411 9  39850526.852 8
  23636315.640    23636319.313   -36715671.885 8  66207670.163 9
  21013934.158    21013936.639   -45741990.919 9  61832532.825 7
 90  3  9  7  4 14.0800000  0  4G 3G12G11G13
  22392855.679    22392857.047   -68498061.431 9  84044464.651 8
  20630426.767    20630429.937   -43402489.913 9  39859605.146 8
  23642524.430    23642528.100   -36683044.589 8  66233094.025 8
  21016704.647    21016706.267   -45727437.495 9  61843873.151 8
 90  3  9  7  4 29.0800000  0  4G 3G12G11G13
  22388914.571    22388915.635   -68518773.133 9  84028325.678 8
  20632673.608    20632678.095   -43390682.215 9  39868805.932 8
  23648732.015    23648734.999   -36650427.356 8  66258510.043 9
  21019481.529    21019482.735   -45712846.705 9  61855242.599 8
 90  3  9  7  4 44.0800000  0  4G 3G12G11G13
  22384982.565    22384984.343   -68539433.426 9  84012226.756 9
  20634950.546    20634953.857   -43378717.452 9  39878129.117 8
  23654936.255    23654939.979   -36617820.232 8  66283918.164 9
  21022264.557    21022267.246   -45698218.769 9  61866640.978 7
 90  3  9  7  4 59.0800000  0  4G 3G12G11G13
  22381060.847    22381063.112   -68560042.613 9  83996167.667 8
  20637256.827    20637260.682   -43366595.709 9  39887574.628 8
  23661139.384    23661142.906   -36585223.337 8  66309318.305 9
  21025056.077    21025057.942   -45683554.029 8  61878068.043 7
 90  3  9  7  5 14.0800000  0  4G 3G12G11G13
  22377149.493    22377151.202   -68580600.811 9  83980148.316 9
  20639594.102    20639597.124   -43354317.009 9  39897142.425 9
  23667341.320    23667343.840   -36552636.788 8  66334710.418 7
  21027853.396    21027855.241   -45668852.454 9  61889523.814 8
 90  3  9  7  5 29.0800000  0  4G 3G12G11G13
  22373247.314    22373249.361   -68601107.973 9  83964168.728 9
  20641959.700    20641963.689   -43341881.503 9  39906832.414 9
  23673539.052    23673542.422   -36520060.577 8  66360094.471 8
  21030657.739    21030659.642   -45654114.385 9  61901008.023 7
 90  3  9  7  5 44.0800000  0  4G 3G12G11G13
  22369354.389    22369356.004   -68621564.156 9  83948228.861 9
  20644356.031    20644360.891   -43329289.349 9  39916644.492 8
  23679735.361    23679739.172   -36487494.841 7  66385470.341 8
  21033470.168    21033471.515   -45639339.873 9  61912520.625 8
 90  3  9  7  5 59.0800000  0  4G 3G12G11G13
  22365471.380    22365473.845   -68641969.568 9  83932328.557 8
  20646783.082    20646786.040   -43316540.649 9  39926578.531 8
  23685932.000    23685934.302   -36454939.530 8  66410838.092 8
  21036288.219    21036289.223   -45624529.076 9  61924061.508 8
 90  3  9  7  6 14.0800000  0  4G 3G12G11G13
  22361597.151    22361599.468   -68662324.464 9  83916467.612 9
  20649239.171    20649241.440   -43303635.649 9  39936634.370 8
  23692125.385    23692127.796   -36422394.841 8  66436197.610 8
  21039113.039    21039115.828   -45609682.216 9  61935630.474 8
 90  3  9  7  6 29.0800000  0  4G 3G12G11G13
  22357732.731    22357735.926   -68682628.738 9  83900646.118 8
  20651723.571    20651727.401   -43290574.307 9  39946812.029 8
  23698315.106    23698318.513   -36389860.658 8  66461548.894 8
  21041945.401    21041947.161   -45594799.548 9  61947227.356 8
 90  3  9  7  6 44.0800000  0  4G 3G12G11G13
  22353878.620    22353881.805   -68702882.562 9  83884863.927 9
  20654239.195    20654241.463   -43277356.739 8  39957111.439 9
  23704503.259    23704507.673   -36357337.164 7  66486891.849 8
  21044783.313    21044784.618   -45579881.164 9  61958852.068 8
 90  3  9  7  6 59.0800000  0  4G 3G12G11G13
  22350033.969    22350035.863   -68723085.911 9  83869121.075 9
  20656783.027    20656786.030   -43263983.115 9  39967532.428 8
  23710690.139    23710695.484   -36324824.332 8  66512226.493 8
  21047628.753    21047631.204   -45564927.355 9  61970504.383 7
 90  3  9  7  7 14.0800000  0  4G 3G12G11G13
  22346198.553    22346202.329   -68743238.950 9  83853417.416 9
  20659358.150    20659360.278   -43250453.554 9  39978074.942 7
  23716874.615    23716880.483   -36292322.333 8  66537552.721 8
  21050480.891    21050483.853   -45549938.193 9  61982184.244 8
 90  3  9  7  7 29.0800000  0  4G 3G12G11G13
  22342373.464    22342376.556   -68763341.742 9  83837752.914 9
  20661962.701    20661964.690   -43236768.039 9  39988738.971 8
  23723059.717    23723061.447   -36259831.081 9  66562870.579 8
  21053339.479    21053342.776   -45534914.099 8  61993891.319 8
 90  3  9  7  7 44.0800000  0  4G 3G12G11G13
  22338557.453    22338560.708   -68783394.526 9  83822127.390 9
  20664597.329    20664600.123   -43222926.745 9  39999524.394 8
  23729239.214    23729243.745   -36227350.722 9  66588179.952 8
  21056205.168    21056209.390   -45519854.946 9  62005625.715 9
 90  3  9  7  7 59.0800000  0  4G 3G12G11G13
  22334751.547    22334754.804   -68803397.267 9  83806540.857 9
  20667261.113    20667263.559   -43208929.734 9  40010431.142 9
  23735419.760    23735422.019   -36194881.287 9  66613480.796 9
  21059077.722    21059080.359   -45504761.104 9  62017387.165 8
 90  3  9  7  8 14.0800000  0  4G 3G12G11G13
  22330954.475    22330957.337   -68823350.030 9  83790993.275 8
  20669953.713    20669956.438   -43194777.186 9  40021459.100 7
  23741596.998    23741599.721   -36162422.836 9  66638773.095 8
  21061956.258    21061958.995   -45489632.731 9  62029175.502 7
 90  3  9  7  8 29.0800000  0  4G 3G12G11G13
  22327166.889    22327170.201   -68843253.126 9  83775484.390 8
  20672676.952    20672679.412   -43180469.239 9  40032608.135 8
  23747769.666    23747773.708   -36129975.395 8  66664056.784 9
  21064842.149    21064844.387   -45474469.968 9  62040990.639 7
 90  3  9  7  8 44.0800000  0  4G 3G12G11G13
  22323389.434    22323391.874   -68863106.556 9  83760014.201 8
  20675429.213    20675431.543   -43166005.947 9  40043878.228 7
  23753942.406    23753945.497   -36097539.003 7  66689331.899 9
  21067734.468    21067736.390   -45459272.922 9  62052832.504 7
 90  3  9  7  8 59.0800000  0  4G 3G12G11G13
  22319622.314    22319622.331   -68882910.471 9  83744582.595 8
  20678209.766    20678212.224   -43151387.528 9  40055269.194 8
  23760112.518    23760117.115   -36065113.807 8  66714598.266 9
  21070633.296    21070634.456   -45444041.824 9  62064700.895 8
 90  3  9  7  9 14.0800000  0  4G 3G12G11G13
  22315862.424    22315863.241   -68902664.745 9  83729189.652 9
  20681021.431    20681024.581   -43136614.110 9  40066780.938 8
  23766281.585    23766285.362   -36032699.751 8  66739855.972 9
  21073538.490    21073540.053   -45428776.699 9  62076595.798 8
 90  3  9  7  9 29.0800000  0  4G 3G12G11G13
  22312112.357    22312112.953   -68922369.614 9  83713835.223 8
  20683862.475    20683863.535   -43121685.910 9  40078413.293 7
  23772446.455    23772450.580   -36000296.961 7  66765104.895 9
  21076448.923    21076451.574   -45413477.687 9  62088517.107 8
 90  3  9  7  9 44.0800000  0  4G 3G12G11G13
  22308372.650    22308373.651   -68942025.250 9  83698519.158 9
  20686733.043    20686734.327   -43106603.027 9  40090166.194 8
  23778610.806    23778614.745   -35967905.401 8  66790345.068 8
  21079366.822    21079369.731   -45398145.090 9  62100464.581 8
 90  3  9  7  9 59.0800000  0  4G 3G12G11G13
  22304641.235    22304642.165   -68961631.598 9  83683241.500 9
  20689632.404    20689634.481   -43091365.425 9  40102039.625 8
  23784773.704    23784778.057   -35935525.180 8  66815576.392 9
  21082291.323    21082292.758   -45382779.210 9  62112437.997 8
 90  3  9  7 10 14.0800000  0  4G 3G12G11G13
  22300918.448    22300922.423   -68981188.982 8  83668001.992 8
  20692560.931    20692562.252   -43075973.360 8  40114033.446 8
  23790931.936    23790936.854   -35903156.259 7  66840798.943 9
  21085221.860    21085223.679   -45367380.237 9  62124437.200 8
 90  3  9  7 10 29.0800000  0  4G 3G12G11G13
  22297206.249    22297209.359   -69000697.257 9  83652800.760 8
  20695519.227    20695521.389   -43060426.992 9  40126147.489 8
  23797087.161    23797094.689   -35870798.651 7  66866012.613 8
  21088157.691    21088159.926   -45351948.255 8  62136462.112 7
 90  3  9  7 10 44.0800000  0  4G 3G12G11G13
  22293503.323    22293506.562   -69020156.636 9  83637637.640 9
  20698506.996    20698509.082   -43044726.476 9  40138381.650 8
  23803245.265    23803250.023   -35838452.583 8  66891217.365 8
  21091101.261    21091103.868   -45336483.338 9  62148512.695 8
 90  3  9  7 10 59.0800000  0  4G 3G12G11G13
  22289809.790    22289812.165   -69039567.278 9  83622512.485 9
  20701524.280    20701526.477   -43028871.886 9  40150735.860 8
  23809397.422    23809402.511   -35806117.783 8  66916413.300 9
  21094049.541    21094052.248   -45320985.650 9  62160588.814 9
 90  3  9  7 11 14.0800000  0  3G 3G12G13
  22286125.607    22286127.955   -69058929.180 9  83607425.313 8
  20704570.793    20704572.756   -43012863.368 9  40163210.032 8
  21097005.351    21097007.090   -45305455.286 9  62172690.370 8
 90  3  9  7 11 29.0800000  0  4G 3G12G19G13
  22282450.885    22282452.100   -69078242.504 9  83592375.975 9
  20707646.529    20707649.700   -42996701.056 9  40175804.031 8
                  23027070.316   -75488376.300 9
  21099966.108    21099969.235   -45289892.678 9  62184817.071 8
 90  3  9  7 11 44.0800000  0  4G 3G12G19G13
  22278785.010    22278785.752   -69097507.217 9  83577364.521 8
  20710751.810    20710754.870   -42980385.047 9  40188517.793 8
  23022252.512    23022253.598   -75513818.007 9  95825500.172 9
  21102934.390    21102936.077   -45274297.583 9  62196969.083 8
 90  3  9  7 11 59.0800000  0  4G 3G12G19G13
  22275128.039    22275130.108   -69116723.592 9  83562390.728 7
  20713884.956    20713888.990   -42963915.424 9  40201351.270 7
  23017433.137    23017435.492   -75539138.498 9  95805769.442 9
  21105908.144    21105910.186   -45258670.267 9  62209146.209 8
 90  3  9  7 12 14.0800000  0  4G 3G12G19G13
  22271479.287    22271482.057   -69135891.625 9  83547454.595 8
  20717049.020    20717052.105   -42947292.506 9  40214304.177 7
  23012637.699    23012640.195   -75564337.475 8  95786133.885 9
  21108886.860    21108890.248   -45243011.071 9  62221348.177 8
 90  3  9  7 12 29.0800000  0  4G 3G12G19G13
  22267841.633    22267844.125   -69155011.404 9  83532556.087 8
  20720240.725    20720244.126   -42930516.394 9  40227376.459 8
  23007866.471    23007867.098   -75589414.920 9  95766593.032 9
  21111873.272    21111876.772   -45227320.184 9  62233574.851 8
 90  3  9  7 12 44.0800000  0  4G 3G12G19G13
  22264212.513    22264215.355   -69174083.257 9  83517694.918 8
  20723463.213    20723464.410   -42913587.259 9  40240567.979 7
  23003117.034    23003119.116   -75614370.492 9  95747147.118 8
  21114865.452    21114868.536   -45211597.561 9  62245826.234 8
 90  3  9  7 12 59.0800000  0  4G 3G12G19G13
  22260592.997    22260593.990   -69193106.920 9  83502871.300 8
  20726711.949    20726716.105   -42896505.264 9  40253878.626 8
  22998392.213    22998393.542   -75639203.948 8  95727796.370 9
  21117863.571    21117865.427   -45195843.550 9  62258102.085 8
 90  3  9  7 13 14.0800000  0  4G 3G12G19G13
  22256981.456    22256983.453   -69212082.916 9  83488084.822 8
  20729992.941    20729994.753   -42879270.587 9  40267308.234 8
  22993689.462    22993690.744   -75663915.044 9  95708540.985 8
  21120867.771    21120869.694   -45180058.154 9  62270402.390 7
 90  3  9  7 13 29.0800000  0  4G 3G12G19G13
  22253378.808    22253381.371   -69231010.900 9  83473335.775 9
  20733301.089    20733303.955   -42861883.295 9  40280856.756 8
  22989009.748    22989011.894   -75688503.729 9  95689380.962 9
  21123877.510    21123879.492   -45164241.710 9  62282726.888 8
 90  3  9  7 13 44.0800000  0  4G 3G12G19G13
  22249786.505    22249786.866   -69249891.236 8  83458623.856 8
  20736637.690    20736640.830   -42844343.588 8  40294524.054 8
  22984353.320    22984355.961   -75712969.987 8  95670316.352 9
  21126893.098    21126895.008   -45148394.160 9  62295075.626 8
 90  3  9  7 13 59.0800000  0  4G 3G12G19G13
  22246202.567    22246204.406   -69268723.829 9  83443949.120 9
  20740004.597    20740008.006   -42826651.644 9  40308309.973 8
  22979720.822    22979723.331   -75737313.409 8  95651347.448 9
  21129914.499    21129917.397   -45132516.172 9  62307448.074 8
 90  3  9  7 14 14.0800000  0  4G 3G12G19G13
  22242627.574    22242630.162   -69287508.980 9  83429311.362 9
  20743400.073    20743403.291   -42808807.615 9  40322214.407 8
  22975112.474    22975114.655   -75761533.868 9  95632474.372 9
  21132942.093    21132944.452   -45116607.467 9  62319844.466 9
 90  3  9  7 14 29.0800000  0  4G 3G12G19G13
  22239062.558    22239065.956   -69306246.883 9  83414710.422 9
  20746825.806    20746829.181   -42790811.673 9  40336237.198 8
  22970526.472    22970528.441   -75785631.067 8  95613697.332 8
  21135975.442    21135977.144   -45100668.219 9  62332264.663 8
 90  3  9  7 14 44.0800000  0  4G 3G12G19G13
  22235505.830    22235509.380   -69324937.436 9  83400146.355 8
  20750278.832    20750281.109   -42772663.922 9  40350378.304 8
  22965964.046    22965966.636   -75809604.872 9  95595016.452 9
  21139013.871    21139016.215   -45084698.688 9  62344708.444 8
 90  3  9  7 14 59.0800000  0  4G 3G12G19G13
  22231957.324    22231960.898   -69343580.781 9  83385619.077 8
  20753761.518    20753762.717   -42754364.574 9  40364637.530 8
  22961424.416    22961427.049   -75833455.278 8  95576431.735 9
  21142058.652    21142060.834   -45068698.841 8  62357175.860 8
 90  3  9  7 15 14.0800000  0  4G 3G12G19G13
  22228418.757    22228421.941   -69362176.987 9  83371128.551 9
  20757273.283    20757273.455   -42735913.787 9  40379014.768 7
  22956910.775    22956912.360   -75857181.906 9  95557943.440 9
  21145109.372    21145111.557   -45052668.952 9  62369666.681 8
 90  3  9  7 15 29.0800000  0  4G 3G12G19G13
  22224889.589    22224891.855   -69380726.262 9  83356674.588 9
  20760811.560    20760814.391   -42717311.666 9  40393509.909 8
  22952420.197    22952421.289   -75880784.701 9  95539551.633 8
  21148165.186    21148166.479   -45036609.303 9  62382180.681 8
 90  3  9  7 15 44.0800000  0  4G 3G12G19G13
  22221368.924    22221370.849   -69399228.576 9  83342257.215 9
  20764380.081    20764382.360   -42698558.512 9  40408122.752 8
  22947951.847    22947954.119   -75904263.593 9  95521256.410 9
  21151226.735    21151228.622   -45020519.926 8  62394717.859 8
 90  3  9  7 15 59.0800000  0  4G 3G12G19G13
  22217857.527    22217858.050   -69417684.061 9  83327876.341 8
  20767978.316    20767980.532   -42679654.453 7  40422853.177 8
  22943507.966    22943509.188   -75927618.326 8  95503057.920 9
  21154293.611    21154294.795   -45004401.150 9  62407277.956 7
 90  3  9  7 16 14.0800000  0  4G 3G12G19G13
  22214353.235    22214355.563   -69436092.977 9  83313531.738 9
  20771602.677    20771607.724   -42660599.581 9  40437701.117 8
  22939088.264    22939089.872   -75950848.818 8  95484956.233 9
  21157366.636    21157369.552   -44988252.970 8  62419860.946 7
 90  3  9  7 16 29.0800000  0  4G 3G12G19G13
  22210858.965    22210861.713   -69454455.456 9  83299223.330 8
  20775256.916    20775260.443   -42641394.178 9  40452666.345 8
  22934690.391    22934692.436   -75973954.594 8  95466951.746 9
  21160445.934    21160446.086   -44972075.442 9  62432466.806 7
 90  3  9  7 16 44.0800000  0  4G 3G12G19G13
  22207372.117    22207374.563   -69472771.180 9  83284951.333 8
  20778941.905    20778946.193   -42622038.311 8  40467748.829 8
  22930316.215    22930319.203   -75996935.678 8  95449044.419 9
  21163528.746    21163531.206   -44955868.863 9  62445095.313 8
 90  3  9  7 16 59.0800000  0  4G 3G12G19G13
  22203895.337    22203898.998   -69491040.693 9  83270715.349 8
  20782652.972    20782656.132   -42602532.169 9  40482948.418 8
  22925966.947    22925967.899   -76019791.836 8  95431234.415 9
  21166618.589    21166620.020   -44939633.538 9  62457746.209 7
 90  3  9  7 17 14.0800000  0  4G 3G12G19G13
  22200428.643    22200432.149   -69509263.873 9  83256515.477 8
  20786393.076    20786396.933   -42582876.096 9  40498264.832 8
  22921641.601    22921643.960   -76042522.929 8  95413521.859 7
  21169713.408    21169714.123   -44923369.640 9  62470419.379 8
 90  3  9  7 17 29.0800000  0  4G 3G12G19G13
  22196969.602    22196972.743   -69527441.075 9  83242351.431 7
  20790162.794    20790165.900   -42563070.284 9  40513697.918 8
  22917339.697    22917342.248   -76065128.740 9  95395906.929 9
  21172814.112    21172815.780   -44907077.009 9  62483114.918 7
 90  3  9  7 17 44.0800000  0  4G 3G12G19G13
  22193519.030    22193522.445   -69545572.001 9  83228223.453 8
  20793960.113    20793962.209   -42543114.856 9  40529247.602 7
  22913061.318    22913064.005   -76087609.075 8  95378389.801 8
  21175920.508    21175921.617   -44890755.949 9  62495832.632 8
 90  3  9  7 17 59.0800000  0  4G 3G12G19G13
  22190078.445    22190079.690   -69563656.970 9  83214131.285 7
  20797786.119    20797788.539   -42523009.975 8  40544913.747 8
  22908807.261    22908809.370   -76109963.813 9  95360970.517 8
  21179032.497    21179033.068   -44874406.494 9  62508572.459 8
 90  3  9  7 18 14.0800000  0  4G 3G12G19G13
  22186645.269    22186647.958   -69581695.967 9  83200074.946 8
  20801641.113    20801643.161   -42502755.915 9  40560696.130 7
  22904578.293    22904580.423   -76132192.958 9  95343649.092 8
  21182148.713    21182150.893   -44858028.667 9  62521334.406 8
 90  3  9  7 18 29.0800000  0  4G 3G12G19G13
  22183222.997    22183223.862   -69599689.411 9  83186054.099 8
  20805522.942    20805525.239   -42482352.789 9  40576594.650 8
  22900371.566    22900374.195   -76154296.268 9  95326425.736 9
  21185269.932    21185271.930   -44841623.071 9  62534117.977 8
 90  3  9  7 18 44.0800000  0  4G 3G12G19G13
  22179806.884    22179807.915   -69617637.096 9  83172068.909 8
  20809434.856    20809436.828   -42461800.763 9  40592609.218 8
  22896188.704    22896192.431   -76176273.357 8  95309300.728 9
  21188396.763    21188398.264   -44825189.510 9  62546923.349 9
 90  3  9  7 18 59.0800000  0  4G 3G12G19G13
  22176400.645    22176402.319   -69635539.292 9  83158119.157 8
  20813373.215    20813374.672   -42441100.006 9  40608739.660 8
  22892031.818    22892034.274   -76198124.327 9  95292274.004 9
  21191528.068    21191531.803   -44808728.376 9  62559750.216 7
 90  3  9  7 19 14.0800000  0  4G 3G12G19G13
  22173002.825    22173003.449   -69653396.057 9  83144204.817 9
  20817341.538    20817342.211   -42420250.815 9  40624985.792 7
  22887897.895    22887899.865   -76219848.983 9  95275345.697 8
  21194665.733    21194669.980   -44792239.744 9  62572598.491 8
 90  3  9  7 19 29.0800000  0  4G 3G12G19G13
  22169613.055    22169614.567   -69671207.430 9  83130325.830 8
  20821337.061    20821338.213   -42399253.425 9  40641347.401 9
  22883787.161    22883790.282   -76241446.929 9  95258516.128 9
  21197808.616    21197811.902   -44775723.662 9  62585468.156 9
 90  3  9  7 19 44.0800000  0  4G 3G12G19G13
  22166231.474    22166232.139   -69688973.439 9  83116482.202 7
  20825360.392    20825363.223   -42378108.010 9  40657824.325 8
  22879702.611    22879703.368   -76262918.113 9  95241785.341 9
  21200956.711    21200958.839   -44759180.218 8  62598359.133 8
 90  3  9  7 19 59.0800000  0  4G 3G12G19G13
  22162859.171    22162860.935   -69706694.424 8  83102673.639 9
  20829412.718    20829413.755   -42356814.801 9  40674416.422 8
  22875640.184    22875641.924   -76284262.408 8  95225153.422 8
  21204110.570    21204114.044   -44742609.766 8  62611271.188 9
 90  3  9  7 20 14.0800000  0  4G 3G12G19G13
  22159494.761    22159498.168   -69724370.303 9  83088900.230 9
  20833492.012    20833494.949   -42335373.943 9  40691123.586 8
  22871602.591    22871605.929   -76305479.945 9  95208620.245 8
  21207269.068    21207270.998   -44726012.259 9  62624204.308 8
 90  3  9  7 20 29.0800000  0  4G 3G12G19G13
  22156140.225    22156142.265   -69742001.319 9  83075161.794 7
  20837600.021    20837602.448   -42313785.486 9  40707945.734 8
  22867589.055    22867592.001   -76326570.436 9  95192186.102 9
  21210432.028    21210435.299   -44709388.058 9  62637158.208 8
 90  3  9  7 20 44.0800000  0  4G 3G12G19G13
  22152793.464    22152795.605   -69759587.416 9  83061458.346 9
  20841736.891    20841738.990   -42292049.779 9  40724882.642 8
  22863600.643    22863602.511   -76347533.708 9  95175851.075 9
  21213599.883    21213604.586   -44692737.182 9  62650132.899 8
 90  3  9  7 20 59.0800000  0  4G 3G12G19G13
  22149456.475    22149458.113   -69777128.686 9  83047789.833 8
  20845901.032    20845903.897   -42270166.950 8  40741934.192 8
  22859633.825    22859636.973   -76368369.601 9  95159615.329 8
  21216774.436    21216777.907   -44676059.497 9  62663128.495 8
 90  3  9  7 21 14.0800000  0  4G 3G12G19G13
  22146126.319    22146129.038   -69794625.403 9  83034156.046 9
  20850092.469    20850096.177   -42248137.298 9  40759100.145 8
  22855694.552    22855697.099   -76389077.874 9  95143479.027 8
  21219953.966    21219955.350   -44659355.499 9  62676144.599 7
 90  3  9  7 21 29.0800000  0  4G 3G12G19G13
  22142806.295    22142808.285   -69812077.655 9  83020556.894 8
  20854312.483    20854316.123   -42225960.955 8  40776380.407 9
  22851777.200    22851779.569   -76409658.291 9  95127442.332 9
  21223137.776    21223140.746   -44642625.417 9  62689181.004 9
 90  3  9  7 21 44.0800000  0  4G 3G12G19G13
  22139493.103    22139496.181   -69829485.547 9  83006992.324 8
  20858559.949    20858564.414   -42203638.114 9  40793774.814 8
  22847886.610    22847887.959   -76430111.019 9  95111505.133 9
  21226325.604    21226329.351   -44625869.164 9  62702237.822 7
 90  3  9  7 21 59.0800000  0  4G 3G12G19G13
  22136189.438    22136190.770   -69846849.050 8  82993462.342 8
  20862837.069    20862839.268   -42181169.042 8  40811283.184 8
  22844018.770    22844020.965   -76450435.451 9  95095667.900 8
  21229518.227    21229521.443   -44609087.181 9  62715314.686 8
 90  3  9  7 22 14.0800000  0  4G 3G12G19G13
  22132892.893    22132894.575   -69864168.316 8  82979966.826 9
  20867140.216    20867143.210   -42158554.093 8  40828905.200 8
  22840175.750    22840177.160   -76470631.730 9  95079930.537 9
  21232716.889    21232720.434   -44592279.197 9  62728411.824 8
 90  3  9  7 22 29.0800000  0  4G 3G12G19G13
  22129605.814    22129607.738   -69881443.409 9  82966505.725 8
  20871471.560    20871474.551   -42135793.425 9  40846640.787 8
  22836356.628    22836357.329   -76490699.530 9  95064293.271 9
  21235921.691    21235924.950   -44575445.420 9  62741529.043 7
 90  3  9  7 22 44.0800000  0  4G 3G12G19G13
  22126326.233    22126328.230   -69898674.582 9  82953078.859 8
  20875831.608    20875833.847   -42112887.167 9  40864489.809 8
  22832562.633    22832564.624   -76510638.822 8  95048756.157 9
  21239129.654    21239133.155   -44558586.176 9  62754666.120 8
 90  3  9  7 22 59.0800000  0  4G 3G12G19G13
  22123056.939    22123056.855   -69915861.711 9  82939686.306 9
  20880217.670    20880220.868   -42089835.612 9  40882452.059 7
  22828792.191    22828794.229   -76530449.515 9  95033319.248 8
  21242342.227    21242345.968   -44541701.688 9  62767822.874 8
 90  3  9  7 23 14.0800000  0  4G 3G12G19G13
  22119794.055    22119795.090   -69933005.082 9  82926327.848 9
  20884631.595    20884634.670   -42066638.974 8  40900527.343 8
  22825047.715    22825049.750   -76550131.639 9  95017982.530 9
  21245561.079    21245561.960   -44524791.845 9  62780999.364 8
 90  3  9  7 23 29.0800000  0  4G 3G12G19G13
  22116541.398    22116541.065   -69950104.794 9  82913003.419 8
  20889073.818    20889075.574   -42043297.567 9  40918715.442 7
  22821326.811    22821327.697   -76569684.741 9  95002746.336 9
  21248784.023    21248784.879   -44507856.677 9  62794195.598 8
 90  3  9  7 23 44.0800000  0  4G 3G12G19G13
  22113294.200    22113297.049   -69967160.911 9  82899712.955 8
  20893541.832    20893545.153   -42019811.491 9  40937016.274 8
  22817629.698    22817631.836   -76589108.909 9  94987610.608 8
  21252010.390    21252011.914   -44490896.516 8  62807411.298 8
 90  3  9  7 23 59.0800000  0  4G 3G12G19G13
  22110056.675    22110057.854   -69984173.504 9  82886456.399 9
  20898039.338    20898041.353   -41996180.968 9  40955429.663 8
  22813958.793    22813961.123   -76608403.743 8  94972575.672 9
  21255241.915    21255244.418   -44473911.512 9  62820646.354 7
 90  3  9  7 24 14.0800000  0  4G 3G12G19G13
  22106828.344    22106830.842   -70001142.702 9  82873233.660 8
  20902563.332    20902566.023   -41972406.314 9  40973955.369 8
  22810312.011    22810314.777   -76627569.371 9  94957641.414 9
  21258478.011    21258481.271   -44456901.759 9  62833900.700 8
 90  3  9  7 24 29.0800000  0  4G 3G12G19G13
  22103607.186    22103609.070   -70018068.598 9  82860044.659 9
  20907115.089    20907117.657   -41948487.532 9  40992593.368 8
  22806688.933    22806690.794   -76646605.648 9  94942807.953 9
  21261720.718    21261723.419   -44439867.508 8  62847174.137 8
 90  3  9  7 24 44.0800000  0  4G 3G12G19G13
  22100394.454    22100395.684   -70034951.277 9  82846889.339 8
  20911695.281    20911696.324   -41924425.019 9  41011343.377 7
  22803091.230    22803092.122   -76665512.424 9  94928075.397 9
  21264966.458    21264969.230   -44422809.082 9  62860466.418 8
 90  3  9  7 24 59.0800000  0  4G 3G12G19G13
  22097190.095    22097190.502   -70051790.853 9  82833767.606 8
  20916300.678    20916303.414   -41900218.998 9  41030205.194 7
  22799517.521    22799520.060   -76684289.600 9  94913443.830 9
  21268217.637    21268219.851   -44405726.346 9  62873777.630 8
 90  3  9  7 25 14.0800000  0  4G 3G12G19G13
  22093993.659    22093995.559   -70068587.454 9  82820679.342 8
  20920934.220    20920937.413   -41875869.686 9  41049178.677 8
  22795968.670    22795970.281   -76702937.039 9  94898913.342 8
  21271472.789    21271474.702   -44388619.369 9  62887107.752 8
 90  3  9  7 25 29.0800000  0  4G 3G12G19G13
  22090806.069    22090807.253   -70085340.982 9  82807624.650 8
  20925595.148    20925596.652   -41851377.259 9  41068263.698 8
  22792445.397    22792447.987   -76721454.452 8  94884484.180 8
  21274733.612    21274734.395   -44371488.191 9  62900456.713 8
 90  3  9  7 25 44.0800000  0  4G 3G12G19G13
  22087626.493    22087626.980   -70102051.823 9  82794603.222 9
  20930282.608    20930285.150   -41826741.895 9  41087460.062 8
  22788946.111    22788948.346   -76739841.766 9  94870156.407 9
  21277997.337    21277999.722   -44354333.079 9  62913824.326 8
 90  3  9  7 25 59.0800000  0  4G 3G12G19G13
  22084454.804    22084454.369   -70118719.953 9  82781615.065 8
  20934997.584    20934999.851   -41801964.063 9  41106767.465 8
  22785472.034    22785476.005   -76758098.865 8  94855930.101 9
  21281265.742    21281269.662   -44337154.299 9  62927210.377 8
 90  3  9  7 26 14.0800000  0  4G 3G12G19G13
  22081289.795    22081291.559   -70135345.577 9  82768660.052 8
  20939739.053    20939742.800   -41777044.031 9  41126185.664 8
  22782023.928    22782024.668   -76776225.710 8  94841805.298 9
  21284540.556    21284542.803   -44319951.694 9  62940615.006 9
 90  3  9  7 26 29.0800000  0  4G 3G12G19G13
  22078133.832    22078136.151   -70151928.686 9  82755738.170 8
  20944508.232    20944511.819   -41751981.889 9  41145714.597 9
  22778598.922    22778600.809   -76794222.128 9  94827782.105 9
  21287818.966    21287820.953   -44302725.505 9  62954038.006 8
 90  3  9  7 26 44.0800000  0  4G 3G12G19G13
  22074985.390    22074987.598   -70168469.349 9  82742849.358 8
  20949304.298    20949307.940   -41726777.965 9  41165353.999 8
  22775197.970    22775200.176   -76812087.997 8  94813860.665 9
  21291101.450    21291103.992   -44285476.129 9  62967479.077 9
 90  3  9  7 26 59.0800000  0  4G 3G12G19G13
  22071846.067    22071848.127   -70184967.844 9  82729993.416 8
  20954127.118    20954130.550   -41701432.545 9  41185103.677 7
  22771824.893    22771825.348   -76829823.163 9  94800041.049 9
  21294389.033    21294391.417   -44268203.458 9  62980938.309 8
 90  3  9  7 27 14.0800000  0  4G 3G12G19G13
  22068714.797    22068717.240   -70201424.210 9  82717170.287 8
  20958977.971    20958980.811   -41675945.740 9  41204963.516 8
  22768474.113    22768475.214   -76847427.710 8  94786323.202 8
  21297680.003    21297682.787   -44250907.562 9  62994415.615 9
 90  3  9  7 27 29.0800000  0  4G 3G12G19G13
  22065591.380    22065592.645   -70217838.448 9  82704379.985 8
  20963854.839    20963857.166   -41650317.771 9  41224933.362 8
  22765148.188    22765151.119   -76864901.430 8  94772707.311 9
  21300975.166    21300977.996   -44233588.699 9  63007910.836 8
 90  3  9  7 27 44.0800000  0  4G 3G12G19G13
  22062476.104    22062476.805   -70234210.783 9  82691622.323 8
  20968757.798    20968760.143   -41624548.984 8  41245012.924 8
  22761847.670    22761850.499   -76882244.121 8  94759193.531 9
  21304275.335    21304277.553   -44216246.814 9  63021423.990 8
 90  3  9  7 27 59.0800000  0  4G 3G12G19G13
  22059368.784    22059368.984   -70250541.182 9  82678897.355 9
  20973688.997    20973691.697   -41598639.587 9  41265202.051 8
  22758571.763    22758575.043   -76899455.626 9  94745781.961 9
  21307578.071    21307583.660   -44198882.281 9  63034954.790 7
 90  3  9  7 28 14.0800000  0  4G 3G12G19G13
  22056269.432    22056269.371   -70266829.876 9  82666204.874 8
  20978645.696    20978649.363   -41572589.888 9  41285500.520 8
  22755321.670    22755324.509   -76916535.649 8  94732472.857 9
  21310886.987    21310889.486   -44181495.112 9  63048503.234 7
 90  3  9  7 28 29.0800000  0  4G 3G12G19G13
  22053177.508    22053179.892   -70283076.938 9  82653544.830 9
  20983629.121    20983631.452   -41546400.107 9  41305908.139 8
  22752098.068    22752098.911   -76933484.506 9  94719265.954 8
  21314200.479    21314203.407   -44164085.489 9  63062069.170 8
 90  3  9  7 28 44.0800000  0  4G 3G12G19G13
  22050093.750    22050094.380   -70299282.476 9  82640917.137 8
  20988639.989    20988641.140   -41520070.448 9  41326424.754 7
  22748897.457    22748898.938   -76950301.867 9  94706161.501 8
  21317518.194    21317520.079   -44146653.536 9  63075652.510 8
 90  3  9  7 28 59.0800000  0  4G 3G12G19G13
  22047016.930    22047018.692   -70315446.445 9  82628321.852 8
  20993676.850    20993679.372   -41493601.152 9  41347050.169 8
  22745722.763    22745723.466   -76966987.641 9  94693159.613 9
  21320839.488    21320842.726   -44129199.290 9  63089253.221 8
 90  3  9  7 29 14.0800000  0  4G 3G12G19G13
  22043949.682    22043950.606   -70331569.021 9  82615758.811 8
  20998740.253    20998741.999   -41466992.518 9  41367784.165 8
  22742572.968    22742573.317   -76983541.773 9  94680260.286 8
  21324165.200    21324167.956   -44111722.870 9  63102871.209 8
 90  3  9  7 29 29.0800000  0  4G 3G12G19G13
  22040889.404    22040891.249   -70347650.517 9  82603227.789 8
  21003830.556    21003831.721   -41440244.905 9  41388626.458 8
  22739449.032    22739448.321   -76999964.289 9  94667463.511 8
  21327495.492    21327497.361   -44094224.237 8  63116506.504 8
 90  3  9  7 29 44.0800000  0  4G 3G12G19G13
  22037838.576    22037837.883   -70363690.764 9  82590728.914 8
  21008947.423    21008948.547   -41413358.494 8  41409576.908 7
  22736348.309    22736348.671   -77016254.628 9  94654769.725 8
  21330829.233    21330832.002   -44076703.851 9  63130158.738 8
 90  3  9  7 29 59.0800000  0  4G 3G12G19G13
  22034793.081    22034793.399   -70379689.966 9  82578261.999 9
  21014090.058    21014091.419   -41386333.611 9  41430635.244 8
  22733273.016    22733274.488   -77032412.804 8  94642178.942 8
  21334167.139    21334170.336   -44059161.744 9  63143827.905 7
 90  3  9  7 30 14.0800000  0  4G 3G12G19G13
  22031756.521    22031757.697   -70395648.091 9  82565827.107 8
  21019258.722    21019259.756   -41359170.552 9  41451801.267 7
  22730222.747    22730224.008   -77048439.085 9  94629690.932 8
  21337509.279    21337511.967   -44041597.861 9  63157514.046 8
 90  3  9  7 30 29.0800000  0  4G 3G12G19G13
  22028726.079    22028729.630   -70411565.423 9  82553423.997 8
  21024453.852    21024455.126   -41331869.590 9  41473074.727 9
  22727199.023    22727199.009   -77064333.171 9  94617305.932 9
  21340855.069    21340857.857   -44024012.645 9  63171216.802 8
 90  3  9  7 30 44.0800000  0  4G 3G12G19G13
  22025704.922    22025707.770   -70427442.089 8  82541052.582 9
  21029674.855    21029677.627   -41304430.968 9  41494455.466 8
  22724198.800    22724199.466   -77080095.117 9  94605023.891 9
  21344205.163    21344207.975   -44006406.049 9  63184936.226 8
 90  3  9  7 30 59.0800000  0  4G 3G12G19G13
  22022691.673    22022694.613   -70443278.129 9  82528712.822 8
  21034922.036    21034924.522   -41276854.904 9  41515943.298 7
  22721224.979    22721225.158   -77095724.445 9  94592845.198 8
  21347560.270    21347563.313   -43988777.968 9  63198672.390 8
 90  3  9  7 31 14.0800000  0  4G 3G12G19G13
  22019684.908    22019687.537   -70459073.669 9  82516404.619 8
  21040196.577    21040198.627   -41249141.585 8  41537538.084 7
  22718276.200    22718276.903   -77111221.424 9  94580769.613 8
  21350919.581    21350921.219   -43971128.824 9  63212424.957 8
 90  3  9  7 31 29.0800000  0  4G 3G12G19G13
  22016687.146    22016689.009   -70474828.678 9  82504127.997 8
  21045495.640    21045499.358   -41221291.388 9  41559239.521 8
  22715351.468    22715354.303   -77126585.726 8  94568797.441 9
  21354282.586    21354284.371   -43953458.823 9  63226193.783 8
 90  3  9  7 31 44.0800000  0  4G 3G12G19G13
  22013697.242    22013699.267   -70490543.113 9  82491882.992 8
  21050821.473    21050824.747   -41193304.586 9  41581047.423 8
  22712453.988    22712455.032   -77141817.101 8  94556928.852 8
  21357648.049    21357649.202   -43935767.807 9  63239978.997 8
 90  3  9  7 31 59.0800000  0  4G 3G12G19G13
  22010714.953    22010717.445   -70506217.471 9  82479669.217 8
  21056172.950    21056176.174   -41165181.455 9  41602961.544 8
  22709580.860    22709580.744   -77156915.764 9  94545163.648 9
  21361018.864    21361020.246   -43918056.028 9  63253780.388 8
 90  3  9  7 32 14.0800000  0  4G 3G12G19G13
  22007739.440    22007742.855   -70521851.694 9  82467486.714 8
  21061550.256    21061554.335   -41136922.218 9  41624981.719 7
  22706732.569    22706734.004   -77171881.574 9  94533501.972 8
  21364392.541    21364395.271   -43900323.646 9  63267597.829 7
 90  3  9  7 32 29.0800000  0  4G 3G12G19G13
  22004772.301    22004774.827   -70537445.946 9  82455335.370 9
  21066954.730    21066956.783   -41108527.281 9  41647107.638 8
  22703909.863    22703911.573   -77186714.381 9  94521943.953 9
  21367770.884    21367772.813   -43882570.618 9  63281431.349 8
 90  3  9  7 32 44.0800000  0  4G 3G12G19G13
  22001812.047    22001813.766   -70553000.270 9  82443215.125 8
  21072384.275    21072385.879   -41079996.977 9  41669339.049 8
  22701112.950    22701114.232   -77201414.362 9  94510489.424 9
  21371152.318    21371155.562   -43864797.048 9  63295280.893 9
 90  3  9  7 32 59.0800000  0  4G 3G12G19G13
  21998860.580    21998860.843   -70568514.562 9  82431126.086 8
  21077838.067    21077840.039   -41051331.516 9  41691675.765 8
  22698340.049    22698341.285   -77215981.172 9  94499138.660 9
  21374539.860    21374541.434   -43847003.217 9  63309146.208 7
 90  3  9  7 33 14.0800000  0  4G 3G12G19G13
  21995916.120    21995915.571   -70583989.329 9  82419067.841 8
  21083319.464    21083321.765   -41022531.072 9  41714117.659 8
  22695593.391    22695594.922   -77230414.858 8  94487891.625 8
  21377929.638    21377932.595   -43829189.073 9  63323027.345 8
 90  3  9  7 33 29.0800000  0  4G 3G12G19G13
  21992979.310    21992978.641   -70599424.300 9  82407040.590 8
  21088825.071    21088827.914   -40993595.905 9  41736664.546 9
  22692871.203    22692875.349   -77244715.294 9  94476748.424 8
  21381322.634    21381325.762   -43811354.654 9  63336924.289 8
 90  3  9  7 33 44.0800000  0  4G 3G12G19G13
  21990049.091    21990048.938   -70614819.683 9  82395044.198 7
  21094356.201    21094359.109   -40964526.360 9  41759316.146 9
  22690176.400    22690178.683   -77258882.346 9  94465709.181 9
  21384721.168    21384722.710   -43793500.275 9  63350836.783 8
 90  3  9  7 33 59.0800000  0  4G 3G12G19G13
  21987127.449    21987127.472   -70630175.648 9  82383078.528 8
  21099913.568    21099915.375   -40935322.707 9  41782072.218 8
  22687505.431    22687507.876   -77272916.107 9  94454773.777 9
  21388122.636    21388124.488   -43775626.075 9  63364764.741 7
 90  3  9  7 34 14.0800000  0  4G 3G12G19G13
  21984211.793    21984213.137   -70645492.424 9  82371143.382 8
  21105497.155    21105498.741   -40905985.181 9  41804932.621 8
  22684860.414    22684862.727   -77286816.175 9  94443942.548 9
  21391527.876    21391529.362   -43757732.208 9  63378708.008 8
 90  3  9  7 34 29.0800000  0  4G 3G12G19G13
  21981304.242    21981306.755   -70660769.861 9  82359238.898 9
  21111104.770    21111106.280   -40876514.014 9  41827897.165 8
  22682241.223    22682243.884   -77300582.599 9  94433215.465 8
  21394936.427    21394938.957   -43739818.677 9  63392666.589 7
 90  3  9  7 34 44.0800000  0  4G 3G12G19G13
  21978406.452    21978405.582   -70676008.124 9  82347364.946 8
  21116739.032    21116740.890   -40846909.564 9  41850965.552 8
  22679646.971    22679648.908   -77314215.592 9  94422592.345 8
  21398348.567    21398351.040   -43721885.517 9  63406640.469 7
 90  3  9  7 34 59.0800000  0  4G 3G12G19G13
  21975514.163    21975514.020   -70691207.273 9  82335521.472 9
  21122397.457    21122398.677   -40817172.224 9  41874137.501 8
  22677078.126    22677080.117   -77327714.864 9  94412073.445 9
  21401765.016    21401767.674   -43703933.078 9  63420629.372 9
 90  3  9  7 35 14.0800000  0  4G 3G12G19G13
  21972628.759    21972629.086   -70706367.530 9  82323708.295 9
  21128081.992    21128083.140   -40787302.339 9  41897412.728 8
  22674535.549    22674537.127   -77341080.261 9  94401658.840 8
  21405185.011    21405187.341   -43685961.367 9  63434633.299 8
 90  3  9  7 35 29.0800000  0  4G 3G12G19G13
  21969751.121    21969751.557   -70721488.988 9  82311925.348 8
  21133790.936    21133794.306   -40757300.157 9  41920791.051 7
  22672015.593    22672018.150   -77354311.663 8  94391348.665 8
  21408607.601    21408610.787   -43667970.407 9  63448652.225 9
 90  3  9  7 35 44.0800000  0  4G 3G12G19G13
  21966881.231    21966880.849   -70736571.656 9  82300172.620 8
  21139525.663    21139527.015   -40727165.991 9  41944272.214 9
  22669525.385    22669527.376   -77367409.047 8  94381142.915 9
  21412035.537    21412037.604   -43649960.422 9  63462685.977 9
 90  3  9  7 35 59.0800000  0  4G 3G12G19G13
  21964017.007    21964017.916   -70751615.766 8  82288449.937 8
  21145284.512    21145286.442   -40696900.026 9  41967856.075 8
  22667058.407    22667060.635   -77380372.279 9  94371041.690 9
  21415466.182    21415468.981   -43631931.291 9  63476734.648 7
 90  3  9  7 36 14.0800000  0  4G 3G12G19G13
  21961160.683    21961162.321   -70766621.251 9  82276757.364 9
  21151068.073    21151071.420   -40666502.532 9  41991542.404 8
  22664615.856    22664618.089   -77393201.289 9  94361045.050 8
  21418900.129    21418902.903   -43613883.240 9  63490798.074 8
 90  3  9  7 36 29.0800000  0  4G 3G12G19G13
  21958312.559    21958315.000   -70781588.258 9  82265094.765 8
  21156876.503    21156881.169   -40635973.902 9  42015330.940 8
  22662201.402    22662202.945   -77405896.113 9  94351152.990 8
  21422339.170    21422341.484   -43595816.339 9  63504876.183 8
 90  3  9  7 36 44.0800000  0  4G 3G12G19G13
  21955471.180    21955475.068   -70796516.788 9  82253462.155 9
  21162711.766    21162714.970   -40605314.446 9  42039221.402 8
  22659810.993    22659812.668   -77418456.584 9  94341365.604 9
  21425780.907    21425783.018   -43577730.828 9  63518968.778 7
 90  3  9  7 36 59.0800000  0  4G 3G12G19G13
  21952638.571    21952641.496   -70811407.279 8  82241859.178 9
  21168571.676    21168572.878   -40574524.421 9  42063213.630 8
  22657447.015    22657448.847   -77430882.756 9  94331682.874 9
  21429225.442    21429228.012   -43559626.689 9  63533075.912 7
 90  3  9  7 37 14.0800000  0  4G 3G12G19G13
  21949811.942    21949815.179   -70826259.563 8  82230285.982 9
  21174455.922    21174457.683   -40543604.121 9  42087307.362 8
  22655108.406    22655107.679   -77443174.791 9  94322104.666 8
  21432673.385    21432676.586   -43541504.139 9  63547197.378 8
 90  3  9  7 37 29.0800000  0  4G 3G12G19G13
  21946993.187    21946996.177   -70841073.874 9  82218742.385 8
  21180364.182    21180368.593   -40512553.778 9  42111502.437 8
  22652794.403    22652795.636   -77455332.374 9  94312631.203 9
  21436125.446    21436128.764   -43523363.048 9  63561333.289 8
 90  3  9  7 37 44.0800000  0  4G 3G12G19G13
  21944181.972    21944183.169   -70855850.018 9  82207228.525 8
  21186298.089    21186299.947   -40481373.820 9  42135798.506 8
  22650506.602    22650508.781   -77467355.276 9  94303262.699 8
  21439580.545    21439583.405   -43505203.738 9  63575483.385 8
 90  3  9  7 37 59.0800000  0  4G 3G12G19G13
  21941377.885    21941379.179   -70870588.303 9  82195744.163 9
  21192256.068    21192257.883   -40450064.441 9  42160195.429 8
  22648243.785    22648245.676   -77479243.753 9  94293998.953 8
  21443040.810    21443043.167   -43487026.240 9  63589647.668 8
 90  3  9  7 38 14.0800000  0  4G 3G12G19G13
  21938579.428    21938580.946   -70885288.812 8  82184289.232 8
  21198238.707    21198241.718   -40418625.974 9  42184692.915 8
  22646005.664    22646007.395   -77490997.442 9  94284840.226 7
  21446503.204    21446505.304   -43468830.707 9  63603826.010 8
 90  3  9  7 38 29.0800000  0  4G 3G12G19G13
  21935789.071    21935790.292   -70899951.788 9  82172863.553 8
  21204245.935    21204246.995   -40387058.821 9  42209290.694 8
  22643795.153    22643797.017   -77502616.399 9  94275786.503 8
  21449969.106    21449970.989   -43450617.216 9  63618018.333 8
 90  3  9  7 38 44.0800000  0  4G 3G12G19G13
  21933005.412    21933007.713   -70914577.061 9  82161467.231 9
  21210276.750    21210279.750   -40355363.167 9  42233988.596 9
  22641610.638    22641610.874   -77514100.651 9  94266837.742 8
  21453439.297    21453441.254   -43432385.621 9  63632224.772 7
 90  3  9  7 38 59.0800000  0  4G 3G12G19G13
  21930230.370    21930231.293   -70929164.896 9  82150100.080 8
  21216332.412    21216335.589   -40323539.392 9  42258786.326 8
  22639450.115    22639451.859   -77525450.074 9  94257994.042 9
  21456912.881    21456914.066   -43414136.237 9  63646445.067 8
 90  3  9  7 39 14.0800000  0  4G 3G12G19G13
  21927461.284    21927461.856   -70943715.399 9  82138762.040 8
  21222412.757    21222415.549   -40291587.784 9  42283683.672 9
  22637316.022    22637317.454   -77536664.708 9  94249255.348 8
  21460387.898    21460389.939   -43395869.088 9  63660679.192 8
 90  3  9  7 39 29.0800000  0  4G 3G12G19G13
  21924699.403    21924701.493   -70958228.698 9  82127452.979 9
  21228516.858    21228520.583   -40259508.634 9  42308680.396 8
  22635208.365    22635209.852   -77547744.484 9  94240621.765 8
  21463867.992    21463868.963   -43377584.297 9  63674927.085 8
 90  3  9  7 39 44.0800000  0  4G 3G12G19G13
  21921945.447    21921946.523   -70972704.633 9  82116173.040 9
  21234645.760    21234649.387   -40227302.274 9  42333776.241 9
  22633126.017    22633126.316   -77558689.119 8  94232093.468 8
  21467350.392    21467349.790   -43359281.800 9  63689188.778 8
 90  3  9  7 39 59.0800000  0  4G 3G12G19G13
  21919197.691    21919199.385   -70987143.465 9  82104922.007 8
  21240798.112    21240802.523   -40194969.006 9  42358970.979 9
  22631068.508    22631070.612   -77569499.029 9  94223670.163 8
  21470836.371    21470838.196   -43340962.131 9  63703463.833 8
 90  3  9  7 40 14.0800000  0  4G 3G12G19G13
  21916457.083    21916458.287   -71001545.312 9  82093699.804 9
  21246975.310    21246978.193   -40162509.152 9  42384264.367 8
  22629036.674    22629040.079   -77580173.910 9  94215352.086 9
  21474324.994    21474327.523   -43322625.338 9  63717752.249 8
 90  3  9  7 40 29.0800000  0  4G 3G12G19G13
  21913723.156    21913724.628   -71015910.289 9  82082506.328 8
  21253176.087    21253180.221   -40129923.068 9  42409656.112 8
  22627030.847    22627032.422   -77590713.630 8  94207139.308 8
  21477817.496    21477819.881   -43304271.276 9  63732054.120 8
 90  3  9  7 40 44.0800000  0  4G 3G12G19G13
  21910997.176    21910996.895   -71030238.534 9  82071341.471 8
  21259401.238    21259404.685   -40097211.223 9  42435145.846 8
  22625050.505    22625052.668   -77601118.276 8  94199031.781 9
  21481313.416    21481316.328   -43285900.193 9  63746369.242 8
 90  3  9  7 40 59.0800000  0  4G 3G12G19G13
  21908277.956    21908278.191   -71044529.913 9  82060205.339 8
  21265650.406    21265653.612   -40064373.882 9  42460733.385 8
  22623095.568    22623098.477   -77611387.798 8  94191029.559 9
  21484813.290    21484815.757   -43267512.108 8  63760697.613 8
 90  3  9  7 41 14.0800000  0  4G 3G12G19G13
  21905565.318    21905564.699   -71058784.667 9  82049097.737 8
  21271921.922    21271926.052   -40031411.272 9  42486418.538 8
  22621168.349    22621169.274   -77621522.159 9  94183132.659 9
  21488315.503    21488318.592   -43249107.091 9  63775039.172 8
 90  3  9  7 41 29.0800000  0  4G 3G12G19G13
  21902860.015    21902859.533   -71073002.926 9  82038018.574 9
  21278218.751    21278222.063   -39998323.711 9  42512201.036 9
  22619265.362    22619267.816   -77631521.289 8  94175341.119 9
  21491820.900    21491823.225   -43230685.192 9  63789393.908 8
 90  3  9  7 41 44.0800000  0  4G 3G12G19G13
  21900159.206    21900160.297   -71087184.827 9  82026967.751 8
  21284539.356    21284542.330   -39965111.685 9  42538080.534 8
  22617388.138    22617390.886   -77641385.235 9  94167654.917 8
  21495329.343    21495332.266   -43212246.523 9  63803761.701 8
 90  3  9  7 41 59.0800000  0  4G 3G12G19G13
  21897467.638    21897469.914   -71101330.452 9  82015945.210 8
  21290883.411    21290885.613   -39931775.332 9  42564056.895 8
  22615536.996    22615539.691   -77651113.728 9  94160074.284 9
  21498840.860    21498844.774   -43193791.112 9  63818142.517 7
 90  3  9  7 42 14.0800000  0  4G 3G12G19G13
  21894783.535    21894784.646   -71115439.642 9  82004951.051 8
  21297249.997    21297253.449   -39898315.168 9  42590129.740 8
  22613712.901    22613713.260   -77660706.943 9  94152599.044 9
  21502356.227    21502360.087   -43175319.111 9  63832536.293 8
 90  3  9  7 42 29.0800000  0  4G 3G12G19G13
  21892105.777    21892106.480   -71129512.854 9  81993984.924 8
  21303641.241    21303643.316   -39864731.295 9  42616298.976 8
  22611912.232    22611914.958   -77670164.732 9  94145229.344 9
  21505874.000    21505878.371   -43156830.741 9  63846942.818 8
 90  3  9  7 42 44.0800000  0  4G 3G12G19G13
  21889434.286    21889435.924   -71143549.879 9  81983046.991 8
  21310055.028    21310057.607   -39831024.075 9  42642564.337 9
  22610137.751    22610140.082   -77679487.237 8  94137965.045 8
  21509396.049    21509399.724   -43138325.933 9  63861362.143 8
 90  3  9  7 42 59.0800000  0  4G 3G12G19G13
  21886770.659    21886772.346   -71157550.951 9  81972137.057 8
  21316493.111    21316496.062   -39797193.931 9  42668925.469 8
  22608389.819    22608390.968   -77688674.491 9  94130806.141 9
  21512921.889    21512923.560   -43119804.877 9  63875794.127 8
 90  3  9  7 43 14.0800000  0  4G 3G12G19G13
  21884112.332    21884113.727   -71171516.182 9  81961255.061 8
  21322954.086    21322956.548   -39763241.175 9  42695382.150 8
  22606668.635    22606668.635   -77697726.123 9  94123752.897 8
  21516448.490    21516449.833   -43101267.744 9  63890238.667 8
 90  3  9  7 43 29.0800000  0  4G 3G12G19G13
  21881461.299    21881463.579   -71185445.715 9  81950400.897 8
  21329438.128    21329440.994   -39729166.067 8  42721934.195 8
  22604971.147    22604973.093   -77706642.429 9  94116805.118 9
  21519978.957    21519982.971   -43082714.498 9  63904695.723 8
 90  3  9  7 43 44.0800000  0  4G 3G12G19G13
  21878817.327    21878819.417   -71199339.403 9  81939574.654 8
  21335944.629    21335949.123   -39694968.957 9  42748581.266 8
  22603298.967    22603302.062   -77715423.020 9  94109963.108 9
  21523512.208    21523514.914   -43064145.197 9  63919165.331 8
 90  3  9  7 43 59.0800000  0  4G 3G12G19G13
  21876180.496    21876182.037   -71213197.557 9  81928776.091 7
  21342476.965    21342479.324   -39660650.343 9  42775323.029 8
  22601654.832    22601656.402   -77724068.025 9  94103226.732 8
  21527049.255    21527052.141   -43045559.876 9  63933647.399 8
 90  3  9  7 44 14.0800000  0  4G 3G12G19G13
  21873551.150    21873552.617   -71227020.219 9  81918005.188 8
  21349030.317    21349033.243   -39626210.393 9  42802159.333 7
  22600036.282    22600038.028   -77732577.471 9  94096595.988 9
  21530589.149    21530592.067   -43026958.784 9  63948141.761 8
 90  3  9  7 44 29.0800000  0  4G 3G12G19G13
  21870926.523    21870928.597   -71240807.388 9  81907261.961 8
  21355606.605    21355609.422   -39591649.398 9  42829089.976 8
  22598442.933    22598444.562   -77740951.463 9  94090070.803 9
  21534131.605    21534134.078   -43008342.033 9  63962648.320 8
 90  3  9  7 44 44.0800000  0  4G 3G12G19G13
  21868309.448    21868311.573   -71254559.230 9  81896546.226 8
  21362207.271    21362209.220   -39556967.837 9  42856114.543 7
  22596874.369    22596876.389   -77749189.798 9  94083651.321 8
  21537677.663    21537679.432   -42989709.633 9  63977167.069 8
 90  3  9  7 44 59.0800000  0  4G 3G12G19G13
  21865698.568    21865701.997   -71268275.861 9  81885857.943 8
  21368828.824    21368831.272   -39522165.962 9  42883232.888 8
  22595331.781    22595334.455   -77757292.748 9  94077337.329 8
  21541226.801    21541229.112   -42971061.518 9  63991698.063 8
 90  3  9  7 45 14.0800000  0  4G 3G12G19G13
  21863095.080    21863097.744   -71281957.451 9  81875196.982 8
  21375474.960    21375477.362   -39487244.101 9  42910444.719 8
  22593816.400    22593817.662   -77765259.850 8  94071129.206 9
  21544778.155    21544779.970   -42952397.948 9  64006241.091 8
 90  3  9  7 45 29.0800000  0  4G 3G12G19G13
  21860498.293    21860502.559   -71295603.998 9  81864563.319 8
  21382143.623    21382145.176   -39452202.667 9  42937749.709 7
  22592326.823    22592326.672   -77773091.209 9  94065026.832 8
  21548331.645    21548334.719   -42933718.949 9  64020796.150 8
 90  3  9  7 45 44.0800000  0  4G 3G12G19G13
  21857909.842    21857911.156   -71309215.339 9  81853957.086 8
  21388833.862    21388836.959   -39417042.072 9  42965147.572 8
  22590862.020    22590862.885   -77780786.743 9  94059030.299 9
  21551889.357    21551891.321   -42915024.580 9  64035363.188 8
